GFSMA_700_temp_000.txt.gz
Temp
1 1 1 0 1 2 -0 0 1 -0 -0 0 1 1 1 1 1 2 1 1 1 2 3 4 2 3 4 4 4 4 4 5 5 5 5 5 5 5 4 4 4 4 5
1 1 1 1 0 1 0 0 -0 1 1 1 1 1 2 3 2 2 2 2 1 1 2 3 2 2 3 4 4 4 4 4 5 5 5 4 4 4 4 4 4 4 4
1 1 1 1 1 0 0 0 1 1 1 2 3 3 4 3 3 3 3 3 1 1 2 2 2 2 2 3 4 4 4 4 4 4 4 4 4 4 4 4 4 4 4
1 1 0 0 0 0 0 0 1 1 1 -0 1 2 2 2 3 2 3 2 2 2 0 1 1 2 2 2 3 4 4 4 4 4 4 4 4 4 4 4 4 4 4
0 -0 -0 0 0 1 1 1 0 0 1 1 1 1 2 1 1 2 2 2 1 0 1 -0 1 1 1 1 2 3 3 4 4 4 4 4 4 4 4 4 3 4 4
-0 -1 -1 -0 -0 -0 0 -0 -0 -0 0 0 1 1 1 1 1 1 2 1 2 1 0 0 -0 1 1 1 1 3 3 4 4 4 4 3 3 3 3 3 3 3 3
-1 -1 -1 -1 -1 -1 -1 -1 -1 -1 -1 0 1 1 1 1 0 0 1 0 0 -0 -0 -1 -1 -0 1 1 1 1 3 3 3 4 4 3 3 3 3 3 3 3 3
-2 -2 -2 -2 -2 -2 -2 -2 -1 -1 -1 -1 -1 -0 0 0 1 0 0 -0 -0 -1 -0 0 -0 -1 -0 1 1 1 2 2 3 3 4 3 3 3 3 3 3 3 3
-3 -3 -3 -3 -3 -3 -3 -3 -3 -3 -3 -3 -2 -2 -2 -1 0 0 0 -1 -1 -0 -1 0 -0 -1 -0 0 1 0 1 2 3 3 3 3 3 3 3 3 2 2 2
-4 -4 -4 -4 -4 -4 -4 -4 -5 -5 -5 -5 -5 -4 -3 -3 -2 -1 -1 -1 -1 -1 -1 -1 -1 -1 -1 -1 -0 0 0 2 2 2 3 3 3 3 2 2 2 2 2
-5 -5 -5 -6 -7 -6 -6 -6 -6 -6 -6 -6 -6 -6 -6 -4 -4 -4 -1 -2 -2 -3 -2 -2 -1 -1 -1 -1 -1 -0 0 1 1 1 2 2 2 2 2 2 2 2 2
-6 -7 -7 -8 -8 -9 -9 -9 -8 -8 -7 -6 -7 -7 -7 -7 -6 -5 -5 -3 -2 -3 -3 -2 -2 -2 -1 -1 -1 -1 -0 -0 0 0 1 2 2 2 2 2 2 2 2
-8 -9 -9 -9 -10 -10 -11 -11 -11 -11 -10 -9 -9 -8 -8 -7 -7 -6 -6 -5 -4 -3 -4 -3 -3 -2 -2 -2 -2 -2 -1 -1 -1 -0 0 1 0 1 1 1 1 1 1
-9 -9 -10 -10 -10 -10 -11 -11 -11 -11 -11 -11 -10 -10 -10 -9 -9 -8 -7 -7 -6 -4 -4 -4 -3 -4 -3 -3 -2 -2 -2 -2 -2 -1 -1 -0 0 -1 -1 -1 1 1 1
-10 -10 -10 -10 -11 -11 -11 -12 -12 -12 -12 -12 -11 -11 -10 -11 -12 -10 -9 -9 -9 -7 -5 -4 -4 -5 -3 -3 -3 -3 -2 -3 -2 -2 -1 -1 -1 -1 -1 -1 -1 -0 0
-11 -11 -11 -11 -12 -12 -12 -12 -12 -12 -12 -12 -12 -12 -11 -11 -12 -12 -9 -9 -10 -9 -7 -5 -5 -4 -4 -3 -3 -2 -2 -2 -3 -3 -2 -2 -2 -2 -1 -1 -1 -2 -1
-11 -12 -12 -12 -12 -12 -12 -12 -12 -12 -12 -12 -12 -12 -12 -12 -12 -13 -12 -12 -12 -11 -10 -7 -6 -5 -5 -5 -5 -4 -3 -3 -3 -2 -3 -2 -2 -2 -2 -2 -3 -3 -2
-12 -12 -12 -13 -13 -13 -13 -13 -12 -12 -12 -12 -12 -12 -12 -12 -12 -12 -12 -12 -12 -12 -11 -9 -8 -7 -6 -6 -5 -5 -4 -4 -3 -3 -3 -3 -3 -2 -2 -3 -3 -3 -3
-12 -13 -13 -13 -13 -13 -13 -13 -13 -13 -13 -12 -12 -13 -12 -12 -12 -12 -13 -12 -12 -12 -12 -11 -10 -9 -8 -7 -6 -5 -5 -4 -3 -3 -3 -3 -4 -4 -3 -3 -3 -4 -4
-13 -13 -13 -13 -13 -13 -13 -13 -13 -13 -13 -12 -12 -12 -13 -13 -13 -12 -14 -13 -12 -12 -13 -12 -11 -11 -9 -8 -7 -7 -5 -6 -4 -3 -4 -3 -3 -3 -3 -3 -3 -4 -4
-13 -13 -13 -13 -13 -13 -13 -13 -13 -13 -13 -12 -12 -12 -12 -12 -12 -12 -13 -13 -13 -13 -13 -14 -13 -11 -11 -10 -8 -7 -8 -7 -7 -5 -4 -4 -4 -4 -3 -3 -4 -4 -4
-13 -13 -13 -13 -13 -13 -13 -13 -13 -13 -13 -12 -12 -12 -12 -12 -13 -13 -13 -13 -13 -13 -12 -13 -14 -13 -12 -10 -9 -8 -8 -8 -6 -6 -6 -5 -4 -4 -4 -4 -3 -4 -4
-13 -13 -13 -13 -13 -13 -13 -13 -13 -13 -13 -13 -13 -13 -13 -13 -13 -13 -13 -13 -13 -13 -13 -12 -13 -14 -13 -13 -10 -9 -9 -8 -8 -7 -5 -6 -4 -4 -4 -4 -4 -5 -5
-13 -13 -13 -14 -14 -13 -14 -13 -13 -14 -14 -14 -13 -13 -13 -13 -13 -14 -14 -14 -14 -14 -13 -13 -12 -13 -14 -14 -13 -10 -9 -9 -9 -8 -7 -8 -6 -5 -5 -5 -5 -5 -5
-14 -14 -14 -14 -14 -13 -14 -14 -14 -14 -14 -14 -14 -14 -14 -14 -14 -14 -15 -14 -14 -14 -14 -13 -12 -13 -13 -13 -13 -12 -10 -10 -9 -9 -8 -8 -6 -6 -5 -5 -5 -5 -5
-14 -14 -14 -14 -14 -14 -14 -14 -14 -14 -14 -14 -14 -14 -14 -14 -15 -15 -15 -15 -15 -15 -15 -14 -14 -13 -13 -12 -12 -11 -11 -10 -10 -9 -8 -8 -7 -7 -6 -5 -5 -5 -6

GFSMA_700_temp_003.txt.gz
Temp
2 2 2 2 2 2 2 2 1 1 -1 0 0 0 0 1 1 2 2 3 3 3 2 3 3 3 3 3 4 4 4 5 5 5 5 5 5 5 5 5 5 5 5
2 2 1 1 2 2 2 1 1 1 1 0 0 -0 0 -0 1 2 2 3 3 3 3 2 2 2 2 3 3 4 4 4 5 5 5 5 5 5 5 5 4 4 4
2 2 2 1 1 1 1 1 1 1 1 1 0 1 0 0 0 2 3 3 3 4 4 3 3 2 1 2 3 3 3 4 4 4 4 5 5 5 4 4 4 4 4
1 1 1 1 1 1 1 1 1 1 1 1 1 1 0 -0 0 1 2 2 3 3 3 3 2 2 1 2 2 3 3 4 4 4 4 4 4 4 4 4 4 4 4
1 0 0 0 0 -0 0 1 1 1 1 0 1 1 1 1 0 1 1 2 3 3 2 3 1 2 1 1 2 2 3 3 4 4 4 4 4 4 4 4 4 4 4
-1 -1 -1 -0 -0 -1 -1 -0 0 1 1 0 0 0 1 1 1 1 1 1 2 2 2 2 1 1 1 0 1 2 2 3 3 3 3 4 4 4 4 4 4 3 4
-2 -2 -2 -2 -2 -2 -2 -1 -1 -1 -1 -0 0 -0 1 1 1 1 0 0 1 0 1 1 1 1 1 0 0 1 2 2 2 3 3 3 4 4 4 4 3 3 3
-3 -3 -3 -3 -3 -3 -3 -3 -3 -3 -2 -2 -1 -0 -0 0 -0 1 0 -0 -0 0 0 0 0 1 0 0 0 -0 1 1 2 2 3 3 3 3 3 3 3 3 3
-3 -4 -4 -4 -4 -4 -5 -4 -4 -4 -4 -3 -3 -2 -1 -1 -0 0 -0 -0 -1 -0 -0 0 -0 0 0 -0 -0 -0 0 1 1 2 2 2 3 3 3 3 3 3 3
-6 -6 -7 -7 -6 -6 -5 -5 -6 -5 -5 -5 -5 -5 -4 -3 -2 -0 -1 -0 -1 -1 -1 -1 -0 -0 -0 0 0 -1 -1 0 0 1 2 2 2 2 2 2 3 3 3
-7 -7 -7 -7 -8 -7 -7 -7 -7 -7 -7 -6 -8 -8 -7 -6 -6 -4 -1 -1 -1 -1 -2 -3 -2 -2 -1 -0 -0 -1 -1 -1 -0 0 1 1 2 2 2 2 2 2 2
-7 -8 -8 -8 -8 -8 -8 -8 -8 -8 -8 -8 -8 -8 -9 -8 -8 -8 -6 -3 -2 -2 -2 -2 -3 -3 -3 -1 -1 -1 -1 -1 -1 -1 0 0 2 2 2 2 1 2 2
-8 -8 -8 -8 -9 -9 -9 -9 -9 -9 -9 -8 -8 -8 -8 -8 -9 -9 -9 -6 -5 -3 -3 -2 -2 -4 -3 -3 -2 -2 -2 -1 -1 -1 -1 -0 1 1 2 1 1 1 1
-8 -8 -8 -9 -9 -9 -9 -9 -9 -10 -9 -9 -9 -8 -8 -8 -8 -9 -9 -10 -9 -6 -4 -3 -3 -3 -4 -4 -4 -3 -3 -2 -2 -1 -1 -1 -1 -0 1 1 1 1 1
-8 -9 -9 -9 -10 -10 -10 -10 -10 -11 -11 -11 -10 -10 -10 -9 -9 -8 -9 -10 -11 -10 -7 -4 -5 -6 -4 -4 -4 -3 -3 -2 -2 -2 -2 -2 -2 -1 -1 -2 -1 0 -0
-8 -9 -10 -11 -11 -11 -11 -11 -11 -11 -12 -12 -11 -12 -11 -11 -11 -11 -10 -10 -11 -11 -10 -8 -6 -7 -9 -5 -4 -3 -4 -3 -3 -2 -2 -2 -2 -2 -1 -1 -0 -2 -2
-10 -11 -12 -12 -12 -12 -12 -12 -12 -13 -13 -13 -13 -13 -12 -12 -12 -12 -12 -12 -11 -11 -11 -10 -11 -9 -9 -9 -5 -5 -3 -4 -3 -3 -3 -3 -3 -2 -2 -2 -2 -2 -1
-12 -12 -12 -12 -12 -12 -13 -13 -13 -13 -13 -13 -13 -13 -13 -13 -13 -12 -12 -12 -12 -12 -12 -12 -12 -12 -12 -11 -10 -6 -5 -5 -5 -4 -3 -3 -4 -3 -2 -2 -2 -2 -2
-12 -13 -13 -13 -13 -13 -13 -13 -13 -13 -13 -13 -13 -13 -13 -13 -13 -13 -13 -13 -12 -12 -13 -12 -12 -12 -12 -12 -11 -9 -6 -5 -4 -5 -5 -4 -4 -4 -4 -3 -2 -3 -3
-13 -13 -13 -13 -13 -14 -14 -13 -13 -13 -13 -14 -14 -14 -13 -13 -13 -13 -14 -13 -13 -13 -13 -13 -12 -12 -12 -12 -13 -11 -7 -6 -6 -5 -6 -4 -3 -4 -4 -4 -3 -3 -3
-13 -13 -13 -13 -14 -14 -13 -14 -14 -14 -14 -14 -13 -13 -13 -13 -13 -13 -13 -13 -13 -13 -13 -13 -12 -12 -12 -12 -12 -11 -11 -8 -8 -7 -6 -6 -5 -4 -4 -4 -4 -4 -4
-14 -14 -14 -14 -13 -14 -14 -14 -14 -14 -13 -13 -13 -13 -13 -13 -13 -13 -13 -13 -13 -13 -13 -13 -12 -13 -12 -12 -12 -12 -11 -11 -9 -8 -7 -5 -5 -5 -4 -4 -4 -4 -5
-14 -14 -14 -14 -14 -14 -14 -14 -14 -14 -13 -13 -13 -13 -13 -13 -13 -13 -13 -13 -13 -13 -13 -14 -14 -13 -13 -12 -12 -12 -12 -11 -10 -9 -9 -8 -5 -6 -6 -5 -4 -4 -4
-14 -14 -14 -14 -14 -14 -14 -14 -14 -14 -14 -14 -14 -14 -14 -13 -14 -14 -14 -14 -14 -14 -14 -14 -14 -13 -13 -13 -13 -12 -12 -12 -11 -10 -9 -8 -7 -6 -7 -6 -5 -5 -4
-14 -14 -14 -14 -14 -14 -14 -14 -15 -15 -14 -14 -14 -14 -14 -14 -14 -15 -15 -15 -15 -15 -15 -14 -14 -14 -14 -14 -14 -13 -13 -12 -12 -11 -10 -9 -8 -7 -7 -7 -6 -5 -5
-14 -14 -14 -14 -14 -14 -15 -16 -16 -16 -15 -15 -15 -14 -14 -15 -15 -15 -15 -15 -15 -16 -15 -15 -14 -14 -14 -14 -15 -13 -13 -12 -12 -12 -10 -9 -9 -9 -8 -8 -7 -7 -6

GFSMA_700_temp_006.txt.gz
Temp
3 3 3 3 3 3 3 3 3 3 3 2 1 -0 2 0 1 1 1 2 2 2 3 3 3 3 3 3 4 4 5 5 5 5 5 5 5 5 5 5 5 5 5
2 2 2 2 2 2 2 3 3 3 2 2 2 1 -0 -0 0 0 0 1 1 2 2 3 2 3 3 2 3 4 4 5 5 4 5 5 5 5 5 5 5 5 5
2 2 2 1 1 1 1 1 1 2 2 2 2 1 0 0 0 -1 1 0 0 0 2 2 2 3 2 2 2 3 3 4 5 4 4 4 5 5 5 5 5 5 4
2 2 1 1 0 0 0 0 0 0 1 1 1 1 1 1 0 0 -0 -0 -0 1 2 2 2 3 2 1 1 4 4 3 4 4 4 4 4 4 5 5 5 4 4
0 0 0 0 -0 -0 -0 -0 -0 -0 -0 0 1 0 0 1 1 1 0 -0 -0 0 1 1 2 2 2 2 2 2 3 3 3 4 4 4 4 4 4 4 4 4 4
-0 -1 -1 -1 -1 -1 -1 -1 -1 -1 -1 -1 -0 0 0 -0 0 0 1 1 0 0 1 1 1 1 1 1 1 2 2 2 3 3 4 3 4 4 4 4 4 4 4
-1 -2 -2 -3 -3 -3 -2 -2 -2 -2 -2 -2 -2 -1 -0 -0 -0 -0 -0 0 0 0 0 0 0 1 1 1 1 1 1 1 1 1 3 3 3 3 4 4 4 4 4
-3 -3 -3 -3 -3 -3 -3 -3 -4 -4 -3 -3 -3 -2 -1 -0 -2 -1 -0 -0 0 -0 -1 -0 -0 0 1 1 0 -0 0 1 -0 1 1 2 3 3 3 3 3 3 3
-4 -4 -4 -4 -5 -4 -4 -4 -5 -6 -5 -5 -4 -5 -3 -2 -1 -2 -2 -1 -1 -1 -0 -1 -1 -0 -0 -0 -0 -1 0 0 -0 -0 1 2 2 2 3 3 3 3 3
-6 -6 -6 -7 -8 -7 -6 -6 -6 -6 -7 -7 -7 -6 -6 -5 -4 -2 -2 -3 -3 -2 -1 -1 -1 -1 -1 -1 -1 -0 -0 -0 0 0 -1 1 1 2 2 2 3 3 3
-6 -6 -7 -6 -7 -8 -7 -7 -7 -7 -7 -7 -7 -7 -7 -6 -6 -6 -3 -2 -2 -2 -3 -2 -2 -2 -2 -1 -1 -1 -1 -1 -1 -1 -0 -0 0 1 1 2 2 2 2
-5 -7 -7 -6 -8 -8 -9 -8 -8 -8 -8 -8 -8 -8 -8 -8 -7 -7 -7 -5 -4 -3 -3 -2 -2 -2 -2 -2 -1 -2 -2 -2 -1 -2 -1 -1 -0 -0 0 0 2 2 2
-7 -8 -9 -8 -9 -9 -10 -9 -9 -8 -8 -9 -8 -8 -8 -8 -9 -8 -8 -7 -6 -4 -4 -3 -3 -3 -2 -3 -3 -2 -3 -3 -2 -2 -1 -1 -1 -1 -1 -0 -0 1 1
-8 -8 -8 -7 -10 -8 -8 -9 -9 -8 -9 -9 -9 -9 -9 -9 -9 -9 -9 -9 -8 -6 -5 -4 -3 -3 -3 -2 -3 -4 -2 -2 -3 -2 -1 -1 -1 -1 -1 -0 -1 -0 1
-8 -8 -8 -8 -8 -9 -10 -10 -10 -10 -10 -10 -10 -10 -10 -10 -10 -9 -9 -10 -11 -8 -5 -5 -5 -4 -5 -5 -4 -4 -3 -3 -3 -3 -2 -2 -1 -1 -1 -1 -1 -1 -0
-8 -8 -8 -9 -10 -10 -11 -11 -11 -11 -11 -11 -11 -11 -11 -11 -11 -11 -11 -10 -11 -11 -10 -8 -7 -8 -7 -7 -7 -6 -5 -4 -4 -3 -4 -2 -2 -2 -2 -2 -1 -1 -2
-8 -9 -10 -10 -11 -12 -12 -11 -11 -12 -12 -12 -12 -12 -12 -12 -12 -12 -12 -11 -11 -12 -12 -8 -10 -10 -9 -8 -8 -9 -8 -6 -4 -5 -4 -4 -2 -2 -2 -2 -2 -2 -2
-10 -10 -11 -12 -12 -12 -12 -12 -13 -13 -13 -13 -13 -13 -13 -13 -13 -13 -13 -12 -12 -11 -12 -11 -10 -11 -11 -11 -10 -10 -9 -8 -6 -5 -4 -4 -4 -3 -2 -1 -2 -2 -2
-10 -11 -12 -12 -13 -13 -13 -13 -13 -14 -14 -14 -14 -14 -13 -13 -13 -13 -13 -13 -13 -13 -13 -12 -10 -10 -11 -11 -11 -10 -11 -10 -9 -7 -6 -5 -6 -4 -3 -3 -3 -3 -3
-12 -12 -13 -13 -13 -13 -13 -14 -14 -14 -14 -14 -14 -14 -14 -13 -13 -13 -13 -13 -13 -13 -12 -12 -12 -11 -11 -11 -12 -11 -10 -12 -11 -10 -7 -7 -7 -6 -6 -4 -3 -3 -3
-13 -13 -13 -13 -13 -14 -14 -14 -14 -14 -14 -14 -14 -14 -14 -14 -14 -14 -14 -13 -13 -13 -13 -12 -12 -11 -12 -12 -11 -11 -11 -11 -11 -10 -9 -9 -7 -6 -5 -5 -4 -3 -3
-14 -14 -14 -14 -14 -14 -14 -14 -15 -15 -15 -14 -14 -14 -14 -14 -14 -14 -14 -14 -13 -13 -13 -13 -12 -12 -12 -12 -12 -12 -12 -12 -12 -11 -11 -10 -10 -8 -7 -5 -5 -4 -3
-14 -14 -14 -14 -14 -14 -14 -15 -15 -15 -14 -14 -14 -15 -15 -14 -14 -14 -14 -14 -14 -14 -14 -14 -13 -13 -12 -13 -13 -13 -13 -13 -12 -12 -12 -11 -10 -9 -8 -6 -6 -5 -5
-14 -14 -14 -14 -14 -14 -14 -15 -15 -15 -15 -15 -15 -15 -15 -14 -15 -15 -14 -14 -14 -14 -14 -14 -14 -14 -13 -13 -13 -14 -14 -13 -12 -12 -11 -11 -11 -9 -8 -7 -6 -7 -7
-14 -14 -14 -14 -14 -14 -15 -15 -15 -16 -16 -16 -16 -15 -15 -15 -15 -15 -15 -15 -15 -15 -15 -14 -14 -14 -14 -14 -14 -14 -14 -14 -13 -12 -12 -11 -11 -10 -9 -8 -6 -5 -6
-14 -14 -14 -14 -14 -15 -15 -16 -16 -16 -16 -15 -15 -15 -15 -15 -15 -15 -15 -15 -15 -15 -15 -15 -15 -15 -14 -14 -14 -14 -14 -14 -13 -12 -12 -12 -11 -10 -9 -9 -8 -7 -6

GFSMA_700_temp_009.txt.gz
Temp
3 3 3 3 3 3 3 3 3 2 2 1 2 2 2 0 0 2 1 0 1 2 2 2 2 3 3 3 3 3 4 4 4 5 5 5 5 5 5 6 5 5 5
2 2 2 2 2 2 2 2 2 2 2 2 1 1 1 1 1 1 -0 0 -0 1 1 1 2 2 3 3 3 3 3 3 3 3 4 4 5 5 5 5 5 5 5
2 2 2 1 1 1 1 1 1 1 1 1 2 1 1 1 0 0 0 0 -1 -0 0 1 2 2 2 2 3 3 3 3 3 3 3 4 5 4 5 5 5 5 5
1 1 1 1 0 0 -0 -0 -0 -0 -0 -0 -0 1 1 1 1 0 -0 -0 0 -0 -0 -0 0 0 1 1 2 2 2 2 2 3 3 3 4 4 4 5 5 5 5
0 0 0 -0 -0 -0 -1 -1 -1 -1 -1 -1 -1 -1 -0 0 0 0 0 0 0 -0 -0 -1 -1 -1 -1 1 1 2 1 2 1 2 2 2 3 4 4 4 5 5 4
-0 -1 -1 -1 -1 -1 -1 -2 -2 -2 -2 -1 -1 -1 -1 -0 -1 -1 -0 -0 0 -0 0 -0 -1 -0 -1 0 0 1 0 1 1 1 1 1 2 3 4 4 4 5 4
-1 -2 -2 -2 -2 -2 -3 -3 -2 -2 -2 -3 -3 -2 -2 -2 -1 -2 -1 -1 -1 -1 -0 -0 -0 -0 -0 0 -0 -0 0 0 0 1 1 1 1 2 3 4 4 4 4
-3 -3 -3 -3 -4 -4 -4 -4 -4 -4 -4 -4 -3 -4 -4 -2 -3 -3 -2 -2 -1 -1 -1 -1 -1 -1 -1 -1 -1 -1 -0 -0 -0 1 1 1 1 1 2 3 4 4 4
-4 -5 -5 -5 -5 -5 -5 -5 -5 -5 -5 -5 -5 -5 -5 -4 -4 -3 -3 -4 -3 -2 -2 -2 -1 -2 -1 -0 -1 -1 -0 -0 -0 0 0 0 1 0 0 2 3 3 3
-4 -5 -6 -7 -7 -6 -6 -7 -6 -6 -6 -6 -5 -6 -6 -6 -6 -4 -4 -4 -4 -4 -4 -3 -2 -2 -2 -1 -1 -0 -1 -1 -1 -1 0 0 1 0 -0 0 1 2 2
-5 -6 -6 -7 -8 -7 -7 -7 -8 -8 -7 -8 -8 -7 -6 -6 -6 -6 -5 -4 -4 -4 -4 -4 -4 -4 -3 -2 -2 -2 -1 -1 -1 -1 -1 -0 0 0 -0 1 -0 1 1
-6 -6 -7 -7 -7 -7 -7 -8 -9 -9 -8 -8 -8 -8 -8 -7 -7 -7 -6 -6 -6 -4 -4 -4 -4 -4 -3 -4 -3 -2 -2 -1 -2 -3 -2 -1 -1 -1 -0 -0 -1 -0 -0
-5 -6 -7 -7 -7 -8 -8 -9 -8 -8 -8 -9 -9 -8 -8 -8 -8 -8 -8 -7 -7 -6 -5 -5 -5 -4 -4 -4 -3 -3 -3 -2 -2 -3 -2 -2 -2 -1 -1 -1 -0 -1 -1
-6 -6 -6 -7 -8 -8 -8 -8 -9 -9 -9 -10 -9 -9 -9 -9 -9 -9 -9 -9 -7 -7 -6 -5 -6 -5 -4 -4 -4 -4 -3 -3 -2 -3 -3 -3 -2 -1 -2 -1 -1 -1 -1
-5 -6 -6 -7 -7 -8 -9 -9 -9 -10 -11 -11 -10 -10 -10 -10 -10 -10 -10 -11 -10 -8 -6 -6 -6 -6 -7 -6 -5 -4 -4 -4 -4 -3 -3 -3 -3 -3 -2 -2 -1 -0 -1
-6 -6 -7 -9 -9 -9 -10 -11 -12 -12 -12 -11 -11 -11 -11 -11 -11 -11 -11 -12 -11 -11 -9 -8 -8 -8 -7 -7 -7 -6 -5 -4 -4 -4 -3 -3 -4 -2 -2 -2 -1 -1 -1
-7 -8 -9 -10 -10 -10 -12 -12 -13 -12 -12 -12 -12 -12 -12 -12 -12 -13 -13 -13 -12 -12 -12 -10 -10 -9 -9 -8 -8 -9 -7 -7 -6 -5 -4 -3 -3 -3 -3 -2 -2 -1 -1
-9 -10 -10 -11 -11 -12 -13 -13 -13 -13 -13 -13 -13 -13 -13 -13 -13 -13 -13 -13 -13 -13 -13 -11 -12 -11 -10 -10 -9 -9 -10 -8 -8 -8 -7 -5 -4 -3 -3 -3 -3 -2 -2
-10 -11 -11 -12 -13 -13 -13 -13 -13 -14 -14 -13 -13 -13 -13 -13 -13 -13 -13 -13 -13 -13 -13 -12 -12 -12 -12 -11 -11 -11 -10 -11 -9 -10 -9 -7 -7 -6 -5 -3 -3 -3 -3
-12 -12 -12 -13 -13 -13 -13 -14 -14 -14 -14 -13 -14 -14 -14 -14 -14 -14 -14 -14 -14 -14 -13 -13 -12 -12 -12 -12 -12 -11 -11 -11 -11 -10 -9 -10 -9 -7 -6 -5 -4 -3 -4
-13 -13 -13 -13 -14 -14 -14 -14 -14 -14 -14 -14 -14 -15 -15 -15 -15 -15 -15 -14 -14 -14 -14 -13 -12 -12 -12 -12 -12 -13 -12 -11 -11 -11 -10 -10 -10 -8 -7 -6 -5 -4 -4
-13 -13 -14 -14 -14 -14 -14 -14 -15 -14 -14 -14 -14 -14 -14 -14 -14 -15 -15 -15 -14 -14 -14 -13 -12 -12 -12 -12 -12 -12 -13 -13 -11 -10 -11 -10 -10 -10 -9 -8 -7 -5 -4
-14 -14 -14 -14 -14 -14 -14 -15 -15 -15 -14 -14 -14 -14 -15 -15 -15 -15 -15 -15 -15 -15 -15 -14 -12 -12 -12 -12 -12 -12 -12 -14 -12 -11 -11 -11 -10 -10 -11 -9 -8 -7 -6
-14 -14 -14 -14 -14 -14 -15 -15 -15 -15 -14 -15 -15 -15 -15 -15 -15 -15 -15 -15 -15 -15 -15 -14 -14 -13 -13 -13 -13 -12 -12 -13 -12 -12 -12 -11 -11 -10 -11 -11 -10 -8 -7
-14 -14 -14 -14 -14 -14 -15 -15 -15 -15 -15 -15 -15 -15 -15 -15 -15 -15 -15 -15 -15 -14 -14 -14 -14 -14 -14 -14 -14 -13 -12 -12 -12 -12 -13 -13 -11 -11 -11 -11 -11 -9 -8
-15 -14 -14 -15 -14 -15 -15 -15 -15 -16 -16 -16 -15 -15 -15 -15 -15 -15 -15 -15 -15 -15 -15 -15 -15 -15 -14 -14 -14 -14 -13 -13 -13 -13 -13 -13 -12 -12 -12 -12 -11 -10 -9

GFSMA_700_temp_012.txt.gz
Temp
3 2 2 2 2 2 2 2 2 2 2 2 2 2 2 2 2 2 -0 -0 0 0 1 1 2 2 2 2 2 3 3 3 3 3 4 4 5 5 5 5 6 6 6
2 2 1 1 1 1 1 1 1 1 1 1 1 2 1 1 2 2 1 0 -0 0 0 1 1 1 2 2 2 2 2 3 3 3 3 3 4 5 5 5 5 6 5
1 1 1 1 0 0 0 0 0 0 0 1 1 1 1 1 1 1 0 0 0 0 -0 -0 0 -0 1 2 2 2 2 2 3 3 3 3 3 4 4 4 5 5 5
0 0 1 0 -0 -0 -0 -1 -1 -1 -1 -1 -1 -0 -0 0 0 0 0 0 0 1 0 -0 -0 -0 0 1 1 1 2 2 2 3 3 3 3 3 3 4 4 4 5
0 -0 -0 -1 -1 -1 -1 -2 -2 -2 -2 -2 -2 -2 -2 -1 -1 -0 -0 -0 -0 -0 0 -0 -1 -1 -1 -1 1 1 1 2 2 2 2 2 3 3 3 3 4 4 4
-1 -1 -1 -2 -2 -2 -2 -2 -2 -2 -3 -3 -3 -3 -2 -2 -2 -2 -1 -1 -1 -1 -1 -0 -1 -1 -1 -1 -0 -0 1 1 1 2 1 2 2 2 3 2 3 4 4
-1 -2 -2 -3 -3 -3 -3 -3 -3 -3 -3 -3 -3 -3 -3 -3 -3 -3 -3 -2 -1 -1 -1 -1 -1 -1 -2 -1 -1 -1 -1 -0 -0 0 1 2 2 2 1 2 3 3 3
-3 -3 -3 -4 -4 -4 -4 -4 -4 -4 -4 -5 -4 -4 -4 -3 -3 -4 -4 -4 -4 -3 -2 -2 -2 -1 -1 -2 -2 -1 -2 -1 -2 -0 1 1 2 1 2 1 2 2 3
-3 -4 -4 -5 -5 -6 -6 -6 -6 -5 -6 -6 -5 -6 -5 -4 -4 -3 -3 -4 -4 -4 -4 -3 -3 -3 -3 -2 -2 -2 -2 -1 -2 -1 -0 0 -0 0 1 1 1 1 2
-4 -4 -5 -5 -6 -6 -7 -7 -7 -7 -6 -6 -6 -7 -6 -7 -6 -4 -4 -4 -4 -4 -4 -5 -4 -4 -3 -3 -2 -1 -2 -1 -1 -0 -1 -0 -0 0 0 0 1 0 1
-4 -4 -4 -5 -6 -6 -7 -7 -7 -7 -7 -7 -7 -7 -8 -8 -8 -8 -5 -5 -5 -4 -4 -4 -5 -5 -5 -4 -3 -2 -1 -1 -2 -1 -1 -1 -2 -1 -0 -0 -0 -0 -0
-4 -4 -5 -5 -5 -6 -6 -7 -7 -7 -7 -7 -8 -8 -8 -9 -8 -8 -8 -6 -6 -5 -5 -5 -5 -5 -5 -5 -5 -4 -3 -2 -2 -2 -2 -2 -2 -1 -0 -0 -0 -0 -0
-4 -4 -5 -5 -6 -6 -6 -6 -6 -7 -7 -8 -9 -8 -9 -9 -9 -9 -9 -8 -7 -6 -6 -5 -5 -5 -5 -5 -5 -5 -4 -3 -2 -2 -2 -2 -2 -2 -1 -1 -1 0 -0
-5 -5 -5 -5 -6 -7 -7 -7 -7 -7 -8 -8 -9 -9 -9 -10 -10 -9 -9 -9 -8 -7 -7 -6 -7 -6 -6 -6 -5 -5 -5 -4 -4 -4 -3 -3 -2 -2 -2 -2 -1 -1 -0
-6 -5 -5 -6 -6 -6 -7 -8 -8 -8 -9 -9 -9 -10 -10 -10 -11 -10 -10 -11 -11 -9 -8 -7 -7 -7 -6 -6 -6 -6 -5 -5 -4 -4 -3 -3 -3 -3 -3 -3 -2 -2 -1
-7 -6 -6 -6 -7 -8 -9 -9 -9 -10 -10 -10 -11 -11 -11 -11 -12 -12 -12 -11 -11 -11 -10 -10 -9 -8 -8 -7 -7 -7 -6 -5 -5 -4 -4 -4 -3 -3 -3 -3 -3 -2 -2
-8 -8 -8 -8 -9 -10 -10 -10 -11 -11 -11 -11 -12 -12 -12 -12 -12 -13 -13 -12 -12 -12 -12 -12 -11 -10 -9 -9 -8 -7 -7 -7 -5 -5 -6 -5 -4 -3 -2 -3 -3 -3 -2
-9 -9 -9 -10 -10 -11 -11 -11 -11 -12 -12 -13 -13 -13 -13 -13 -13 -13 -13 -13 -13 -13 -13 -13 -13 -12 -12 -11 -10 -9 -8 -8 -8 -7 -5 -6 -5 -5 -3 -3 -3 -3 -3
-10 -10 -11 -11 -11 -11 -12 -12 -13 -13 -13 -13 -13 -14 -14 -14 -13 -13 -14 -14 -14 -14 -13 -13 -13 -13 -13 -12 -12 -12 -10 -9 -8 -9 -8 -6 -6 -5 -5 -4 -4 -4 -3
-11 -11 -12 -12 -12 -13 -13 -13 -13 -14 -14 -14 -14 -13 -13 -14 -14 -14 -14 -14 -14 -14 -13 -13 -13 -13 -13 -13 -12 -12 -11 -11 -10 -10 -10 -9 -8 -7 -6 -5 -4 -4 -3
-12 -12 -13 -13 -13 -13 -13 -14 -14 -14 -14 -14 -14 -14 -14 -14 -14 -14 -14 -14 -14 -14 -13 -13 -13 -13 -13 -13 -13 -13 -12 -12 -11 -11 -11 -11 -10 -8 -8 -7 -6 -5 -4
-12 -13 -13 -13 -13 -14 -14 -14 -14 -14 -14 -14 -14 -14 -14 -14 -14 -14 -15 -15 -15 -14 -14 -13 -13 -13 -13 -13 -13 -13 -13 -12 -12 -12 -12 -11 -11 -10 -9 -9 -8 -8 -6
-13 -13 -13 -14 -14 -14 -14 -14 -14 -14 -14 -14 -14 -14 -14 -15 -15 -15 -15 -15 -15 -15 -15 -15 -14 -14 -14 -14 -14 -14 -14 -13 -12 -12 -12 -12 -11 -10 -10 -10 -9 -9 -8
-14 -14 -14 -14 -14 -14 -14 -14 -14 -14 -14 -14 -15 -15 -15 -15 -15 -15 -15 -15 -15 -15 -15 -15 -15 -15 -14 -14 -14 -14 -14 -13 -13 -12 -12 -12 -11 -10 -10 -10 -10 -10 -9
-14 -14 -14 -14 -14 -14 -15 -15 -14 -14 -14 -15 -15 -15 -15 -15 -15 -15 -15 -15 -15 -14 -15 -15 -15 -15 -15 -15 -15 -15 -14 -14 -13 -13 -13 -12 -11 -10 -10 -10 -10 -10 -10
-14 -15 -15 -15 -15 -15 -15 -14 -15 -15 -15 -15 -15 -15 -15 -15 -15 -15 -15 -15 -15 -14 -14 -15 -15 -15 -16 -15 -15 -15 -14 -14 -14 -13 -13 -12 -12 -12 -11 -11 -11 -11 -10

GFSMA_700_temp_015.txt.gz
Temp
2 2 2 2 2 1 1 1 1 1 1 1 2 1 2 2 2 2 2 2 1 1 0 0 0 1 2 2 2 3 3 2 3 3 3 3 4 4 5 5 5 5 5
2 1 1 1 1 1 0 0 0 0 0 0 0 1 1 1 1 1 1 1 1 -1 -1 -0 -0 0 1 1 2 2 2 2 2 3 3 3 3 3 4 5 5 5 5
1 1 1 0 0 0 0 0 -0 -0 -0 -1 -1 -1 -0 -0 0 0 0 0 -0 -0 -0 -1 -1 0 -0 -0 1 2 1 1 2 2 3 3 3 2 3 4 5 5 5
1 1 0 0 -0 -0 -0 -1 -1 -1 -1 -1 -1 -1 -1 -1 -1 -1 -1 -1 -0 -0 -0 -0 -0 0 0 -0 -0 1 1 1 1 1 2 2 3 3 4 4 4 4 5
0 -0 -0 -1 -1 -1 -1 -1 -1 -2 -2 -2 -2 -2 -2 -2 -2 -1 -1 -1 -1 -1 -1 -0 -0 -1 -1 -0 -0 -0 0 1 1 1 1 2 2 2 3 4 4 4 4
-0 -0 -1 -1 -1 -2 -2 -2 -2 -2 -2 -2 -2 -2 -3 -3 -3 -2 -2 -2 -1 -1 -1 -1 -1 -0 -1 -1 -1 -1 -0 -0 0 1 1 1 1 2 2 2 3 3 4
-1 -1 -1 -2 -2 -2 -2 -3 -3 -3 -3 -3 -3 -3 -3 -3 -3 -3 -3 -3 -3 -2 -2 -2 -2 -1 -1 -0 -1 -1 -1 -1 -0 0 1 1 0 0 2 2 2 2 2
-2 -1 -1 -2 -2 -3 -3 -3 -3 -3 -4 -4 -4 -5 -4 -3 -3 -4 -4 -4 -4 -4 -3 -3 -3 -2 -2 -1 -1 -1 -1 -2 -1 -1 -0 0 1 0 0 1 1 1 1
-2 -2 -2 -3 -4 -4 -4 -4 -5 -4 -4 -4 -4 -5 -5 -4 -4 -4 -4 -4 -4 -4 -4 -4 -4 -4 -3 -3 -2 -2 -1 -1 -1 -2 -1 -1 -0 0 1 0 1 1 1
-2 -2 -3 -4 -4 -4 -5 -5 -5 -6 -6 -5 -5 -5 -6 -6 -6 -5 -5 -5 -4 -4 -4 -4 -4 -4 -4 -4 -3 -3 -2 -2 -2 -2 -2 -2 -2 -1 -1 -0 0 1 1
-2 -3 -4 -4 -4 -5 -6 -6 -7 -6 -7 -7 -7 -7 -7 -7 -7 -7 -7 -5 -5 -5 -5 -5 -4 -4 -5 -5 -4 -4 -3 -3 -2 -2 -2 -2 -2 -2 -1 -2 -1 -0 -0
-2 -2 -3 -4 -5 -4 -5 -6 -6 -7 -7 -7 -6 -7 -7 -7 -7 -8 -7 -6 -6 -5 -5 -5 -5 -5 -5 -5 -5 -5 -5 -4 -4 -3 -3 -2 -2 -2 -2 -1 -1 -1 -1
-2 -3 -3 -5 -6 -5 -5 -5 -6 -7 -7 -7 -7 -7 -7 -8 -8 -8 -9 -8 -7 -6 -6 -6 -6 -6 -5 -6 -6 -6 -6 -5 -5 -4 -2 -2 -2 -2 -2 -2 -2 -2 -1
-3 -3 -4 -5 -6 -5 -6 -6 -7 -7 -7 -7 -7 -8 -8 -8 -9 -9 -9 -9 -8 -8 -7 -6 -6 -7 -6 -6 -7 -7 -7 -7 -6 -5 -4 -2 -3 -2 -2 -3 -2 -2 -1
-4 -5 -6 -6 -7 -7 -6 -7 -7 -7 -8 -8 -9 -9 -9 -9 -9 -10 -10 -10 -10 -9 -8 -7 -7 -8 -8 -8 -8 -8 -8 -8 -7 -6 -5 -4 -4 -3 -3 -3 -3 -2 -2
-7 -7 -8 -8 -7 -8 -7 -8 -9 -9 -9 -9 -10 -10 -10 -10 -10 -11 -11 -11 -11 -11 -10 -10 -9 -9 -9 -9 -9 -8 -9 -9 -9 -7 -7 -6 -6 -6 -5 -3 -3 -3 -3
-8 -9 -9 -9 -8 -9 -9 -9 -9 -9 -9 -10 -10 -11 -10 -11 -11 -12 -12 -12 -12 -12 -12 -11 -12 -11 -11 -10 -10 -10 -9 -9 -9 -8 -7 -7 -7 -7 -5 -4 -4 -3 -3
-9 -9 -10 -10 -10 -10 -10 -10 -10 -10 -11 -11 -11 -12 -12 -13 -13 -13 -13 -13 -13 -13 -13 -13 -13 -13 -12 -12 -11 -11 -10 -10 -9 -9 -8 -7 -7 -7 -7 -6 -4 -3 -3
-10 -10 -10 -11 -11 -11 -11 -11 -11 -12 -12 -12 -13 -13 -13 -13 -13 -13 -14 -14 -14 -14 -14 -13 -13 -13 -13 -13 -13 -12 -12 -11 -10 -10 -9 -9 -8 -7 -7 -7 -6 -5 -4
-10 -11 -12 -12 -12 -12 -12 -12 -12 -13 -13 -13 -14 -14 -14 -14 -14 -14 -14 -14 -14 -14 -14 -14 -14 -14 -14 -13 -13 -13 -12 -12 -11 -11 -10 -10 -9 -9 -8 -7 -7 -5 -5
-12 -12 -12 -12 -13 -13 -13 -13 -14 -14 -14 -14 -14 -14 -14 -14 -14 -14 -14 -14 -14 -14 -14 -14 -14 -14 -13 -13 -14 -13 -13 -12 -12 -11 -11 -10 -10 -9 -9 -8 -8 -7 -6
-12 -13 -13 -13 -13 -13 -13 -14 -14 -14 -14 -14 -14 -14 -14 -14 -14 -14 -14 -14 -15 -15 -15 -15 -15 -14 -14 -14 -14 -14 -14 -13 -12 -11 -11 -11 -11 -10 -9 -9 -9 -8 -8
-13 -13 -13 -14 -14 -14 -14 -14 -14 -14 -14 -14 -14 -14 -14 -14 -14 -14 -15 -15 -15 -15 -16 -16 -15 -15 -15 -15 -14 -14 -14 -14 -13 -12 -12 -11 -11 -11 -11 -11 -10 -9 -9
-14 -14 -14 -14 -14 -14 -15 -15 -15 -14 -14 -14 -14 -14 -15 -15 -14 -14 -14 -14 -14 -15 -15 -15 -16 -16 -15 -15 -15 -15 -15 -14 -13 -12 -13 -12 -12 -11 -11 -11 -11 -10 -10
-14 -14 -14 -15 -15 -15 -15 -15 -15 -14 -14 -14 -15 -15 -15 -15 -15 -15 -15 -15 -14 -14 -15 -15 -15 -16 -15 -15 -15 -15 -15 -14 -14 -14 -14 -13 -12 -12 -12 -11 -11 -11 -11
-14 -15 -15 -15 -15 -16 -16 -15 -15 -14 -14 -14 -15 -15 -15 -15 -15 -15 -15 -15 -15 -15 -15 -15 -15 -15 -16 -15 -15 -15 -15 -14 -14 -14 -14 -13 -13 -13 -13 -12 -12 -12 -11

GFSMA_700_temp_021.txt.gz
Temp
2 2 2 2 2 2 2 1 2 2 1 1 1 1 1 1 1 1 1 1 1 1 1 2 2 2 3 3 2 3 2 2 2 2 3 3 3 3 3 3 3 4 4
3 2 2 2 2 1 1 1 1 1 1 1 1 1 1 1 1 1 0 0 0 1 1 1 1 1 2 2 2 1 2 2 2 2 2 3 3 3 3 3 3 3 4
2 2 1 1 1 1 1 0 0 0 0 -0 -0 -0 -0 0 0 1 0 -0 -0 -0 -0 -0 -0 0 0 0 1 0 1 1 1 1 1 1 2 3 2 2 2 3 3
1 1 0 0 -0 -0 -0 -0 -1 -1 -1 -1 -1 -1 -1 -1 -1 -1 -0 -0 -0 -1 -1 -1 -1 -1 -1 -0 -0 0 -0 -0 0 0 0 1 1 2 2 2 2 2 2
-0 -0 -0 -0 -1 -1 -1 -1 -1 -1 -1 -1 -1 -1 -1 -1 -1 -2 -1 -1 -1 -1 -1 -1 -1 -1 -1 -1 -1 -1 -0 -0 -0 0 0 0 1 1 1 2 2 2 2
-0 -1 -0 -1 -1 -1 -1 -1 -1 -2 -2 -2 -2 -2 -2 -2 -2 -2 -2 -2 -2 -2 -2 -2 -2 -1 -1 -1 -1 -1 -1 -1 0 0 1 1 1 1 1 2 1 2 2
-1 -1 -1 -1 -1 -1 -1 -1 -2 -2 -2 -3 -3 -3 -3 -3 -3 -3 -3 -3 -3 -3 -3 -3 -3 -3 -2 -2 -2 -1 -1 -1 -1 -0 0 -0 -0 1 1 1 1 1 1
-2 -2 -1 -1 -1 -1 -1 -1 -1 -2 -3 -3 -4 -4 -4 -3 -3 -3 -4 -4 -4 -4 -4 -4 -4 -4 -4 -3 -3 -2 -2 -1 -1 -1 -1 -0 -0 -0 -0 1 1 -0 0
-2 -2 -1 -2 -2 -2 -2 -2 -2 -2 -2 -3 -4 -5 -5 -4 -4 -4 -4 -4 -4 -4 -4 -4 -4 -4 -4 -4 -4 -3 -3 -2 -2 -2 -2 -1 -1 -0 -1 -1 -0 0 -0
-1 -1 -1 -2 -2 -2 -2 -2 -3 -3 -4 -4 -4 -5 -5 -4 -5 -5 -4 -4 -4 -4 -4 -5 -5 -5 -5 -4 -4 -4 -4 -4 -3 -3 -2 -2 -2 -1 -1 -0 -0 -0 -1
-1 -2 -2 -2 -2 -2 -2 -3 -3 -3 -4 -5 -5 -5 -5 -5 -5 -5 -5 -6 -5 -5 -5 -5 -5 -5 -5 -4 -4 -4 -4 -4 -5 -4 -4 -3 -3 -2 -2 -1 -1 -1 -1
-2 -2 -2 -2 -2 -2 -2 -3 -3 -4 -4 -5 -5 -5 -5 -6 -6 -6 -5 -6 -6 -5 -5 -6 -5 -5 -5 -5 -5 -5 -5 -5 -5 -5 -5 -4 -3 -3 -3 -2 -2 -2 -1
-3 -3 -3 -2 -2 -2 -3 -3 -4 -5 -5 -6 -6 -6 -6 -6 -6 -6 -7 -7 -7 -6 -7 -7 -7 -6 -5 -5 -5 -5 -5 -5 -5 -6 -6 -6 -5 -3 -3 -3 -2 -3 -2
-3 -3 -3 -3 -3 -4 -5 -6 -7 -7 -8 -9 -8 -7 -7 -8 -8 -9 -9 -9 -9 -9 -9 -8 -8 -7 -7 -6 -6 -6 -5 -6 -6 -6 -6 -6 -6 -5 -4 -3 -3 -3 -3
-4 -4 -4 -4 -5 -7 -8 -8 -9 -10 -9 -9 -9 -9 -9 -9 -9 -9 -9 -10 -10 -9 -9 -9 -8 -8 -7 -7 -6 -6 -6 -7 -7 -7 -7 -6 -6 -6 -5 -4 -4 -3 -3
-4 -5 -7 -8 -9 -9 -10 -10 -10 -10 -10 -10 -10 -10 -9 -10 -10 -11 -11 -11 -11 -11 -10 -10 -10 -9 -8 -8 -8 -8 -8 -8 -8 -8 -8 -7 -7 -7 -6 -5 -4 -4 -3
-7 -8 -10 -10 -10 -10 -10 -10 -11 -11 -11 -11 -11 -12 -12 -13 -13 -13 -13 -12 -12 -12 -12 -11 -11 -11 -10 -10 -10 -9 -9 -8 -8 -8 -9 -8 -8 -8 -8 -7 -6 -5 -4
-9 -11 -11 -11 -11 -11 -11 -12 -12 -12 -12 -12 -12 -13 -13 -13 -13 -13 -13 -13 -13 -13 -14 -13 -12 -12 -12 -11 -11 -11 -11 -10 -10 -9 -10 -10 -9 -9 -9 -8 -7 -6 -5
-11 -12 -12 -12 -12 -12 -12 -12 -12 -13 -13 -14 -14 -13 -13 -13 -13 -13 -13 -13 -13 -13 -14 -14 -13 -13 -13 -12 -12 -12 -12 -12 -12 -11 -11 -11 -10 -10 -9 -9 -8 -8 -7
-12 -12 -13 -13 -13 -13 -13 -14 -14 -14 -14 -14 -14 -14 -14 -14 -14 -14 -14 -14 -14 -14 -14 -14 -13 -13 -13 -13 -13 -13 -13 -13 -12 -12 -12 -11 -11 -11 -10 -10 -9 -8 -9
-12 -13 -13 -14 -14 -14 -14 -14 -14 -14 -14 -14 -14 -15 -15 -15 -15 -15 -15 -14 -14 -14 -14 -14 -14 -13 -13 -14 -13 -13 -13 -13 -13 -12 -12 -12 -12 -12 -11 -10 -10 -9 -9
-14 -14 -14 -14 -14 -15 -15 -15 -15 -15 -15 -15 -15 -15 -15 -15 -15 -15 -15 -15 -14 -14 -14 -15 -15 -14 -14 -14 -14 -14 -14 -14 -13 -14 -13 -12 -13 -12 -12 -11 -11 -11 -10
-15 -15 -15 -15 -15 -15 -15 -15 -15 -15 -15 -15 -15 -15 -15 -15 -15 -15 -15 -15 -15 -15 -15 -15 -15 -14 -14 -14 -14 -14 -14 -14 -14 -14 -14 -13 -13 -13 -12 -12 -12 -11 -11
-15 -15 -15 -15 -15 -15 -16 -16 -16 -16 -16 -15 -16 -16 -15 -15 -15 -16 -15 -15 -15 -15 -15 -15 -15 -15 -15 -15 -15 -15 -15 -14 -14 -14 -15 -13 -14 -13 -13 -13 -12 -12 -11
-15 -15 -15 -15 -16 -16 -16 -16 -16 -16 -16 -16 -16 -16 -16 -16 -16 -16 -16 -15 -15 -15 -16 -15 -15 -15 -15 -15 -16 -16 -15 -15 -15 -15 -15 -15 -15 -14 -14 -13 -13 -12 -12
-16 -16 -16 -16 -16 -16 -17 -17 -17 -16 -16 -16 -16 -16 -16 -16 -16 -16 -16 -16 -16 -16 -16 -16 -15 -15 -15 -15 -15 -16 -16 -16 -16 -16 -15 -16 -16 -15 -14 -14 -14 -13 -13

GFSMA_700_temp_027.txt.gz
Temp
3 2 2 2 2 2 1 1 1 1 1 1 1 1 1 1 1 1 0 1 1 1 1 1 1 1 2 2 2 2 2 3 2 2 2 3 2 3 2 2 3 3 3
2 1 1 1 1 1 1 1 1 1 1 1 1 1 1 1 1 1 1 1 1 1 1 1 1 1 1 1 2 2 2 2 2 2 2 2 2 2 2 3 2 2 3
1 1 1 0 -0 -0 0 0 1 0 0 0 0 0 1 1 0 0 0 -0 1 1 1 0 0 0 0 1 1 1 1 1 2 2 2 2 1 2 2 2 2 3 2
0 0 -0 -0 -0 -1 -0 -0 -0 -0 -0 -0 -0 -0 -0 0 0 0 0 -0 -1 0 0 0 0 -0 -0 -0 0 0 0 1 1 1 1 1 1 1 2 2 2 2 3
0 -0 -0 -0 -0 -1 -0 -0 0 0 0 0 0 -1 -0 0 -0 -0 -0 0 -0 -1 -1 0 -0 -1 -1 -1 -1 -1 -0 0 1 1 1 1 1 1 1 1 1 1 2
-0 -1 -1 -1 -1 -1 -0 -0 -0 -1 -1 -1 -1 -1 -2 -2 -1 -1 -1 -1 -1 -1 -1 -2 -1 -1 -1 -1 -2 -1 -1 -1 -0 0 0 0 1 1 1 1 1 1 2
-1 -1 -0 -1 -2 -2 -2 -1 -1 -1 -1 -2 -2 -1 -1 -1 -1 -1 -1 -1 -2 -1 -1 -1 -2 -2 -1 -2 -2 -2 -2 -2 -2 -1 -0 0 -0 0 0 0 1 1 1
-1 -2 -2 -2 -2 -2 -2 -2 -2 -2 -2 -2 -2 -3 -2 -2 -3 -2 -2 -1 -2 -2 -3 -1 -2 -2 -3 -2 -2 -3 -3 -3 -2 -2 -2 -1 -1 -1 -0 0 -0 -0 1
-2 -2 -3 -2 -2 -2 -2 -2 -2 -2 -2 -2 -2 -3 -3 -3 -4 -4 -4 -4 -4 -3 -3 -4 -3 -3 -3 -3 -4 -3 -3 -3 -3 -3 -3 -2 -2 -1 -1 -1 -0 -0 -0
-2 -2 -2 -2 -2 -2 -3 -3 -3 -2 -3 -2 -3 -3 -5 -5 -4 -4 -4 -4 -4 -4 -4 -4 -5 -4 -3 -3 -4 -4 -4 -4 -4 -4 -3 -3 -3 -2 -1 -1 -1 -1 -0
-2 -3 -3 -3 -3 -3 -3 -3 -3 -3 -3 -4 -4 -4 -4 -5 -5 -5 -4 -4 -5 -5 -5 -5 -6 -5 -5 -4 -4 -4 -4 -4 -4 -4 -4 -4 -4 -3 -2 -2 -1 -1 -1
-3 -3 -3 -3 -3 -4 -4 -4 -4 -4 -4 -5 -5 -6 -6 -6 -6 -6 -7 -6 -7 -5 -6 -5 -6 -6 -7 -6 -5 -5 -5 -5 -5 -5 -5 -5 -5 -4 -4 -3 -2 -2 -2
-4 -4 -4 -3 -4 -4 -4 -5 -5 -6 -6 -7 -7 -8 -8 -8 -8 -8 -8 -8 -7 -6 -6 -6 -6 -7 -8 -7 -6 -7 -5 -6 -5 -5 -5 -5 -5 -4 -4 -4 -3 -3 -2
-3 -4 -4 -5 -5 -6 -6 -8 -9 -9 -9 -10 -10 -10 -10 -9 -9 -9 -9 -9 -9 -8 -7 -7 -7 -7 -8 -9 -9 -8 -6 -6 -6 -6 -5 -5 -5 -4 -4 -4 -4 -3 -3
-4 -5 -6 -6 -7 -8 -9 -10 -10 -11 -11 -10 -10 -10 -10 -10 -10 -10 -10 -10 -10 -10 -9 -9 -9 -9 -9 -10 -11 -10 -8 -8 -7 -6 -6 -6 -5 -5 -5 -4 -4 -4 -4
-6 -7 -8 -9 -10 -10 -11 -11 -11 -11 -11 -12 -12 -12 -12 -12 -12 -12 -11 -11 -11 -11 -10 -11 -10 -10 -10 -10 -10 -11 -9 -8 -8 -8 -7 -7 -7 -6 -5 -5 -5 -4 -4
-8 -9 -10 -10 -11 -11 -11 -11 -12 -12 -11 -12 -12 -12 -12 -13 -13 -14 -14 -14 -14 -14 -13 -11 -12 -12 -12 -12 -12 -11 -10 -10 -9 -8 -8 -7 -7 -6 -6 -6 -5 -5 -4
-10 -10 -11 -11 -12 -12 -12 -12 -12 -13 -13 -14 -15 -15 -15 -16 -14 -14 -14 -14 -15 -16 -15 -15 -15 -14 -12 -12 -12 -12 -11 -11 -11 -10 -9 -8 -7 -7 -7 -7 -6 -6 -6
-11 -12 -12 -12 -13 -13 -13 -13 -14 -15 -15 -15 -15 -15 -15 -14 -14 -14 -14 -14 -15 -16 -16 -15 -15 -15 -15 -14 -13 -13 -13 -13 -12 -12 -11 -11 -10 -9 -8 -8 -7 -7 -6
-12 -12 -13 -13 -14 -14 -14 -16 -16 -15 -15 -15 -15 -15 -15 -15 -15 -15 -15 -15 -15 -15 -15 -15 -14 -14 -16 -16 -16 -16 -15 -15 -14 -14 -15 -13 -12 -10 -9 -8 -9 -8 -8
-13 -13 -14 -14 -15 -15 -16 -15 -15 -15 -15 -15 -15 -15 -15 -15 -15 -15 -15 -15 -15 -15 -15 -15 -15 -15 -16 -15 -14 -15 -15 -15 -14 -13 -13 -13 -12 -12 -11 -11 -10 -10 -9
-14 -15 -14 -15 -16 -17 -16 -15 -15 -16 -16 -16 -16 -16 -16 -16 -16 -15 -15 -15 -15 -16 -15 -15 -15 -14 -15 -15 -14 -15 -15 -15 -14 -15 -14 -13 -13 -12 -12 -11 -11 -10 -10
-15 -15 -15 -16 -17 -16 -16 -15 -16 -16 -16 -16 -16 -17 -17 -17 -17 -16 -16 -16 -16 -15 -16 -15 -15 -15 -15 -15 -15 -15 -15 -15 -15 -15 -15 -14 -14 -13 -13 -12 -12 -12 -11
-15 -15 -15 -16 -16 -17 -16 -16 -16 -16 -16 -17 -17 -17 -17 -17 -17 -17 -16 -16 -16 -16 -16 -16 -16 -15 -16 -16 -16 -15 -15 -15 -15 -14 -15 -14 -14 -14 -14 -13 -12 -12 -12
-15 -15 -16 -16 -16 -16 -17 -17 -17 -17 -17 -17 -17 -17 -17 -17 -17 -17 -17 -17 -17 -16 -16 -16 -16 -16 -16 -17 -17 -17 -16 -16 -15 -15 -15 -15 -15 -15 -15 -14 -13 -13 -12
-16 -15 -16 -16 -16 -17 -17 -17 -17 -17 -17 -17 -17 -18 -18 -18 -18 -18 -18 -17 -17 -17 -17 -17 -17 -17 -17 -16 -17 -16 -16 -16 -15 -15 -15 -17 -17 -17 -16 -16 -15 -14 -13

GFSMA_700_temp_030.txt.gz
Temp
2 2 2 2 2 2 2 1 1 1 1 1 2 2 2 1 1 1 1 1 1 1 1 1 1 1 1 2 2 2 2 2 2 2 2 2 2 2 2 3 2 2 2
2 2 2 2 2 2 1 1 1 1 1 1 1 1 2 2 1 1 1 1 1 1 1 1 1 1 1 1 1 2 2 2 2 2 2 2 2 2 2 2 2 2 2
2 2 1 1 1 1 1 1 1 1 1 1 1 1 1 2 2 1 1 1 1 1 1 1 1 1 1 0 1 1 1 1 1 2 2 3 2 2 2 2 1 1 1
2 1 1 0 0 0 0 1 1 1 1 1 1 1 1 1 1 2 2 1 -0 -0 0 0 0 0 0 0 0 0 0 1 1 1 1 2 2 2 2 2 1 1 1
1 1 0 0 -0 -0 0 0 0 0 0 0 0 0 -0 -1 -1 -1 0 1 2 -0 -1 -0 -0 -0 -0 -0 -0 -0 -0 -0 0 1 1 1 1 2 1 1 2 1 1
1 -0 -0 -1 -1 -1 -1 -1 -1 -1 -1 -1 -1 -1 -1 -1 -2 -2 -2 -1 -1 -0 -0 -1 -1 -1 -1 -1 -1 -1 -1 -0 -1 -0 0 0 0 1 1 1 1 1 0
-1 -0 -1 -2 -1 -1 -1 -1 -2 -2 -2 -2 -2 -1 -1 -1 -1 -1 -2 -3 -2 -2 -1 -1 -1 -2 -2 -2 -2 -2 -1 -1 -1 -1 -1 -0 -0 -0 -0 1 1 1 1
-0 -1 -1 -1 -2 -2 -2 -2 -3 -3 -3 -2 -3 -3 -2 -2 -2 -2 -3 -3 -3 -4 -4 -3 -2 -1 -1 -2 -3 -3 -3 -2 -2 -2 -2 -1 -1 -1 -1 -1 -0 1 1
-2 -2 -1 -2 -2 -2 -2 -3 -3 -3 -3 -3 -3 -3 -3 -3 -3 -2 -3 -3 -3 -4 -4 -4 -4 -4 -4 -2 -2 -3 -3 -3 -3 -3 -3 -2 -2 -1 -1 -1 -1 -1 -0
-1 -1 -1 -2 -2 -3 -3 -3 -3 -3 -3 -3 -4 -4 -4 -5 -4 -4 -3 -4 -4 -4 -4 -4 -5 -4 -5 -5 -5 -3 -4 -4 -4 -4 -4 -4 -3 -3 -2 -2 -2 -1 -1
-1 -2 -2 -3 -3 -3 -3 -3 -3 -4 -4 -4 -5 -5 -5 -6 -7 -8 -5 -4 -5 -5 -5 -5 -5 -5 -5 -5 -6 -6 -6 -5 -4 -4 -4 -4 -4 -3 -3 -3 -2 -2 -2
-2 -3 -4 -4 -4 -4 -4 -4 -4 -5 -5 -5 -6 -7 -7 -6 -6 -8 -8 -7 -6 -6 -6 -6 -6 -5 -5 -5 -6 -6 -6 -6 -5 -5 -5 -5 -5 -5 -4 -3 -3 -3 -2
-4 -4 -4 -4 -4 -5 -5 -6 -6 -7 -7 -8 -9 -9 -10 -10 -10 -10 -10 -10 -9 -7 -9 -8 -7 -6 -6 -6 -7 -6 -7 -7 -5 -4 -4 -5 -5 -5 -5 -4 -4 -3 -3
-4 -4 -5 -5 -5 -6 -7 -8 -9 -9 -10 -10 -10 -10 -10 -10 -10 -10 -11 -11 -10 -10 -10 -9 -9 -7 -7 -7 -6 -7 -7 -8 -8 -7 -5 -5 -5 -5 -5 -5 -5 -4 -4
-5 -5 -5 -6 -7 -9 -9 -10 -10 -10 -11 -11 -12 -12 -12 -12 -11 -11 -11 -11 -11 -11 -10 -10 -10 -9 -8 -8 -9 -8 -8 -8 -9 -9 -7 -7 -6 -6 -5 -5 -5 -4 -4
-6 -6 -7 -8 -9 -10 -10 -11 -11 -11 -11 -12 -12 -12 -12 -13 -13 -13 -13 -13 -13 -13 -12 -12 -11 -11 -10 -10 -10 -9 -10 -10 -10 -9 -8 -8 -8 -7 -6 -5 -5 -5 -5
-8 -8 -9 -10 -11 -12 -12 -13 -13 -13 -13 -13 -14 -14 -14 -15 -14 -14 -14 -14 -14 -14 -14 -13 -13 -12 -11 -11 -11 -11 -11 -11 -11 -10 -10 -9 -9 -9 -8 -7 -7 -6 -6
-8 -10 -11 -11 -12 -12 -13 -13 -13 -14 -14 -15 -15 -15 -15 -15 -15 -15 -15 -15 -15 -15 -15 -14 -15 -15 -14 -13 -13 -13 -13 -12 -13 -12 -10 -10 -9 -8 -8 -8 -8 -7 -6
-9 -11 -12 -12 -12 -13 -13 -14 -14 -15 -14 -15 -16 -15 -15 -15 -15 -15 -15 -15 -15 -15 -15 -15 -14 -15 -15 -14 -14 -14 -14 -13 -13 -13 -12 -12 -11 -10 -9 -8 -8 -8 -7
-11 -12 -13 -14 -14 -14 -14 -15 -15 -15 -15 -16 -15 -16 -16 -16 -16 -16 -15 -16 -16 -16 -16 -15 -15 -15 -15 -15 -15 -15 -14 -14 -14 -14 -14 -14 -12 -11 -10 -9 -8 -8 -8
-12 -14 -14 -14 -15 -15 -16 -16 -16 -15 -16 -16 -16 -16 -16 -16 -17 -17 -17 -16 -16 -16 -16 -16 -15 -15 -15 -15 -16 -15 -15 -15 -15 -14 -14 -13 -13 -13 -13 -12 -11 -10 -9
-14 -14 -15 -15 -15 -16 -16 -16 -15 -16 -16 -16 -16 -16 -16 -17 -17 -18 -18 -17 -16 -16 -16 -16 -16 -15 -15 -15 -16 -16 -16 -16 -15 -16 -16 -15 -15 -14 -13 -13 -13 -12 -11
-15 -15 -15 -15 -15 -16 -16 -16 -16 -16 -17 -17 -17 -17 -17 -17 -17 -17 -17 -17 -17 -16 -16 -16 -16 -16 -16 -16 -16 -15 -15 -15 -15 -15 -15 -15 -14 -14 -14 -13 -13 -13 -12
-15 -15 -15 -15 -16 -16 -17 -16 -17 -17 -17 -17 -17 -17 -18 -17 -18 -18 -18 -17 -17 -17 -17 -17 -17 -16 -16 -16 -16 -16 -16 -16 -15 -15 -15 -15 -15 -14 -15 -14 -14 -13 -13
-15 -15 -15 -16 -16 -16 -17 -17 -17 -17 -17 -17 -18 -18 -18 -18 -18 -18 -18 -17 -17 -17 -18 -18 -17 -17 -16 -16 -17 -17 -16 -17 -16 -16 -16 -17 -16 -16 -16 -15 -15 -14 -13
-15 -15 -16 -16 -16 -17 -17 -17 -17 -18 -18 -18 -18 -18 -18 -19 -19 -19 -19 -18 -18 -18 -18 -17 -17 -17 -17 -17 -17 -17 -17 -17 -16 -16 -16 -17 -16 -17 -16 -16 -16 -16 -15

GFSMA_700_temp_033.txt.gz
Temp
3 3 2 2 2 2 1 1 1 1 1 1 1 1 2 2 1 1 1 2 2 1 1 1 1 1 1 1 2 2 2 2 2 2 2 2 2 2 2 2 2 1 1
3 3 2 2 2 1 1 1 1 1 1 1 1 1 1 2 2 2 1 1 1 1 1 1 0 1 0 0 1 1 2 2 2 2 2 2 2 2 2 2 2 1 1
3 2 2 1 1 1 1 1 0 0 1 1 1 1 1 1 2 2 2 1 1 1 1 1 0 -0 0 0 -0 0 1 1 1 2 2 2 2 3 2 2 2 2 1
2 2 1 0 0 -0 -1 -1 -0 -0 -0 -0 0 1 0 0 0 1 1 1 1 1 1 -0 -0 -0 -0 -1 -0 -0 -0 0 1 1 1 2 2 2 2 2 1 1 1
1 1 0 -0 -0 -1 -1 -1 -0 -0 -0 -0 -0 -0 0 -0 -1 -1 -1 -0 0 0 0 1 0 -1 -1 -1 -1 -1 -1 -1 -0 0 0 0 1 1 2 2 1 1 2
-1 -1 -1 -1 -1 -1 -1 -1 -1 -1 -1 -1 -1 -1 -1 -1 -1 -1 -2 -2 -2 -1 -1 -1 -1 -1 -1 -1 -1 -1 -2 -1 -1 -1 -1 -1 -0 -0 1 1 1 1 1
-0 -1 -1 -1 -1 -1 -1 -1 -2 -2 -2 -3 -2 -2 -2 -2 -2 -2 -2 -2 -2 -3 -3 -2 -2 -2 -2 -2 -2 -3 -2 -2 -2 -1 -1 -1 -1 -1 -1 -0 0 0 1
-0 -1 -1 -1 -1 -1 -1 -2 -2 -2 -3 -3 -4 -3 -3 -2 -3 -2 -2 -2 -3 -3 -3 -4 -4 -3 -4 -3 -3 -4 -4 -3 -3 -3 -2 -2 -2 -1 -1 -1 -1 -0 -0
-2 -2 -2 -2 -2 -2 -3 -3 -3 -3 -3 -3 -3 -4 -4 -3 -3 -3 -3 -3 -4 -4 -4 -4 -4 -4 -4 -4 -4 -5 -5 -5 -4 -3 -3 -3 -3 -2 -2 -2 -2 -1 -1
-1 -1 -2 -2 -2 -3 -3 -4 -4 -4 -4 -4 -4 -4 -5 -6 -6 -4 -4 -4 -4 -4 -5 -5 -5 -5 -4 -4 -5 -5 -6 -5 -5 -4 -4 -4 -3 -3 -3 -2 -2 -2 -2
-1 -2 -2 -3 -4 -4 -4 -4 -4 -4 -4 -5 -5 -6 -6 -6 -8 -8 -6 -5 -6 -6 -6 -5 -6 -6 -6 -4 -5 -5 -5 -6 -6 -5 -5 -5 -4 -4 -3 -3 -3 -2 -2
-2 -3 -3 -4 -4 -4 -4 -4 -4 -5 -6 -7 -7 -8 -9 -9 -9 -10 -9 -8 -8 -8 -8 -8 -8 -7 -6 -6 -5 -5 -6 -5 -6 -6 -5 -6 -5 -4 -4 -4 -4 -3 -3
-3 -4 -5 -5 -5 -5 -5 -5 -6 -7 -8 -8 -9 -10 -10 -11 -11 -10 -11 -10 -10 -9 -9 -10 -10 -9 -9 -8 -8 -6 -7 -6 -6 -6 -6 -6 -6 -6 -5 -5 -4 -4 -3
-5 -5 -5 -5 -6 -6 -6 -7 -8 -9 -10 -10 -11 -11 -11 -11 -12 -12 -12 -11 -11 -11 -11 -10 -11 -11 -10 -10 -10 -9 -7 -7 -7 -7 -6 -6 -6 -6 -6 -6 -5 -5 -4
-5 -6 -6 -6 -7 -7 -8 -9 -10 -11 -11 -12 -12 -12 -13 -13 -13 -12 -13 -13 -13 -12 -11 -11 -11 -11 -11 -10 -10 -9 -9 -9 -8 -8 -8 -6 -7 -6 -6 -6 -5 -5 -5
-7 -7 -7 -8 -8 -9 -10 -11 -12 -12 -12 -13 -13 -13 -13 -14 -14 -14 -14 -14 -14 -13 -13 -12 -12 -12 -12 -12 -11 -10 -11 -10 -9 -8 -8 -8 -8 -8 -7 -7 -6 -6 -6
-8 -8 -9 -9 -10 -11 -12 -12 -13 -13 -13 -14 -14 -14 -15 -15 -16 -15 -15 -15 -15 -15 -15 -14 -14 -13 -13 -13 -13 -13 -12 -11 -10 -9 -9 -9 -9 -9 -8 -8 -7 -6 -6
-9 -10 -10 -12 -13 -13 -13 -14 -14 -14 -14 -15 -15 -16 -16 -16 -16 -16 -16 -16 -16 -15 -15 -14 -14 -14 -14 -13 -14 -14 -14 -13 -12 -12 -12 -11 -11 -10 -8 -9 -9 -8 -7
-11 -11 -13 -13 -14 -14 -14 -14 -15 -15 -15 -15 -16 -16 -16 -16 -16 -16 -16 -16 -16 -16 -16 -15 -15 -15 -15 -15 -14 -14 -14 -14 -14 -14 -13 -12 -12 -11 -10 -9 -9 -9 -8
-12 -12 -13 -14 -14 -15 -15 -15 -15 -15 -15 -16 -16 -16 -16 -16 -16 -16 -16 -16 -16 -16 -16 -16 -16 -15 -15 -15 -15 -15 -14 -14 -13 -14 -14 -14 -13 -12 -11 -11 -9 -9 -9
-12 -13 -14 -15 -16 -15 -15 -16 -16 -16 -16 -16 -16 -16 -16 -16 -17 -17 -17 -17 -17 -17 -16 -16 -16 -16 -16 -16 -15 -15 -15 -14 -14 -14 -14 -14 -14 -13 -12 -12 -11 -10 -10
-12 -13 -14 -16 -15 -15 -16 -16 -16 -16 -16 -16 -16 -17 -17 -17 -17 -17 -18 -18 -18 -17 -17 -17 -17 -16 -16 -16 -16 -16 -15 -15 -14 -15 -15 -14 -14 -14 -14 -13 -13 -12 -11
-14 -14 -15 -15 -16 -16 -16 -16 -16 -16 -17 -17 -17 -17 -17 -17 -18 -18 -18 -18 -18 -18 -18 -17 -17 -17 -17 -17 -16 -16 -16 -16 -16 -15 -15 -14 -14 -14 -14 -14 -14 -14 -13
-14 -15 -15 -15 -16 -16 -16 -17 -17 -17 -17 -17 -18 -18 -18 -18 -18 -18 -18 -18 -18 -18 -18 -18 -18 -17 -17 -17 -17 -17 -17 -16 -16 -15 -16 -15 -15 -14 -14 -14 -14 -14 -14
-15 -15 -15 -16 -16 -16 -16 -16 -17 -17 -17 -17 -18 -18 -18 -18 -18 -19 -19 -19 -18 -18 -19 -18 -18 -18 -18 -17 -17 -17 -17 -17 -16 -16 -17 -17 -15 -14 -15 -14 -14 -14 -14
-15 -15 -15 -16 -16 -17 -17 -17 -17 -17 -17 -18 -18 -19 -19 -19 -19 -19 -19 -19 -19 -19 -19 -18 -18 -18 -18 -17 -17 -17 -17 -17 -17 -16 -17 -16 -16 -15 -15 -14 -15 -15 -15

GFSMA_700_temp_036.txt.gz
Temp
3 3 2 2 2 1 1 1 1 1 1 1 1 1 1 1 1 1 1 1 1 1 1 1 1 1 1 1 1 1 0 1 1 1 1 1 1 1 2 1 2 2 1
3 2 2 1 1 1 1 0 0 0 0 0 1 1 1 1 1 1 1 2 2 1 1 1 0 0 0 0 0 0 0 0 1 1 1 1 1 1 1 1 2 1 1
2 2 1 1 1 1 0 -0 -0 -0 -0 -0 0 0 0 1 1 1 1 1 1 1 1 1 0 -0 -0 -0 -0 0 0 0 -0 0 1 1 1 0 1 1 2 1 2
2 1 1 0 0 0 0 -0 -1 -1 -1 -1 -0 -0 -0 -0 -0 0 0 0 -0 -0 0 0 0 -0 -1 -1 -1 -1 -0 -0 -0 -0 -0 0 0 0 1 0 1 1 1
1 1 1 1 -0 -0 -1 -1 -1 -1 -1 -1 -0 0 -0 -0 -0 -1 -1 -1 -1 -1 -1 -1 -1 -1 -1 -1 -1 -1 -1 -1 -1 -0 -0 -0 -0 -0 -0 0 1 0 1
-1 -1 -1 -1 -1 -1 -2 -1 -1 -1 -1 -1 -1 -1 -1 -1 -1 -2 -2 -2 -2 -2 -2 -1 -1 -2 -3 -2 -2 -2 -2 -2 -1 -1 -1 -1 -1 -1 -1 -0 0 1 1
-1 -1 -1 -2 -1 -1 -1 -2 -1 -1 -2 -2 -1 -1 -2 -2 -2 -3 -3 -3 -3 -3 -3 -3 -2 -2 -2 -2 -4 -4 -4 -3 -3 -2 -1 -1 -1 -1 -1 -1 -1 -0 0
-2 -2 -2 -2 -2 -3 -3 -3 -3 -2 -2 -2 -3 -2 -2 -2 -2 -3 -3 -3 -3 -3 -3 -3 -4 -3 -3 -3 -3 -4 -4 -4 -4 -3 -3 -2 -2 -2 -1 -2 -1 -1 -1
-2 -2 -2 -3 -3 -3 -4 -4 -4 -4 -4 -4 -4 -4 -4 -3 -3 -3 -3 -3 -3 -4 -4 -4 -4 -4 -4 -4 -4 -4 -4 -5 -4 -5 -3 -3 -3 -2 -2 -2 -2 -2 -1
-2 -2 -3 -3 -4 -4 -4 -4 -5 -4 -4 -4 -5 -5 -5 -5 -5 -4 -4 -4 -4 -5 -5 -5 -5 -5 -5 -5 -5 -4 -4 -4 -5 -5 -4 -4 -4 -3 -3 -2 -2 -2 -2
-2 -3 -4 -4 -4 -5 -4 -4 -4 -5 -5 -5 -6 -6 -7 -7 -8 -8 -6 -6 -7 -8 -8 -8 -7 -6 -6 -6 -6 -6 -6 -5 -5 -4 -5 -5 -5 -4 -4 -3 -3 -3 -2
-4 -4 -4 -4 -4 -4 -5 -5 -5 -6 -6 -7 -7 -8 -9 -9 -10 -10 -10 -9 -9 -9 -10 -10 -10 -9 -9 -8 -8 -7 -7 -6 -6 -5 -5 -5 -5 -5 -5 -4 -4 -3 -3
-5 -5 -5 -5 -6 -6 -6 -6 -7 -7 -8 -8 -10 -10 -11 -11 -11 -11 -12 -11 -11 -10 -10 -10 -10 -10 -10 -10 -9 -9 -9 -8 -7 -7 -6 -5 -5 -5 -6 -5 -5 -4 -4
-6 -6 -6 -7 -7 -7 -7 -8 -8 -9 -10 -11 -11 -12 -12 -12 -13 -13 -13 -13 -13 -12 -11 -11 -11 -12 -12 -11 -11 -10 -10 -9 -8 -7 -7 -6 -6 -6 -6 -6 -6 -5 -5
-6 -7 -7 -7 -8 -8 -9 -10 -10 -11 -12 -12 -12 -13 -13 -13 -14 -14 -14 -14 -14 -13 -13 -12 -12 -13 -13 -12 -12 -11 -11 -11 -10 -9 -9 -7 -7 -6 -6 -6 -6 -6 -5
-7 -8 -8 -8 -9 -10 -11 -11 -12 -13 -14 -14 -14 -14 -14 -14 -15 -15 -15 -15 -15 -15 -14 -14 -14 -13 -14 -14 -13 -12 -12 -11 -11 -10 -9 -9 -8 -8 -7 -7 -7 -6 -6
-9 -10 -10 -10 -11 -11 -12 -13 -14 -14 -14 -15 -15 -15 -15 -15 -16 -16 -16 -16 -16 -16 -15 -15 -15 -14 -14 -14 -14 -14 -14 -13 -12 -11 -10 -10 -9 -9 -8 -7 -7 -7 -7
-11 -12 -12 -12 -12 -12 -12 -13 -14 -14 -15 -15 -16 -16 -16 -16 -16 -17 -16 -16 -16 -16 -16 -15 -15 -15 -15 -15 -14 -14 -15 -15 -14 -12 -12 -11 -10 -10 -9 -9 -8 -8 -8
-11 -12 -12 -12 -12 -13 -14 -14 -15 -15 -16 -16 -16 -16 -16 -16 -16 -16 -16 -16 -16 -16 -16 -16 -16 -16 -15 -15 -15 -15 -15 -14 -15 -14 -14 -12 -12 -11 -10 -9 -9 -9 -9
-12 -12 -13 -13 -13 -14 -15 -15 -15 -16 -16 -16 -16 -16 -16 -16 -16 -17 -17 -16 -16 -16 -16 -16 -16 -16 -16 -16 -16 -15 -15 -15 -15 -14 -14 -13 -13 -12 -12 -11 -10 -10 -9
-13 -12 -14 -14 -14 -15 -15 -15 -15 -16 -16 -16 -16 -16 -17 -17 -17 -17 -17 -17 -17 -17 -17 -17 -17 -17 -17 -17 -17 -16 -15 -15 -15 -15 -14 -14 -14 -13 -12 -11 -10 -10 -10
-13 -14 -14 -14 -15 -15 -15 -15 -16 -16 -16 -16 -16 -17 -17 -17 -17 -18 -18 -18 -18 -18 -18 -18 -17 -17 -17 -17 -17 -17 -16 -16 -15 -15 -15 -14 -14 -14 -13 -12 -12 -11 -10
-14 -15 -15 -15 -15 -15 -15 -15 -16 -16 -16 -16 -17 -17 -17 -18 -18 -18 -18 -18 -18 -18 -18 -18 -18 -17 -17 -17 -17 -17 -16 -16 -16 -15 -15 -14 -14 -14 -14 -14 -13 -12 -11
-14 -15 -15 -15 -16 -16 -16 -16 -16 -16 -17 -17 -17 -18 -18 -18 -18 -18 -19 -19 -19 -19 -19 -19 -18 -18 -18 -17 -17 -17 -17 -17 -16 -16 -16 -14 -15 -14 -15 -14 -14 -13 -13
-14 -15 -15 -16 -16 -16 -16 -16 -16 -17 -17 -17 -17 -18 -18 -18 -19 -19 -19 -19 -19 -19 -20 -19 -19 -18 -18 -18 -18 -18 -17 -17 -16 -16 -17 -16 -15 -15 -14 -14 -14 -14 -14
-15 -15 -16 -16 -16 -16 -16 -16 -17 -17 -16 -17 -17 -18 -18 -18 -18 -19 -19 -19 -19 -19 -19 -19 -19 -19 -19 -18 -18 -18 -17 -17 -18 -17 -17 -16 -16 -15 -14 -14 -14 -14 -14

GFSMA_700_temp_039.txt.gz
Temp
3 3 2 2 1 1 1 1 1 1 1 1 1 1 1 1 1 1 1 1 1 1 0 0 0 0 1 1 1 1 1 1 1 1 1 1 1 1 1 1 2 2 1
2 2 1 1 0 1 1 1 0 0 0 -0 -0 -0 0 0 0 1 1 1 0 1 1 0 -0 -0 -0 -0 0 1 0 1 1 1 1 1 1 1 1 1 1 1 1
2 2 1 1 0 0 0 0 -0 -0 -1 -1 -1 -1 -0 -0 0 0 0 0 0 0 0 0 0 -0 -1 -1 -1 -0 0 0 0 0 0 1 1 1 1 1 1 1 1
2 2 1 1 0 0 -0 -1 -1 -1 -1 -1 -1 -1 -0 -0 -0 -0 -0 0 0 0 0 -0 -0 -0 -0 -0 -1 -1 -1 -0 0 0 -0 0 0 1 1 1 1 1 1
1 0 -0 -0 -1 -1 -2 -2 -2 -2 -2 -1 -1 -1 -1 -1 -1 -1 -1 -1 -1 -1 -1 -1 -1 -1 -1 -1 -1 -1 -1 -1 -1 -0 -0 -0 -0 -0 -0 0 0 0 0
-2 -2 -2 -1 -2 -2 -2 -2 -2 -2 -2 -1 -1 -1 -1 -1 -1 -1 -2 -2 -2 -2 -2 -2 -2 -2 -2 -2 -2 -2 -1 -2 -2 -1 -1 -1 -1 -1 -1 -1 -0 -0 -0
-1 -1 -2 -2 -2 -2 -2 -2 -1 -1 -2 -2 -2 -2 -2 -2 -2 -3 -3 -3 -3 -3 -3 -3 -3 -3 -3 -3 -3 -3 -3 -2 -2 -3 -2 -1 -1 -1 -1 -1 -1 -1 -0
-2 -2 -2 -3 -3 -4 -4 -4 -4 -3 -3 -3 -3 -3 -3 -2 -2 -3 -3 -3 -3 -3 -4 -4 -3 -3 -3 -3 -3 -3 -3 -4 -4 -3 -3 -2 -2 -2 -2 -2 -2 -1 -1
-2 -2 -3 -3 -4 -4 -4 -4 -4 -4 -4 -5 -5 -5 -5 -4 -4 -4 -4 -4 -4 -4 -4 -4 -4 -4 -4 -4 -4 -4 -4 -4 -5 -4 -3 -3 -3 -2 -2 -2 -2 -2 -2
-1 -2 -2 -3 -4 -4 -4 -5 -5 -5 -5 -5 -6 -6 -6 -6 -6 -5 -6 -6 -6 -6 -6 -6 -5 -5 -5 -5 -5 -5 -4 -4 -5 -5 -5 -4 -3 -3 -3 -3 -3 -3 -2
-3 -3 -4 -4 -4 -4 -5 -5 -5 -5 -6 -6 -6 -7 -7 -8 -8 -8 -7 -8 -8 -9 -10 -9 -8 -8 -7 -7 -6 -6 -6 -5 -5 -6 -6 -5 -5 -4 -3 -4 -3 -3 -3
-4 -5 -5 -5 -5 -5 -5 -6 -6 -7 -7 -7 -8 -8 -9 -9 -9 -10 -10 -10 -10 -10 -10 -11 -11 -10 -10 -10 -9 -9 -8 -8 -7 -6 -6 -5 -5 -5 -5 -4 -4 -4 -4
-5 -6 -6 -6 -7 -7 -7 -7 -8 -8 -9 -9 -10 -10 -11 -12 -12 -12 -12 -12 -11 -11 -11 -11 -12 -12 -11 -11 -11 -10 -10 -9 -9 -8 -8 -7 -6 -5 -5 -5 -5 -4 -4
-7 -7 -8 -8 -8 -8 -8 -9 -9 -10 -10 -11 -12 -13 -13 -13 -13 -14 -14 -14 -13 -13 -12 -12 -12 -13 -13 -13 -12 -12 -11 -10 -10 -10 -9 -8 -8 -7 -6 -6 -6 -5 -5
-8 -8 -8 -9 -9 -10 -10 -10 -10 -11 -11 -12 -13 -14 -14 -14 -14 -14 -15 -15 -15 -15 -14 -13 -13 -14 -14 -14 -14 -13 -12 -12 -11 -11 -10 -9 -9 -8 -7 -7 -6 -5 -5
-9 -9 -10 -10 -11 -11 -11 -11 -12 -12 -13 -13 -14 -15 -15 -15 -15 -16 -16 -16 -16 -16 -15 -15 -14 -14 -15 -14 -14 -14 -14 -13 -12 -12 -12 -11 -10 -9 -9 -8 -7 -6 -6
-10 -11 -11 -11 -12 -12 -12 -12 -13 -13 -13 -14 -15 -15 -15 -16 -16 -16 -16 -17 -16 -17 -16 -16 -16 -15 -15 -15 -15 -14 -14 -14 -14 -13 -12 -12 -11 -10 -9 -9 -9 -7 -7
-11 -12 -12 -13 -12 -13 -13 -13 -13 -14 -14 -14 -15 -15 -15 -16 -16 -16 -16 -16 -17 -17 -16 -16 -16 -16 -16 -15 -15 -15 -15 -15 -15 -14 -13 -12 -12 -11 -11 -10 -9 -9 -8
-12 -13 -13 -13 -13 -13 -14 -14 -14 -14 -15 -15 -15 -16 -16 -16 -16 -16 -16 -16 -16 -17 -17 -17 -16 -16 -16 -16 -16 -16 -15 -15 -15 -15 -14 -13 -12 -12 -12 -12 -11 -10 -9
-13 -13 -13 -13 -14 -14 -14 -15 -15 -15 -16 -16 -16 -16 -16 -16 -16 -16 -16 -17 -17 -17 -17 -17 -17 -17 -17 -17 -16 -16 -16 -16 -15 -15 -15 -14 -14 -13 -12 -13 -12 -11 -11
-13 -13 -13 -14 -15 -15 -15 -15 -15 -16 -16 -16 -16 -16 -16 -16 -17 -17 -17 -17 -17 -17 -17 -18 -18 -18 -17 -17 -17 -17 -17 -17 -16 -15 -15 -15 -14 -14 -14 -12 -12 -11 -11
-14 -13 -13 -14 -15 -15 -16 -15 -16 -16 -16 -16 -16 -16 -17 -17 -17 -17 -18 -18 -18 -18 -18 -18 -18 -18 -18 -18 -18 -18 -17 -17 -17 -16 -15 -15 -14 -14 -14 -13 -13 -12 -12
-14 -14 -14 -15 -15 -15 -15 -16 -16 -16 -16 -16 -17 -17 -17 -17 -17 -18 -18 -18 -19 -19 -19 -19 -18 -18 -18 -18 -18 -18 -18 -17 -17 -16 -16 -15 -15 -14 -14 -14 -13 -13 -13
-15 -14 -15 -15 -15 -16 -16 -16 -16 -16 -17 -17 -17 -17 -17 -17 -18 -18 -18 -18 -19 -19 -19 -20 -20 -19 -19 -18 -18 -18 -18 -17 -17 -16 -16 -15 -15 -15 -15 -14 -14 -13 -12
-14 -15 -15 -15 -16 -16 -16 -16 -16 -16 -17 -17 -17 -17 -17 -17 -18 -18 -18 -19 -19 -19 -20 -20 -20 -19 -19 -19 -19 -19 -18 -18 -17 -17 -17 -16 -15 -15 -15 -15 -14 -14 -13
-14 -15 -16 -16 -16 -16 -16 -16 -16 -17 -17 -17 -17 -17 -17 -18 -18 -18 -19 -19 -19 -19 -20 -20 -20 -20 -19 -19 -19 -19 -18 -18 -18 -17 -17 -17 -16 -15 -15 -15 -14 -14 -13

GFSMA_700_temp_042.txt.gz
Temp
3 3 2 2 2 1 1 1 0 0 -0 -0 -0 -0 -0 -0 -0 0 0 0 1 1 0 0 0 0 0 1 1 1 2 2 2 2 2 2 2 2 1 1 1 1 1
3 3 3 2 1 1 0 -0 -0 -1 -1 -1 -1 -1 -1 -0 -0 -0 0 0 1 1 1 1 1 0 0 0 0 1 1 1 1 1 2 2 2 2 2 1 1 1 1
3 2 2 1 0 -0 -1 -1 -1 -1 -1 -1 -1 -1 -1 -1 -1 -1 -0 0 0 0 1 1 0 0 0 -0 -0 0 0 1 1 1 1 1 1 1 1 1 1 1 1
2 1 -0 -1 -1 -1 -1 -1 -2 -2 -2 -2 -2 -1 -1 -1 -1 -1 -1 -0 -0 -0 -0 -0 -0 -0 0 -0 -0 -1 -1 -0 0 1 1 1 1 1 1 1 0 0 0
-0 -1 -2 -1 -2 -2 -1 -2 -2 -2 -2 -2 -2 -2 -2 -2 -2 -2 -2 -1 -1 -1 -1 -1 -1 -1 -1 -1 -1 -1 -1 -2 -1 -0 0 1 0 0 0 1 1 1 0
-2 -2 -2 -2 -2 -2 -2 -2 -2 -3 -2 -2 -2 -2 -2 -3 -3 -3 -3 -3 -2 -2 -2 -2 -2 -2 -2 -2 -2 -2 -2 -2 -2 -2 -1 -0 0 0 0 0 0 0 1
-1 -2 -2 -2 -2 -2 -2 -2 -2 -2 -2 -3 -2 -3 -3 -3 -3 -3 -3 -3 -4 -4 -4 -3 -3 -3 -3 -3 -3 -3 -2 -3 -2 -2 -2 -2 -1 -0 -0 -0 -0 0 0
-2 -2 -2 -2 -2 -2 -3 -3 -3 -3 -4 -4 -4 -4 -4 -4 -4 -4 -4 -4 -4 -4 -4 -4 -4 -4 -4 -3 -3 -3 -3 -3 -3 -3 -3 -2 -2 -1 -1 -1 -0 -0 -0
-1 -1 -1 -1 -2 -2 -2 -3 -4 -4 -4 -5 -5 -5 -5 -6 -6 -6 -6 -6 -5 -5 -5 -5 -5 -5 -5 -5 -4 -4 -4 -4 -4 -4 -3 -3 -3 -3 -2 -2 -2 -1 -1
-1 -2 -2 -3 -3 -4 -4 -5 -5 -6 -6 -6 -6 -7 -7 -8 -8 -7 -7 -8 -8 -8 -7 -7 -7 -6 -6 -6 -6 -5 -5 -5 -4 -4 -4 -4 -4 -3 -3 -3 -3 -2 -2
-3 -3 -4 -4 -5 -5 -5 -6 -6 -6 -6 -7 -7 -7 -8 -8 -9 -9 -9 -9 -9 -9 -10 -10 -10 -9 -9 -8 -8 -7 -7 -6 -6 -5 -5 -5 -5 -5 -4 -4 -4 -3 -3
-4 -5 -6 -6 -6 -6 -7 -7 -8 -8 -8 -8 -8 -9 -10 -10 -10 -11 -12 -12 -11 -10 -11 -11 -12 -12 -11 -11 -10 -10 -9 -9 -8 -7 -6 -6 -6 -6 -5 -4 -4 -3 -4
-5 -6 -7 -8 -8 -8 -9 -9 -9 -10 -10 -10 -10 -10 -11 -11 -12 -13 -14 -14 -14 -13 -12 -12 -12 -13 -13 -13 -13 -12 -11 -11 -10 -10 -9 -8 -7 -8 -7 -6 -4 -4 -4
-7 -7 -8 -9 -9 -10 -10 -10 -11 -11 -11 -11 -11 -11 -12 -12 -14 -15 -15 -15 -14 -14 -14 -13 -13 -14 -15 -15 -14 -13 -13 -12 -11 -11 -11 -10 -9 -8 -8 -7 -5 -5 -6
-8 -9 -9 -9 -10 -11 -11 -12 -12 -12 -12 -12 -12 -13 -14 -14 -15 -15 -15 -15 -15 -15 -14 -13 -14 -15 -15 -15 -15 -15 -14 -13 -12 -12 -11 -11 -10 -9 -9 -8 -7 -6 -6
-8 -9 -10 -11 -12 -12 -13 -13 -13 -13 -13 -14 -13 -14 -14 -14 -15 -16 -16 -16 -17 -17 -16 -15 -15 -15 -15 -15 -15 -15 -14 -14 -14 -13 -12 -12 -11 -10 -10 -9 -7 -7 -7
-10 -11 -12 -13 -13 -13 -13 -14 -14 -14 -14 -14 -14 -14 -15 -15 -15 -16 -16 -17 -17 -17 -17 -15 -16 -15 -16 -16 -16 -15 -15 -15 -15 -14 -13 -13 -12 -12 -11 -10 -9 -9 -9
-11 -12 -13 -13 -13 -13 -13 -14 -14 -15 -14 -15 -15 -15 -15 -16 -16 -16 -16 -16 -16 -17 -17 -16 -16 -16 -16 -16 -16 -16 -16 -16 -15 -15 -15 -14 -13 -13 -12 -11 -11 -11 -10
-12 -13 -13 -13 -13 -13 -14 -14 -15 -14 -15 -15 -15 -15 -16 -16 -16 -16 -16 -16 -16 -17 -17 -17 -17 -17 -17 -17 -17 -17 -16 -16 -16 -15 -15 -15 -14 -13 -13 -12 -12 -11 -10
-12 -13 -13 -13 -14 -14 -14 -14 -14 -15 -16 -16 -16 -16 -16 -16 -16 -16 -16 -17 -17 -17 -17 -18 -17 -17 -17 -17 -18 -17 -17 -17 -16 -16 -16 -15 -15 -14 -13 -13 -13 -12 -11
-12 -13 -13 -14 -14 -14 -15 -15 -15 -15 -16 -16 -16 -16 -17 -17 -17 -17 -17 -17 -17 -18 -18 -18 -18 -18 -18 -18 -18 -18 -18 -17 -17 -16 -16 -16 -15 -15 -14 -13 -13 -13 -13
-13 -13 -14 -15 -14 -14 -15 -15 -15 -16 -16 -16 -16 -17 -17 -17 -17 -17 -17 -18 -18 -18 -18 -19 -19 -19 -19 -19 -19 -19 -18 -18 -17 -17 -17 -16 -16 -15 -15 -14 -14 -13 -13
-13 -14 -14 -14 -14 -15 -15 -15 -16 -16 -16 -16 -17 -17 -17 -17 -17 -17 -17 -18 -18 -19 -19 -19 -19 -19 -19 -20 -19 -19 -18 -18 -18 -17 -17 -16 -16 -16 -15 -15 -14 -14 -13
-13 -14 -14 -14 -15 -15 -15 -16 -16 -16 -16 -17 -17 -17 -17 -17 -17 -17 -18 -18 -18 -19 -19 -20 -20 -20 -20 -20 -20 -19 -19 -19 -18 -18 -18 -16 -17 -16 -16 -15 -14 -14 -14
-14 -14 -14 -15 -15 -16 -16 -16 -16 -16 -16 -17 -17 -17 -17 -17 -17 -18 -18 -18 -19 -19 -20 -20 -20 -20 -20 -20 -20 -20 -19 -19 -18 -18 -18 -17 -17 -17 -16 -15 -15 -15 -14
-14 -15 -15 -15 -16 -16 -16 -16 -16 -16 -17 -17 -17 -17 -17 -17 -18 -18 -18 -19 -19 -19 -20 -20 -20 -20 -20 -20 -20 -20 -19 -19 -18 -18 -19 -17 -18 -17 -16 -16 -16 -15 -14

GFSMA_700_temp_045.txt.gz
Temp
3 3 2 2 2 1 1 0 -0 -1 -1 -1 -1 -1 -0 -0 -0 0 0 0 1 1 1 1 1 1 1 1 1 1 1 1 2 2 2 2 2 2 2 1 1 1 1
2 2 2 2 1 0 -0 -0 -1 -1 -1 -1 -1 -1 -0 -0 -0 -0 0 0 0 1 1 1 1 1 1 0 1 1 1 1 1 2 2 2 2 1 1 2 1 1 1
1 1 1 1 0 -0 -1 -1 -1 -1 -1 -1 -2 -1 -2 -1 -1 -1 -0 0 0 0 0 0 0 1 1 0 0 0 1 1 1 1 1 2 2 2 1 1 1 1 1
1 1 0 -0 -1 -1 -2 -2 -1 -1 -1 -1 -1 -2 -1 -1 -1 -1 -1 -1 -1 -1 -1 -1 -0 -0 -0 0 0 -0 -0 -0 0 1 0 0 1 1 1 1 1 1 0
1 0 -0 -1 -1 -2 -1 -1 -1 -1 -1 -1 -1 -2 -2 -2 -2 -2 -2 -2 -2 -2 -2 -1 -1 -1 -1 -1 -1 -0 -1 -1 -1 -1 -0 0 0 1 1 1 1 1 1
-0 -1 -1 -1 -1 -1 -1 -1 -2 -2 -2 -2 -2 -3 -3 -3 -3 -3 -3 -3 -3 -3 -3 -3 -3 -2 -2 -2 -2 -2 -2 -1 -2 -2 -1 -1 -0 -0 0 1 1 1 0
-1 -1 -1 -2 -2 -2 -2 -2 -2 -2 -2 -2 -2 -3 -3 -3 -3 -4 -4 -4 -4 -4 -4 -4 -4 -4 -3 -3 -3 -3 -3 -3 -3 -3 -2 -2 -2 -1 -1 -0 0 0 0
-1 -1 -1 -2 -2 -2 -2 -2 -2 -2 -3 -3 -3 -3 -4 -4 -4 -5 -5 -5 -5 -5 -5 -5 -5 -5 -5 -5 -4 -4 -4 -3 -3 -3 -3 -3 -3 -2 -2 -1 -1 -1 -0
-1 -1 -2 -2 -2 -3 -3 -4 -4 -4 -4 -5 -5 -5 -6 -6 -6 -7 -7 -7 -7 -7 -7 -7 -7 -6 -6 -6 -6 -5 -5 -4 -4 -4 -4 -4 -3 -3 -3 -2 -2 -2 -1
-2 -2 -3 -3 -4 -4 -5 -5 -6 -6 -6 -6 -7 -7 -7 -8 -8 -8 -9 -9 -9 -9 -9 -9 -9 -8 -8 -8 -7 -7 -6 -6 -6 -5 -5 -4 -4 -4 -4 -3 -2 -2 -2
-3 -4 -4 -5 -5 -6 -6 -7 -7 -8 -8 -8 -9 -9 -9 -10 -10 -11 -11 -11 -11 -10 -11 -11 -11 -11 -10 -10 -9 -9 -8 -7 -7 -6 -6 -5 -5 -5 -5 -5 -3 -3 -3
-5 -5 -6 -6 -6 -7 -8 -8 -9 -10 -10 -11 -11 -11 -11 -11 -11 -11 -12 -12 -13 -12 -12 -12 -13 -13 -13 -13 -12 -12 -11 -10 -9 -8 -7 -7 -6 -5 -5 -5 -5 -4 -3
-6 -6 -7 -7 -8 -8 -9 -10 -10 -11 -11 -11 -12 -12 -12 -12 -12 -12 -14 -14 -14 -14 -13 -13 -14 -14 -14 -14 -13 -13 -12 -12 -11 -10 -10 -9 -8 -8 -7 -6 -6 -5 -4
-6 -7 -7 -8 -9 -9 -10 -10 -11 -12 -12 -12 -13 -12 -13 -13 -13 -14 -14 -14 -15 -14 -14 -15 -14 -14 -15 -15 -15 -15 -14 -13 -13 -12 -11 -11 -11 -10 -9 -8 -7 -6 -5
-6 -6 -7 -8 -9 -10 -11 -12 -13 -13 -13 -13 -13 -14 -14 -14 -14 -15 -15 -15 -16 -15 -13 -15 -15 -15 -15 -15 -15 -15 -15 -15 -14 -14 -13 -12 -11 -11 -10 -10 -9 -8 -7
-7 -8 -9 -10 -11 -12 -13 -13 -13 -14 -14 -14 -14 -14 -15 -15 -15 -15 -15 -16 -16 -16 -15 -16 -15 -15 -15 -15 -16 -15 -15 -15 -14 -14 -14 -13 -12 -12 -11 -11 -10 -10 -9
-9 -10 -11 -12 -12 -13 -13 -14 -14 -15 -15 -15 -15 -15 -15 -15 -15 -15 -16 -16 -16 -16 -16 -16 -16 -16 -16 -16 -16 -16 -16 -15 -15 -15 -14 -14 -13 -13 -12 -11 -11 -10 -9
-9 -10 -11 -12 -13 -13 -14 -14 -14 -14 -14 -15 -15 -15 -15 -15 -16 -16 -16 -16 -16 -17 -17 -16 -16 -16 -16 -16 -16 -16 -17 -16 -16 -15 -15 -15 -14 -14 -13 -13 -11 -11 -11
-10 -11 -12 -12 -13 -13 -14 -14 -14 -14 -15 -15 -15 -15 -16 -16 -16 -16 -16 -17 -17 -17 -17 -17 -16 -17 -17 -17 -17 -17 -17 -17 -17 -16 -16 -15 -15 -15 -14 -13 -13 -12 -11
-11 -12 -12 -13 -13 -14 -14 -14 -14 -15 -15 -15 -15 -16 -16 -16 -16 -17 -17 -17 -17 -17 -17 -17 -17 -17 -18 -18 -18 -18 -18 -17 -17 -17 -16 -16 -16 -15 -15 -14 -14 -13 -12
-12 -12 -13 -13 -13 -14 -14 -14 -15 -15 -16 -15 -16 -16 -16 -17 -17 -17 -17 -17 -17 -18 -18 -18 -18 -18 -18 -18 -19 -19 -18 -18 -18 -17 -17 -17 -16 -16 -15 -15 -14 -14 -13
-12 -13 -13 -13 -13 -14 -14 -15 -15 -15 -15 -15 -16 -16 -17 -17 -17 -17 -17 -17 -18 -18 -18 -19 -19 -19 -19 -19 -19 -19 -19 -19 -18 -18 -18 -17 -17 -16 -16 -15 -15 -14 -14
-13 -13 -13 -14 -14 -14 -15 -15 -15 -15 -15 -16 -16 -16 -17 -17 -17 -17 -17 -18 -18 -19 -19 -19 -20 -20 -20 -20 -20 -20 -20 -20 -19 -18 -18 -17 -17 -17 -16 -16 -15 -14 -14
-13 -13 -14 -14 -15 -15 -15 -15 -15 -16 -16 -16 -17 -17 -17 -17 -17 -17 -17 -18 -18 -18 -19 -19 -20 -20 -20 -20 -20 -20 -20 -20 -20 -19 -18 -18 -18 -17 -17 -16 -16 -15 -14
-13 -13 -14 -15 -15 -15 -15 -15 -15 -16 -16 -16 -17 -17 -17 -17 -17 -17 -18 -18 -18 -19 -19 -20 -20 -20 -20 -20 -20 -21 -21 -20 -20 -19 -19 -18 -18 -18 -17 -17 -16 -16 -15
-13 -14 -14 -15 -15 -15 -15 -15 -15 -16 -16 -17 -17 -17 -17 -17 -17 -18 -18 -18 -18 -18 -19 -19 -20 -20 -21 -21 -20 -20 -20 -20 -20 -20 -19 -19 -18 -18 -17 -17 -17 -16 -15

GFSMA_700_temp_048.txt.gz
Temp
1 1 1 1 1 0 0 0 0 0 -0 0 0 -0 -0 -0 0 0 0 1 1 1 1 1 1 1 1 1 2 2 2 2 2 2 2 2 2 2 2 2 2 2 2
1 1 0 0 1 0 0 0 -0 -0 -0 -0 -0 -0 -1 -1 -0 0 -0 -0 1 1 1 1 1 1 1 1 1 1 1 1 1 1 2 2 2 2 2 2 1 1 1
1 1 0 1 0 0 -0 -1 -0 -0 -1 -0 -1 -1 -1 -1 -1 -1 -1 -1 -1 1 1 1 1 1 1 1 0 0 0 1 1 1 1 1 2 2 2 1 1 1 1
2 1 0 0 0 0 -0 -0 -0 -1 -1 -1 -1 -1 -1 -1 -1 -1 -1 -1 -1 -1 -1 0 -0 -0 -0 -0 -0 0 -0 -0 0 0 0 0 1 1 2 1 1 1 1
0 -0 -0 -1 -1 -1 -1 -1 -1 -1 -2 -2 -2 -2 -2 -2 -2 -2 -2 -2 -2 -2 -2 -1 -1 -1 -1 -1 -1 -1 -1 -1 -1 -0 -0 -0 -0 -0 0 1 1 1 1
-0 -0 -0 -1 -1 -1 -1 -1 -2 -2 -2 -2 -2 -2 -2 -2 -2 -2 -3 -3 -3 -3 -3 -3 -3 -3 -2 -2 -2 -2 -2 -2 -2 -2 -1 -1 -1 -1 -1 -0 -0 -0 0
-1 -1 -1 -1 -1 -2 -2 -2 -2 -2 -2 -2 -2 -3 -3 -3 -2 -3 -3 -3 -4 -4 -4 -4 -4 -5 -5 -4 -4 -4 -3 -3 -3 -3 -2 -2 -2 -2 -1 -1 -1 -1 -1
-1 -1 -1 -2 -2 -2 -2 -3 -3 -3 -3 -4 -4 -4 -5 -5 -7 -7 -5 -5 -5 -5 -5 -5 -5 -6 -6 -6 -6 -5 -4 -5 -4 -4 -4 -3 -3 -2 -2 -2 -2 -2 -1
-2 -2 -2 -2 -3 -3 -4 -4 -4 -5 -5 -5 -6 -6 -6 -7 -7 -7 -8 -9 -7 -7 -7 -7 -7 -7 -8 -7 -7 -7 -6 -6 -6 -5 -5 -4 -4 -4 -3 -3 -3 -2 -2
-2 -3 -3 -3 -4 -4 -5 -5 -6 -6 -6 -7 -7 -8 -9 -9 -9 -9 -10 -10 -11 -11 -10 -10 -10 -9 -9 -9 -9 -9 -8 -8 -7 -7 -6 -6 -5 -5 -4 -4 -4 -3 -3
-3 -3 -4 -4 -5 -6 -7 -7 -7 -8 -8 -9 -9 -10 -12 -11 -13 -12 -11 -11 -13 -13 -13 -13 -11 -10 -12 -11 -11 -13 -10 -10 -9 -8 -8 -7 -7 -6 -5 -5 -4 -4 -3
-4 -4 -5 -6 -7 -7 -7 -8 -8 -9 -10 -11 -12 -12 -12 -13 -13 -13 -13 -13 -13 -12 -14 -13 -14 -13 -13 -14 -15 -13 -12 -12 -12 -11 -10 -9 -9 -8 -7 -6 -5 -5 -4
-5 -6 -6 -6 -7 -8 -8 -10 -11 -12 -12 -12 -12 -12 -12 -13 -13 -14 -14 -14 -14 -12 -12 -15 -15 -15 -15 -15 -16 -15 -13 -13 -13 -12 -12 -11 -10 -10 -9 -8 -6 -6 -5
-5 -6 -6 -7 -7 -9 -10 -11 -11 -12 -12 -12 -12 -13 -13 -13 -14 -14 -14 -15 -14 -13 -16 -16 -15 -15 -15 -16 -16 -15 -14 -14 -14 -13 -13 -12 -12 -11 -11 -11 -9 -8 -6
-6 -7 -7 -8 -9 -10 -11 -11 -11 -12 -12 -12 -13 -13 -13 -14 -14 -15 -16 -17 -17 -14 -16 -16 -16 -16 -17 -17 -17 -17 -15 -14 -14 -14 -14 -13 -13 -13 -12 -12 -11 -10 -9
-7 -7 -8 -9 -9 -10 -11 -12 -12 -12 -13 -13 -13 -14 -14 -15 -15 -15 -17 -17 -17 -17 -17 -17 -17 -17 -17 -17 -18 -17 -16 -15 -15 -15 -14 -14 -13 -13 -13 -12 -12 -11 -10
-7 -8 -9 -9 -10 -11 -12 -12 -12 -13 -13 -14 -14 -14 -14 -15 -15 -15 -17 -17 -17 -18 -18 -18 -18 -18 -17 -18 -18 -18 -17 -17 -17 -16 -15 -14 -14 -14 -13 -13 -13 -12 -11
-8 -9 -9 -10 -11 -11 -12 -13 -13 -14 -14 -14 -14 -15 -15 -15 -15 -15 -16 -17 -18 -18 -19 -19 -17 -19 -19 -19 -19 -19 -17 -17 -18 -18 -17 -15 -15 -14 -14 -14 -13 -13 -11
-9 -10 -10 -11 -11 -12 -12 -13 -13 -13 -14 -14 -15 -15 -15 -15 -15 -16 -16 -16 -17 -17 -17 -17 -16 -17 -18 -18 -19 -18 -18 -17 -18 -18 -17 -16 -16 -15 -15 -15 -14 -14 -13
-10 -10 -11 -12 -12 -13 -13 -13 -14 -14 -14 -15 -15 -15 -15 -16 -16 -16 -16 -17 -17 -17 -17 -17 -17 -17 -18 -19 -19 -19 -19 -20 -19 -19 -18 -17 -16 -16 -16 -15 -15 -14 -14
-11 -11 -11 -12 -13 -13 -13 -14 -14 -14 -15 -15 -15 -15 -16 -16 -16 -17 -17 -17 -17 -17 -17 -18 -18 -18 -18 -19 -21 -20 -20 -20 -20 -20 -18 -18 -19 -18 -18 -16 -15 -15 -14
-11 -11 -12 -13 -13 -13 -14 -14 -14 -15 -15 -15 -15 -16 -16 -16 -17 -17 -17 -17 -17 -17 -18 -18 -18 -19 -20 -20 -20 -20 -20 -21 -20 -20 -19 -19 -18 -18 -18 -18 -17 -15 -15
-11 -12 -12 -13 -13 -14 -14 -15 -15 -15 -15 -15 -16 -16 -16 -17 -17 -17 -17 -17 -17 -18 -18 -19 -19 -19 -20 -20 -20 -20 -20 -20 -20 -20 -19 -19 -19 -18 -17 -17 -16 -16 -15
-12 -12 -13 -13 -14 -14 -15 -15 -15 -15 -15 -16 -16 -16 -17 -17 -17 -17 -17 -17 -18 -18 -19 -19 -19 -19 -20 -20 -20 -20 -20 -20 -20 -20 -20 -19 -19 -18 -18 -17 -16 -16 -15
-12 -13 -13 -14 -14 -15 -15 -15 -15 -15 -15 -16 -16 -16 -17 -17 -17 -17 -17 -17 -18 -18 -18 -19 -19 -19 -20 -20 -21 -20 -20 -20 -20 -19 -19 -19 -19 -18 -18 -17 -16 -16 -16
-13 -13 -13 -14 -15 -15 -15 -15 -16 -16 -16 -16 -16 -17 -17 -17 -17 -17 -17 -18 -18 -18 -18 -19 -19 -19 -20 -20 -20 -20 -20 -20 -20 -19 -20 -19 -19 -19 -18 -17 -17 -16 -16

GFSMA_700_temp_051.txt.gz
Temp
1 1 1 1 1 1 1 1 1 0 0 0 1 1 1 0 0 0 1 1 1 2 2 1 1 2 1 2 2 2 2 2 2 2 2 2 2 2 2 2 2 2 2
2 2 1 1 1 1 0 1 0 -0 -0 -0 0 0 0 -0 -0 -0 -0 -0 0 1 1 2 1 1 1 1 1 1 1 1 1 1 1 2 2 1 1 1 2 2 2
1 1 1 1 0 0 1 0 0 0 0 -0 -0 -0 -0 -0 -0 -1 -0 -1 -1 0 1 1 1 1 1 1 1 1 1 1 1 1 1 1 1 1 1 0 1 1 1
2 1 1 0 0 0 0 0 -0 -0 -0 -1 -1 -1 -1 -1 -1 -1 -1 -2 -1 -1 -1 -1 0 -0 0 0 0 0 0 0 0 1 0 0 0 1 1 0 -0 0 1
1 1 1 1 -0 -0 -0 -0 -0 -1 -1 -1 -1 -1 -1 -1 -1 -2 -2 -3 -2 -2 -2 -3 -2 -3 -2 -1 -1 -1 -1 -1 -0 -0 -0 -0 -0 -0 0 0 0 -0 -0
0 -0 0 0 0 -0 -1 -1 -1 -2 -2 -2 -2 -1 -1 -2 -2 -2 -2 -3 -3 -3 -2 -2 -3 -3 -3 -3 -3 -3 -2 -2 -2 -1 -1 -1 -1 -1 -1 -1 -0 -0 -0
-0 -0 -1 -0 -0 -1 -1 -1 -1 -2 -2 -2 -2 -2 -1 -2 -3 -4 -5 -6 -5 -5 -4 -4 -4 -4 -5 -5 -6 -4 -4 -4 -4 -3 -3 -2 -2 -2 -2 -2 -1 -1 -1
-1 -1 -1 -2 -2 -2 -2 -3 -3 -3 -3 -3 -3 -3 -3 -3 -3 -7 -6 -7 -8 -8 -9 -9 -8 -8 -8 -8 -8 -8 -7 -6 -6 -5 -5 -4 -3 -3 -3 -3 -2 -2 -1
-2 -2 -2 -2 -3 -3 -3 -3 -4 -4 -4 -4 -5 -5 -6 -6 -7 -7 -7 -8 -9 -10 -10 -10 -11 -11 -12 -12 -12 -12 -9 -8 -8 -7 -6 -6 -5 -5 -4 -4 -3 -3 -2
-2 -2 -3 -3 -3 -4 -4 -4 -4 -5 -6 -6 -7 -9 -10 -11 -11 -10 -11 -11 -9 -11 -11 -11 -12 -12 -12 -12 -13 -13 -10 -9 -9 -9 -9 -8 -7 -7 -6 -5 -4 -4 -3
-2 -2 -3 -4 -4 -5 -5 -5 -6 -7 -8 -9 -11 -10 -10 -12 -12 -12 -12 -12 -12 -12 -12 -13 -13 -13 -13 -12 -11 -13 -13 -12 -12 -11 -10 -10 -9 -9 -7 -7 -6 -5 -5
-4 -4 -5 -5 -5 -6 -8 -9 -8 -9 -10 -11 -11 -11 -11 -11 -12 -12 -12 -12 -12 -12 -14 -13 -14 -14 -14 -14 -14 -14 -14 -13 -12 -12 -12 -12 -11 -10 -10 -9 -8 -7 -6
-4 -5 -5 -5 -6 -6 -7 -8 -9 -10 -11 -11 -11 -11 -12 -12 -12 -13 -13 -13 -13 -12 -13 -14 -14 -14 -14 -14 -14 -15 -15 -15 -14 -12 -12 -12 -12 -12 -11 -11 -10 -9 -7
-5 -5 -5 -6 -6 -7 -9 -10 -9 -10 -11 -11 -11 -11 -12 -12 -13 -13 -14 -14 -13 -13 -14 -15 -15 -15 -15 -15 -15 -15 -15 -15 -16 -14 -13 -13 -13 -13 -12 -11 -11 -10 -9
-5 -5 -6 -6 -7 -8 -9 -11 -11 -11 -11 -12 -12 -12 -13 -13 -13 -14 -14 -15 -16 -15 -15 -16 -16 -16 -16 -16 -16 -16 -16 -16 -16 -15 -14 -14 -14 -13 -13 -13 -12 -12 -11
-5 -6 -6 -7 -8 -9 -9 -11 -12 -12 -12 -12 -13 -13 -13 -13 -14 -14 -14 -15 -16 -16 -16 -16 -16 -17 -17 -17 -17 -17 -17 -17 -16 -16 -15 -15 -14 -14 -14 -13 -13 -13 -12
-6 -7 -7 -8 -9 -9 -10 -11 -11 -12 -12 -13 -13 -13 -14 -14 -14 -14 -15 -16 -17 -17 -17 -17 -17 -17 -17 -18 -18 -18 -18 -18 -17 -17 -17 -17 -16 -15 -14 -14 -14 -13 -13
-7 -8 -8 -9 -9 -10 -11 -11 -12 -12 -13 -13 -13 -14 -14 -15 -15 -15 -16 -17 -17 -17 -17 -17 -18 -18 -18 -18 -18 -18 -18 -19 -18 -18 -17 -17 -17 -16 -16 -15 -14 -14 -14
-8 -8 -9 -9 -10 -11 -11 -12 -12 -13 -13 -13 -14 -14 -14 -15 -15 -15 -16 -16 -16 -17 -17 -18 -18 -19 -17 -17 -18 -18 -18 -19 -19 -19 -18 -18 -18 -17 -16 -15 -15 -15 -14
-8 -9 -9 -10 -11 -11 -12 -12 -13 -13 -13 -14 -14 -14 -15 -15 -15 -15 -16 -16 -16 -17 -17 -17 -17 -17 -17 -17 -18 -19 -19 -19 -19 -19 -19 -19 -18 -18 -17 -16 -16 -15 -15
-9 -10 -10 -11 -11 -12 -12 -13 -13 -14 -14 -15 -15 -15 -15 -15 -15 -16 -16 -16 -17 -17 -17 -17 -17 -17 -18 -18 -19 -20 -20 -20 -19 -19 -19 -19 -19 -18 -17 -17 -17 -16 -15
-10 -10 -11 -12 -12 -13 -13 -14 -14 -15 -15 -15 -15 -15 -15 -16 -16 -16 -16 -16 -17 -17 -17 -17 -18 -18 -18 -19 -19 -19 -19 -19 -19 -19 -19 -18 -18 -18 -18 -18 -17 -17 -16
-10 -11 -12 -12 -13 -14 -14 -15 -15 -15 -16 -15 -15 -15 -15 -16 -16 -16 -17 -17 -17 -17 -17 -18 -18 -18 -19 -20 -20 -20 -20 -20 -19 -19 -19 -19 -19 -18 -18 -18 -18 -17 -16
-11 -12 -12 -12 -13 -15 -14 -15 -15 -15 -16 -15 -15 -15 -16 -16 -16 -17 -17 -17 -17 -17 -18 -18 -18 -18 -19 -19 -19 -20 -20 -20 -19 -19 -19 -19 -19 -19 -18 -18 -18 -17 -16
-12 -12 -13 -13 -13 -14 -14 -15 -16 -16 -16 -16 -16 -16 -16 -16 -17 -17 -17 -17 -17 -17 -18 -18 -18 -18 -19 -19 -20 -20 -20 -20 -19 -19 -19 -19 -19 -19 -18 -18 -18 -17 -16
-12 -12 -13 -14 -14 -15 -15 -15 -16 -16 -16 -16 -16 -16 -16 -16 -17 -17 -17 -17 -17 -18 -18 -18 -18 -19 -19 -19 -20 -20 -20 -20 -19 -19 -19 -19 -19 -19 -18 -18 -17 -17 -17

GFSMA_700_temp_054.txt.gz
Temp
2 2 2 2 2 2 1 1 1 0 0 1 1 0 1 0 1 0 0 1 1 1 2 2 2 2 2 2 2 1 1 1 1 1 1 1 1 0 1 1 1 1 1
3 1 1 1 1 1 1 0 1 1 1 1 0 0 0 0 0 0 -0 -1 0 1 2 2 2 2 2 1 1 2 1 1 1 1 1 1 1 1 0 0 1 1 1
2 2 0 0 0 0 0 1 1 1 1 1 1 0 0 0 0 -1 -0 -1 -1 0 1 1 1 2 1 1 1 1 1 1 0 0 0 0 0 1 1 1 0 0 1
2 1 1 1 1 1 1 1 1 1 0 0 0 0 0 0 -0 -1 -1 -1 -2 -1 -1 -0 0 1 0 1 1 1 0 -0 -0 -1 -0 -0 -0 -0 0 0 0 -0 -0
1 0 1 1 1 1 1 1 0 0 -0 -0 -0 -0 -0 -1 -1 -1 -1 -2 -2 -2 -2 -1 -1 -1 -1 -1 -1 -1 -0 -0 -0 -1 -1 -1 -1 -1 -1 -1 -0 -1 -0
1 1 1 1 1 1 0 0 0 0 -0 -0 -0 -0 -1 -1 -1 -2 -3 -4 -6 -6 -6 -5 -5 -4 -2 -2 -2 -2 -3 -2 -2 -1 -2 -2 -2 -2 -2 -2 -1 -1 -1
1 0 -0 -0 -1 -0 -0 -0 -0 -1 -1 -1 -1 -1 -1 -1 -2 -3 -4 -5 -6 -5 -6 -6 -6 -6 -7 -6 -6 -6 -3 -3 -5 -4 -4 -4 -4 -3 -3 -3 -2 -2 -2
-0 -1 -1 -1 -1 -1 -2 -2 -2 -2 -2 -2 -2 -2 -2 -2 -2 -3 -4 -5 -6 -7 -8 -8 -8 -9 -9 -10 -10 -10 -10 -8 -8 -8 -7 -6 -6 -5 -5 -5 -4 -3 -3
-2 -2 -2 -1 -2 -2 -2 -2 -2 -2 -3 -3 -4 -4 -4 -4 -4 -5 -5 -6 -7 -8 -9 -9 -10 -10 -10 -11 -11 -12 -11 -11 -11 -10 -10 -9 -8 -7 -6 -6 -6 -5 -4
-2 -2 -2 -2 -2 -2 -2 -3 -3 -4 -4 -5 -5 -6 -7 -8 -8 -7 -8 -9 -10 -9 -9 -11 -11 -11 -11 -11 -12 -12 -12 -12 -13 -12 -12 -10 -10 -9 -9 -8 -7 -6 -6
-3 -2 -2 -2 -2 -3 -4 -5 -5 -5 -6 -7 -8 -9 -10 -10 -11 -11 -11 -11 -11 -12 -12 -12 -12 -12 -11 -12 -12 -13 -13 -11 -12 -12 -12 -12 -11 -10 -10 -9 -9 -8 -7
-3 -3 -4 -4 -5 -5 -6 -6 -6 -6 -7 -8 -9 -10 -11 -11 -11 -11 -11 -12 -12 -11 -11 -12 -12 -12 -12 -12 -13 -14 -14 -14 -14 -14 -13 -12 -12 -11 -11 -11 -10 -9 -9
-3 -4 -4 -5 -5 -5 -6 -6 -7 -9 -8 -9 -10 -10 -11 -11 -12 -12 -12 -12 -12 -12 -12 -12 -12 -12 -13 -15 -15 -15 -14 -14 -14 -14 -14 -14 -13 -13 -12 -12 -12 -11 -10
-4 -4 -5 -5 -5 -6 -7 -7 -8 -9 -9 -10 -10 -11 -11 -12 -12 -13 -13 -13 -13 -12 -12 -12 -12 -13 -14 -15 -15 -15 -15 -15 -15 -15 -15 -15 -14 -14 -13 -12 -12 -12 -12
-4 -5 -5 -5 -6 -7 -7 -8 -9 -9 -10 -10 -11 -12 -12 -12 -13 -13 -14 -14 -14 -13 -13 -13 -13 -14 -15 -15 -16 -16 -16 -16 -16 -16 -16 -16 -15 -15 -14 -13 -13 -13 -12
-5 -5 -5 -6 -7 -7 -8 -9 -9 -10 -11 -11 -12 -12 -13 -13 -13 -14 -14 -14 -14 -15 -14 -14 -14 -15 -16 -16 -16 -16 -17 -16 -16 -16 -16 -16 -15 -16 -15 -14 -14 -13 -13
-5 -5 -6 -7 -7 -8 -9 -9 -10 -11 -12 -12 -12 -13 -13 -13 -14 -14 -14 -14 -14 -15 -16 -15 -15 -15 -16 -16 -16 -16 -16 -16 -16 -16 -16 -16 -16 -16 -15 -16 -15 -14 -14
-6 -6 -7 -7 -8 -9 -10 -10 -11 -12 -12 -12 -13 -13 -13 -14 -15 -15 -15 -14 -15 -15 -16 -16 -16 -16 -17 -17 -16 -16 -16 -16 -16 -16 -16 -16 -17 -16 -16 -16 -16 -15 -15
-7 -7 -8 -8 -9 -9 -11 -11 -11 -12 -12 -13 -13 -14 -14 -14 -14 -14 -15 -15 -15 -16 -16 -16 -16 -16 -16 -17 -17 -17 -17 -17 -17 -17 -18 -18 -18 -18 -18 -17 -17 -16 -15
-7 -8 -8 -8 -10 -10 -11 -11 -12 -12 -13 -13 -14 -15 -15 -15 -14 -15 -15 -15 -15 -16 -16 -17 -17 -17 -17 -17 -17 -17 -17 -18 -18 -18 -19 -19 -19 -18 -18 -18 -18 -17 -17
-8 -8 -9 -10 -11 -12 -12 -12 -12 -14 -14 -15 -15 -16 -15 -15 -15 -15 -15 -15 -16 -16 -17 -17 -17 -17 -17 -17 -17 -18 -18 -18 -18 -19 -19 -19 -18 -18 -18 -18 -18 -17 -17
-9 -9 -9 -11 -12 -12 -12 -13 -13 -14 -15 -16 -16 -16 -15 -15 -15 -14 -15 -16 -16 -17 -17 -17 -17 -17 -17 -18 -18 -18 -18 -19 -19 -19 -19 -19 -19 -19 -18 -18 -18 -18 -17
-9 -10 -10 -12 -12 -12 -13 -13 -14 -15 -16 -16 -16 -16 -15 -15 -15 -15 -16 -17 -17 -17 -17 -17 -17 -17 -18 -18 -19 -19 -19 -19 -19 -19 -20 -19 -19 -19 -19 -18 -18 -18 -18
-10 -11 -11 -12 -12 -13 -13 -13 -15 -15 -16 -16 -16 -16 -16 -15 -15 -16 -16 -16 -17 -17 -17 -18 -18 -18 -18 -19 -19 -19 -19 -19 -19 -19 -19 -19 -19 -19 -19 -18 -18 -18 -18
-11 -12 -12 -13 -13 -13 -13 -14 -15 -16 -16 -16 -16 -16 -16 -16 -16 -16 -16 -16 -17 -17 -17 -18 -18 -18 -18 -19 -19 -19 -19 -20 -19 -19 -19 -19 -19 -19 -18 -18 -18 -18 -18
-12 -12 -13 -13 -13 -14 -14 -14 -15 -16 -16 -16 -16 -16 -16 -16 -16 -16 -16 -16 -17 -17 -17 -18 -18 -18 -18 -18 -19 -20 -20 -20 -20 -19 -19 -19 -19 -19 -18 -18 -18 -18 -17

GFSMA_700_temp_057.txt.gz
Temp
3 2 2 1 1 1 1 1 1 1 1 0 0 0 -0 0 1 1 1 0 0 1 1 2 2 2 2 1 1 1 1 1 1 1 1 1 1 0 0 1 1 1 1
3 2 1 1 1 1 1 0 1 1 1 1 1 0 0 1 1 0 0 -1 -0 -0 0 1 2 2 2 1 1 1 1 1 1 -0 0 0 0 0 0 0 0 0 0
2 2 1 1 1 1 1 1 1 1 1 1 1 1 0 0 0 0 -0 -1 -1 -0 -0 0 1 1 1 1 1 1 0 -0 -0 -0 -0 -0 -0 -1 -0 -0 -0 0 -0
1 1 0 0 1 1 1 1 1 1 1 1 0 0 1 0 0 0 -0 -0 -1 -0 -0 -0 -0 0 0 0 -0 0 -0 -1 -1 -1 -1 -1 -1 -1 -1 -1 -1 -1 0
1 0 0 0 1 1 1 1 1 1 1 0 0 0 -0 -0 -1 -1 -1 -1 -2 -2 -2 -2 -1 -1 -0 -0 -0 -0 -1 -1 -1 -1 -2 -2 -2 -2 -2 -2 -2 -2 -1
0 0 1 1 1 1 1 1 0 0 0 0 0 0 1 0 0 -1 -1 -2 -3 -3 -5 -5 -5 -4 -5 -5 -5 -4 -3 -3 -3 -4 -4 -4 -4 -4 -4 -3 -3 -2 -2
-0 0 0 1 1 0 -0 -0 0 0 -0 -0 -0 -0 -1 -1 -1 -1 -2 -2 -3 -5 -6 -7 -6 -6 -6 -6 -7 -7 -8 -8 -8 -8 -7 -6 -5 -5 -5 -5 -4 -4 -3
-0 0 0 -0 -0 -1 -1 -1 -1 -1 -1 -1 -1 -1 -1 -1 -1 -2 -3 -3 -4 -6 -8 -9 -8 -9 -9 -9 -9 -10 -10 -10 -11 -11 -11 -10 -10 -9 -7 -6 -6 -5 -5
-1 -1 -1 -1 -1 -1 -1 -2 -2 -2 -2 -2 -3 -3 -3 -2 -3 -3 -4 -4 -5 -6 -8 -9 -9 -9 -10 -10 -10 -11 -12 -12 -11 -11 -11 -11 -10 -10 -10 -9 -8 -7 -6
-2 -2 -2 -2 -2 -2 -2 -2 -2 -2 -2 -3 -4 -4 -5 -6 -6 -5 -7 -7 -8 -8 -9 -10 -10 -11 -11 -12 -12 -12 -12 -12 -12 -12 -11 -11 -11 -11 -10 -10 -10 -9 -8
-3 -3 -3 -2 -2 -2 -2 -3 -3 -4 -4 -5 -5 -6 -6 -7 -8 -8 -8 -9 -10 -11 -11 -11 -11 -11 -11 -11 -11 -12 -12 -12 -12 -12 -12 -12 -12 -12 -12 -12 -11 -11 -10
-3 -4 -3 -3 -3 -4 -4 -5 -6 -6 -6 -6 -7 -7 -8 -9 -10 -11 -11 -11 -11 -11 -11 -12 -12 -12 -12 -12 -12 -12 -12 -12 -12 -14 -14 -14 -13 -12 -11 -12 -12 -12 -11
-4 -3 -3 -4 -4 -5 -5 -5 -6 -6 -7 -7 -8 -8 -10 -10 -11 -12 -12 -12 -12 -12 -12 -12 -13 -13 -13 -13 -13 -13 -13 -13 -13 -14 -15 -15 -14 -14 -14 -13 -12 -12 -12
-3 -3 -4 -5 -5 -5 -5 -6 -6 -7 -7 -8 -9 -9 -10 -11 -12 -12 -12 -13 -13 -12 -12 -13 -13 -13 -13 -13 -14 -14 -15 -15 -15 -15 -15 -15 -16 -16 -16 -15 -14 -13 -12
-3 -4 -5 -5 -5 -6 -6 -6 -7 -8 -8 -9 -10 -10 -11 -12 -12 -13 -13 -14 -14 -14 -13 -13 -13 -13 -13 -14 -14 -15 -15 -15 -16 -16 -16 -16 -16 -16 -16 -15 -15 -14 -13
-4 -5 -5 -5 -6 -6 -7 -7 -8 -8 -9 -10 -11 -11 -12 -12 -13 -13 -14 -14 -15 -14 -14 -14 -14 -14 -14 -15 -15 -16 -16 -15 -16 -16 -16 -16 -16 -16 -16 -15 -15 -14 -14
-5 -5 -6 -6 -6 -7 -7 -8 -9 -10 -11 -11 -12 -12 -13 -13 -13 -14 -14 -14 -15 -15 -15 -14 -14 -14 -15 -16 -16 -16 -16 -16 -16 -16 -16 -15 -16 -16 -16 -15 -15 -15 -15
-6 -6 -7 -7 -7 -7 -8 -9 -10 -11 -11 -12 -12 -13 -13 -14 -14 -14 -14 -15 -15 -15 -15 -15 -15 -15 -16 -16 -16 -16 -16 -16 -16 -16 -16 -16 -16 -16 -16 -16 -15 -15 -15
-8 -8 -8 -8 -7 -8 -9 -10 -11 -11 -12 -12 -13 -13 -14 -14 -14 -14 -15 -15 -15 -15 -15 -16 -15 -16 -16 -16 -16 -17 -16 -16 -16 -16 -16 -16 -17 -17 -17 -17 -17 -17 -17
-9 -9 -9 -8 -8 -9 -10 -11 -11 -12 -12 -13 -14 -14 -14 -15 -15 -15 -15 -15 -15 -15 -15 -16 -16 -16 -16 -16 -17 -17 -16 -17 -16 -17 -17 -18 -17 -18 -18 -18 -18 -18 -18
-10 -10 -9 -8 -9 -10 -11 -12 -12 -12 -13 -14 -15 -15 -15 -15 -15 -15 -15 -15 -15 -15 -16 -16 -16 -16 -16 -17 -17 -17 -17 -17 -17 -18 -18 -18 -18 -18 -18 -18 -18 -18 -18
-10 -9 -9 -9 -10 -11 -12 -12 -13 -13 -14 -15 -15 -15 -15 -16 -16 -15 -15 -15 -15 -15 -16 -16 -17 -17 -17 -17 -17 -17 -17 -17 -17 -18 -19 -18 -19 -19 -19 -19 -18 -19 -18
-9 -9 -9 -10 -11 -12 -12 -13 -13 -14 -14 -15 -15 -15 -16 -16 -16 -16 -16 -16 -16 -17 -17 -17 -17 -17 -17 -17 -17 -17 -18 -18 -18 -19 -19 -18 -19 -19 -19 -19 -18 -18 -18
-9 -10 -10 -11 -12 -12 -13 -13 -14 -14 -14 -15 -15 -16 -16 -16 -16 -16 -16 -16 -16 -16 -17 -17 -17 -18 -18 -18 -18 -18 -18 -18 -18 -19 -20 -19 -19 -19 -19 -19 -19 -18 -18
-9 -10 -11 -12 -12 -12 -13 -14 -14 -14 -15 -15 -15 -16 -16 -16 -16 -16 -16 -16 -16 -16 -17 -17 -18 -18 -18 -18 -18 -18 -19 -19 -18 -19 -20 -20 -19 -19 -19 -19 -19 -19 -18
-10 -10 -12 -12 -13 -13 -14 -14 -14 -15 -15 -15 -16 -16 -16 -16 -16 -16 -16 -16 -16 -16 -17 -17 -18 -18 -18 -18 -19 -19 -19 -19 -19 -18 -20 -19 -19 -19 -18 -18 -19 -18 -18

GFSMA_700_temp_060.txt.gz
Temp
4 3 2 2 1 1 1 1 1 0 0 1 0 0 1 0 0 0 1 1 1 0 0 1 1 2 1 1 2 1 1 1 1 1 1 0 1 0 1 1 1 1 1
2 2 1 1 1 1 1 1 0 0 0 0 0 0 0 0 0 0 0 0 0 0 0 1 1 1 1 2 2 1 1 1 1 1 1 1 0 -0 0 0 0 1 1
1 1 0 1 1 1 0 0 0 -0 0 0 0 0 0 0 0 0 0 0 -0 -1 -0 -0 0 0 1 1 1 1 1 1 1 1 0 0 0 -0 -1 -1 -0 -0 0
1 0 0 0 0 -0 0 -0 0 0 1 1 0 0 0 -0 -0 -0 -0 -0 -1 -1 -1 -1 -1 -1 -0 -1 -1 -0 0 -0 -0 -1 -1 -1 -1 -1 -1 -1 -2 -1 -1
1 0 0 0 -0 -0 -0 0 1 1 1 1 1 0 -0 -0 -0 -0 -0 -1 -1 -2 -2 -2 -2 -1 -1 -1 -1 -2 -1 -1 -0 -1 -1 -2 -3 -3 -2 -2 -2 -2 -2
2 2 0 -1 -1 -0 0 1 0 0 0 1 0 0 -0 -0 -0 -1 -1 -1 -2 -2 -3 -3 -3 -3 -3 -3 -4 -4 -4 -5 -6 -4 -4 -3 -2 -3 -4 -4 -3 -3 -3
1 1 1 0 0 0 0 -0 -0 -1 -0 -0 -0 -1 -1 -1 -1 -1 -2 -2 -2 -3 -4 -5 -5 -5 -5 -5 -7 -8 -8 -9 -9 -9 -9 -9 -9 -8 -6 -5 -5 -5 -4
-0 -0 -0 -1 -1 -1 -1 -1 -1 -1 -1 -1 -2 -2 -1 -1 -1 -2 -2 -2 -3 -4 -5 -6 -7 -7 -8 -9 -9 -9 -9 -10 -11 -10 -10 -10 -11 -11 -10 -9 -8 -6 -6
-1 -1 -1 -1 -1 -1 -1 -2 -2 -2 -2 -2 -2 -2 -2 -2 -2 -2 -3 -4 -4 -5 -6 -7 -8 -9 -9 -10 -11 -11 -11 -11 -12 -12 -11 -11 -11 -11 -11 -11 -10 -10 -8
-1 -1 -2 -1 -1 -2 -2 -2 -2 -2 -2 -2 -3 -3 -3 -4 -4 -3 -4 -5 -6 -8 -8 -9 -9 -10 -11 -11 -11 -11 -11 -12 -12 -12 -12 -12 -12 -11 -11 -11 -11 -11 -10
-2 -2 -2 -2 -2 -2 -2 -2 -3 -3 -3 -4 -4 -4 -5 -5 -6 -6 -5 -6 -8 -9 -11 -11 -11 -11 -11 -11 -12 -12 -12 -12 -12 -12 -12 -12 -12 -12 -11 -12 -12 -12 -12
-2 -3 -3 -3 -3 -3 -3 -4 -4 -4 -5 -5 -5 -6 -6 -7 -7 -8 -8 -9 -9 -11 -12 -12 -12 -12 -12 -12 -12 -12 -12 -12 -13 -13 -13 -13 -14 -14 -13 -13 -13 -12 -12
-3 -4 -3 -3 -4 -5 -5 -5 -5 -5 -6 -6 -6 -7 -7 -8 -9 -10 -10 -10 -11 -12 -12 -12 -13 -13 -13 -13 -13 -13 -13 -13 -13 -13 -13 -14 -14 -14 -14 -13 -13 -13 -13
-2 -3 -3 -4 -5 -5 -5 -5 -6 -6 -6 -6 -7 -7 -8 -9 -10 -10 -11 -12 -12 -13 -12 -13 -13 -14 -14 -14 -14 -14 -14 -14 -14 -14 -14 -15 -15 -16 -15 -15 -14 -14 -14
-3 -3 -4 -4 -5 -5 -6 -6 -6 -6 -6 -7 -8 -8 -9 -10 -11 -11 -12 -13 -13 -13 -12 -13 -14 -14 -15 -14 -14 -14 -14 -14 -14 -15 -15 -15 -16 -16 -16 -15 -15 -14 -14
-4 -4 -4 -5 -6 -6 -6 -7 -7 -7 -8 -8 -9 -9 -10 -11 -12 -13 -13 -13 -14 -14 -14 -14 -14 -14 -15 -15 -15 -15 -15 -15 -15 -15 -15 -16 -16 -16 -16 -15 -15 -15 -15
-4 -4 -5 -6 -7 -7 -8 -8 -8 -8 -9 -9 -10 -11 -12 -12 -13 -13 -14 -14 -15 -15 -15 -15 -15 -15 -14 -15 -15 -15 -15 -16 -16 -16 -16 -16 -16 -16 -16 -16 -15 -15 -15
-4 -5 -6 -8 -8 -8 -9 -8 -8 -9 -10 -11 -11 -12 -12 -13 -14 -14 -14 -15 -15 -16 -16 -15 -14 -14 -15 -15 -15 -16 -16 -16 -16 -16 -16 -16 -16 -16 -16 -16 -16 -15 -15
-5 -8 -8 -8 -8 -9 -9 -9 -9 -10 -11 -12 -12 -13 -13 -14 -14 -15 -15 -16 -16 -16 -16 -15 -15 -15 -15 -16 -16 -16 -16 -16 -16 -17 -17 -16 -17 -17 -17 -17 -17 -16 -16
-7 -8 -8 -8 -8 -9 -9 -10 -11 -11 -12 -12 -13 -13 -14 -14 -15 -15 -16 -16 -16 -16 -15 -15 -15 -15 -16 -16 -16 -16 -16 -17 -17 -17 -17 -17 -17 -17 -17 -17 -17 -18 -17
-8 -8 -7 -8 -8 -9 -10 -11 -12 -12 -13 -13 -13 -14 -14 -15 -15 -15 -16 -16 -16 -16 -16 -15 -15 -15 -16 -16 -17 -17 -17 -16 -16 -17 -17 -17 -17 -18 -18 -18 -18 -18 -18
-9 -9 -8 -8 -9 -10 -11 -11 -12 -13 -13 -14 -14 -14 -15 -16 -16 -16 -16 -16 -16 -16 -15 -15 -15 -16 -16 -17 -17 -17 -17 -16 -16 -18 -17 -17 -19 -18 -19 -19 -18 -18 -18
-9 -8 -9 -9 -10 -10 -11 -12 -13 -13 -14 -14 -14 -14 -15 -16 -16 -16 -16 -16 -16 -16 -16 -16 -16 -16 -17 -17 -17 -17 -17 -17 -17 -18 -18 -17 -19 -19 -19 -19 -19 -19 -19
-9 -9 -9 -10 -10 -11 -12 -13 -13 -13 -14 -14 -15 -15 -15 -15 -16 -16 -16 -16 -16 -17 -16 -16 -16 -17 -17 -17 -18 -18 -18 -18 -18 -19 -20 -17 -19 -19 -19 -19 -19 -19 -19
-9 -9 -10 -10 -11 -11 -12 -13 -13 -14 -14 -14 -15 -15 -15 -16 -16 -16 -16 -16 -16 -16 -16 -16 -17 -17 -17 -18 -18 -18 -18 -18 -18 -18 -19 -18 -19 -19 -19 -19 -19 -19 -19
-10 -10 -11 -11 -12 -12 -13 -14 -14 -14 -14 -15 -15 -15 -15 -16 -16 -16 -17 -16 -16 -16 -16 -16 -17 -17 -18 -18 -18 -18 -19 -18 -18 -18 -19 -18 -19 -19 -18 -18 -19 -19 -18

GFSMA_700_temp_063.txt.gz
Temp
2 2 2 2 2 1 1 1 1 1 0 0 0 -0 0 0 0 0 0 0 0 0 0 1 1 1 2 2 2 2 1 1 1 1 1 1 1 0 0 0 1 1 1
2 2 1 1 1 0 0 0 0 0 0 -0 -0 -0 -0 0 0 0 0 -0 -0 -0 -0 0 0 0 1 1 1 1 1 1 0 0 0 0 -0 -1 0 1 1 0 0
1 1 0 0 0 -0 -0 -0 -0 -0 -0 -0 -0 -0 -0 0 0 0 -0 -0 -1 -1 -1 -0 -1 -0 -0 -0 0 1 1 1 1 -0 -1 -1 -1 -1 -1 -1 -0 0 -0
1 0 -0 -0 -1 -1 -1 -1 -1 -1 -0 -0 -0 -0 -0 0 0 0 0 -0 -0 -0 -1 -1 -1 -1 -1 -1 -1 -0 1 0 1 1 0 -1 -1 -2 -1 -2 -2 -1 -1
1 1 0 -0 -1 -1 -2 -1 -1 -1 -0 -0 0 -0 -0 -0 -0 -0 -0 -1 -1 -1 -1 -1 -1 -1 -1 -1 -1 -2 -2 -1 -2 -2 -2 -1 -0 -1 -2 -3 -3 -2 -2
1 1 1 0 -1 -1 -1 -1 -1 -0 0 -0 -0 -0 -0 -0 -1 -1 -1 -2 -2 -2 -2 -2 -2 -2 -3 -3 -3 -3 -3 -4 -4 -4 -4 -5 -4 -4 -2 -2 -3 -3 -3
1 1 0 0 -0 -1 -0 -1 -1 -0 -0 -0 -1 -1 -1 -2 -2 -2 -2 -2 -3 -3 -3 -3 -4 -4 -4 -5 -6 -6 -7 -7 -6 -7 -7 -7 -8 -8 -8 -7 -6 -4 -3
0 0 -0 -1 -1 -1 -1 -1 -1 -1 -1 -1 -2 -2 -2 -2 -2 -2 -2 -2 -3 -3 -4 -4 -4 -4 -5 -6 -7 -7 -8 -9 -10 -10 -11 -11 -11 -11 -10 -10 -10 -9 -8
-0 -1 -1 -1 -1 -1 -1 -1 -1 -2 -2 -2 -3 -3 -3 -3 -3 -3 -3 -3 -4 -4 -5 -5 -6 -6 -7 -8 -8 -9 -10 -11 -11 -11 -11 -11 -11 -11 -12 -12 -11 -11 -10
-1 -1 -1 -1 -1 -1 -2 -2 -2 -2 -3 -3 -3 -4 -4 -4 -4 -4 -4 -4 -5 -6 -7 -7 -8 -8 -9 -10 -10 -11 -11 -11 -12 -12 -12 -12 -12 -12 -12 -12 -12 -12 -11
-1 -1 -2 -2 -3 -3 -3 -3 -3 -3 -4 -4 -4 -5 -5 -5 -5 -5 -5 -6 -6 -7 -9 -9 -10 -11 -12 -12 -12 -12 -12 -12 -12 -13 -13 -13 -13 -12 -13 -14 -12 -12 -13
-2 -3 -2 -2 -3 -4 -4 -3 -4 -4 -5 -5 -5 -5 -6 -6 -6 -7 -7 -7 -7 -8 -9 -11 -13 -13 -13 -13 -13 -13 -13 -13 -13 -13 -13 -13 -13 -14 -14 -14 -14 -12 -13
-2 -2 -3 -3 -4 -4 -4 -4 -4 -5 -6 -6 -6 -6 -7 -7 -8 -8 -9 -9 -9 -9 -10 -12 -14 -14 -13 -14 -14 -14 -14 -14 -14 -14 -13 -14 -14 -14 -14 -14 -13 -13 -12
-3 -3 -3 -3 -3 -4 -4 -5 -6 -7 -7 -7 -7 -7 -7 -8 -9 -10 -10 -11 -11 -11 -11 -13 -13 -14 -14 -14 -15 -15 -14 -14 -14 -14 -14 -14 -14 -14 -15 -15 -14 -13 -13
-3 -3 -4 -4 -4 -4 -5 -6 -7 -7 -8 -8 -7 -7 -8 -9 -9 -10 -11 -11 -13 -13 -13 -13 -14 -14 -14 -15 -15 -15 -15 -14 -14 -14 -14 -14 -14 -14 -15 -15 -15 -15 -14
-3 -4 -4 -5 -4 -4 -6 -7 -7 -8 -8 -8 -8 -8 -9 -9 -10 -11 -12 -12 -13 -14 -14 -14 -15 -15 -15 -15 -15 -15 -14 -14 -14 -15 -15 -15 -15 -15 -15 -15 -15 -15 -15
-3 -4 -4 -4 -4 -6 -6 -6 -7 -8 -8 -8 -9 -9 -10 -10 -11 -12 -13 -14 -14 -15 -15 -15 -15 -15 -15 -15 -15 -15 -15 -15 -15 -15 -15 -16 -16 -16 -16 -16 -16 -15 -15
-4 -4 -4 -4 -5 -6 -7 -7 -7 -7 -8 -9 -9 -10 -11 -12 -13 -13 -14 -15 -15 -15 -16 -15 -15 -15 -15 -15 -15 -14 -15 -15 -15 -16 -16 -16 -16 -16 -16 -16 -16 -16 -16
-4 -5 -5 -6 -7 -7 -8 -8 -8 -8 -9 -9 -10 -11 -12 -13 -13 -14 -15 -15 -16 -16 -16 -16 -15 -15 -15 -15 -15 -15 -15 -16 -16 -16 -16 -16 -16 -16 -16 -16 -16 -16 -16
-5 -5 -6 -7 -8 -7 -8 -8 -9 -9 -9 -10 -11 -12 -13 -13 -14 -14 -15 -16 -16 -16 -16 -16 -15 -15 -15 -15 -15 -15 -16 -16 -16 -17 -17 -16 -16 -16 -16 -17 -16 -16 -16
-6 -6 -7 -8 -7 -8 -8 -9 -9 -9 -10 -11 -12 -13 -13 -14 -14 -15 -16 -16 -16 -16 -16 -16 -16 -15 -15 -15 -15 -16 -16 -17 -17 -17 -17 -17 -17 -17 -17 -17 -17 -17 -17
-7 -8 -8 -8 -8 -8 -9 -9 -9 -10 -11 -12 -13 -13 -14 -14 -14 -15 -16 -16 -16 -16 -16 -16 -16 -15 -15 -15 -16 -16 -17 -17 -16 -17 -17 -17 -18 -18 -18 -18 -19 -18 -18
-8 -8 -8 -8 -9 -9 -9 -10 -10 -11 -12 -12 -13 -14 -14 -14 -15 -15 -15 -16 -16 -16 -16 -16 -16 -16 -16 -16 -16 -16 -17 -17 -17 -18 -18 -17 -18 -18 -19 -19 -19 -19 -19
-8 -8 -9 -9 -9 -10 -10 -11 -11 -12 -12 -13 -14 -14 -14 -15 -15 -15 -16 -16 -16 -17 -16 -16 -16 -16 -16 -16 -16 -17 -17 -17 -18 -18 -19 -17 -18 -18 -19 -19 -19 -19 -19
-9 -9 -9 -9 -10 -10 -11 -11 -12 -12 -13 -14 -14 -15 -15 -15 -15 -16 -16 -16 -16 -17 -17 -17 -17 -16 -16 -16 -17 -17 -17 -18 -18 -18 -19 -18 -19 -18 -18 -18 -19 -19 -19
-9 -9 -9 -10 -10 -11 -11 -12 -12 -13 -14 -14 -15 -15 -15 -16 -16 -16 -16 -16 -17 -17 -17 -17 -17 -17 -16 -17 -17 -17 -18 -18 -18 -18 -20 -19 -19 -19 -17 -18 -19 -18 -18

GFSMA_700_temp_066.txt.gz
Temp
2 2 2 2 2 1 1 1 0 0 -0 -0 -0 -0 -0 -0 0 0 0 0 0 0 0 0 0 1 1 1 1 2 2 1 1 1 1 1 1 1 1 1 1 1 1
2 2 1 1 1 0 -0 -0 -1 -1 -1 -1 -1 -1 -1 -0 -0 0 0 0 -0 -0 -0 -0 -0 -0 0 0 0 1 1 1 0 0 0 0 1 0 0 1 1 1 1
2 1 0 0 -1 -1 -1 -1 -1 -1 -1 -1 -1 -1 -1 -0 -0 -0 -0 -0 -0 -0 -1 -1 -0 -0 -0 -0 0 0 1 1 0 0 0 -0 -0 -0 -0 0 0 0 0
1 1 -0 -1 -1 -2 -2 -2 -2 -2 -2 -1 -1 -1 -1 -0 -0 -0 -0 -0 -1 -1 -1 -1 -1 -1 -1 -1 -1 -0 -0 0 0 0 0 1 0 0 -1 -1 -0 -0 -0
1 0 -0 0 -0 -2 -2 -2 -2 -2 -2 -1 -1 -0 -0 -0 -0 -1 -1 -1 -1 -1 -1 -1 -1 -1 -1 -1 -1 -1 -1 -1 -1 -1 -1 -1 -1 -0 0 0 -0 -1 -1
1 0 0 -0 -1 -2 -2 -2 -2 -1 -1 -1 -1 -0 -0 -0 -1 -1 -2 -2 -2 -2 -2 -2 -2 -2 -2 -3 -3 -3 -3 -4 -4 -5 -4 -3 -3 -3 -3 -2 -1 -1 -1
0 0 -0 -1 -1 -2 -2 -1 -1 -1 -1 -1 -1 -1 -1 -1 -2 -2 -2 -2 -3 -3 -3 -3 -3 -3 -3 -3 -4 -4 -5 -5 -6 -8 -11 -10 -9 -7 -8 -8 -8 -7 -5
-0 -0 -1 -1 -1 -1 -1 -2 -2 -2 -2 -1 -1 -1 -2 -2 -2 -3 -3 -3 -3 -3 -3 -3 -4 -4 -4 -4 -5 -5 -5 -6 -7 -8 -9 -10 -11 -11 -10 -10 -10 -10 -10
-0 -1 -1 -1 -1 -2 -2 -1 -2 -1 -3 -2 -2 -2 -3 -3 -3 -3 -4 -4 -4 -4 -4 -5 -5 -5 -6 -6 -6 -6 -7 -8 -10 -11 -12 -12 -12 -12 -12 -12 -11 -11 -11
-0 -1 -1 -1 -2 -2 -2 -2 -2 -2 -2 -3 -3 -3 -4 -4 -5 -5 -5 -5 -5 -6 -6 -6 -6 -7 -7 -7 -8 -8 -10 -11 -12 -12 -12 -13 -13 -13 -14 -14 -14 -14 -13
-1 -1 -2 -2 -3 -2 -3 -3 -3 -3 -3 -3 -3 -4 -4 -5 -6 -6 -6 -6 -6 -6 -7 -8 -8 -9 -9 -9 -10 -11 -12 -12 -12 -12 -13 -13 -13 -14 -14 -14 -15 -15 -13
-1 -2 -2 -2 -3 -4 -4 -4 -4 -4 -4 -4 -5 -5 -6 -6 -7 -7 -7 -7 -7 -8 -8 -9 -10 -11 -11 -12 -12 -13 -13 -13 -13 -13 -13 -13 -13 -13 -14 -14 -14 -14 -15
-2 -3 -2 -3 -3 -3 -5 -4 -4 -4 -5 -5 -6 -6 -7 -7 -8 -8 -8 -8 -8 -9 -10 -10 -12 -13 -13 -14 -14 -14 -14 -14 -14 -14 -14 -14 -14 -14 -14 -14 -14 -13 -13
-2 -2 -2 -3 -3 -5 -5 -4 -5 -6 -6 -7 -7 -7 -7 -8 -8 -8 -9 -9 -10 -10 -10 -12 -13 -14 -14 -15 -15 -15 -15 -15 -15 -15 -14 -14 -14 -14 -14 -14 -14 -14 -14
-2 -2 -2 -3 -4 -5 -5 -5 -6 -7 -7 -7 -7 -7 -7 -8 -8 -9 -10 -11 -12 -12 -12 -13 -14 -14 -15 -16 -16 -15 -15 -15 -15 -14 -14 -14 -14 -14 -14 -14 -14 -14 -14
-2 -2 -3 -3 -4 -5 -6 -5 -7 -7 -7 -7 -7 -7 -7 -8 -9 -9 -10 -11 -12 -13 -14 -14 -14 -15 -15 -15 -15 -15 -15 -15 -14 -14 -14 -14 -14 -14 -14 -15 -15 -15 -15
-2 -3 -4 -3 -5 -5 -6 -6 -7 -7 -7 -7 -7 -8 -8 -8 -9 -10 -11 -12 -13 -14 -14 -15 -15 -16 -16 -16 -16 -15 -15 -15 -14 -14 -14 -14 -15 -15 -15 -15 -15 -15 -15
-3 -4 -4 -5 -5 -5 -6 -7 -8 -8 -7 -8 -8 -8 -8 -9 -10 -11 -12 -13 -14 -14 -15 -15 -16 -16 -16 -16 -16 -15 -15 -15 -15 -14 -15 -15 -16 -16 -16 -16 -16 -16 -16
-4 -5 -4 -5 -6 -6 -7 -8 -8 -8 -8 -8 -8 -9 -9 -10 -11 -12 -13 -14 -14 -15 -15 -16 -16 -16 -16 -16 -15 -15 -15 -15 -15 -16 -16 -17 -16 -16 -16 -16 -16 -16 -16
-6 -5 -6 -6 -7 -7 -8 -8 -8 -8 -8 -9 -9 -9 -10 -11 -12 -13 -14 -14 -15 -15 -16 -16 -16 -16 -16 -16 -16 -15 -15 -15 -15 -16 -17 -17 -16 -16 -16 -16 -16 -16 -16
-5 -6 -6 -7 -7 -9 -9 -9 -9 -9 -9 -9 -9 -10 -11 -12 -13 -13 -14 -15 -15 -15 -16 -16 -16 -16 -16 -16 -16 -16 -15 -15 -16 -17 -17 -17 -17 -17 -17 -16 -16 -17 -17
-6 -7 -7 -8 -9 -10 -9 -9 -9 -9 -9 -9 -10 -11 -12 -13 -13 -14 -15 -15 -15 -15 -16 -16 -16 -16 -16 -16 -16 -16 -16 -16 -15 -17 -17 -16 -18 -17 -17 -17 -17 -18 -18
-7 -7 -8 -9 -10 -9 -9 -9 -9 -9 -10 -10 -11 -12 -12 -13 -14 -14 -15 -15 -15 -16 -16 -16 -16 -17 -16 -16 -16 -16 -16 -16 -17 -17 -18 -16 -18 -17 -17 -17 -18 -18 -18
-7 -8 -9 -9 -9 -9 -9 -9 -10 -10 -10 -11 -12 -12 -13 -14 -14 -15 -15 -15 -16 -16 -16 -16 -17 -17 -17 -16 -16 -16 -16 -16 -16 -18 -18 -17 -18 -18 -18 -18 -19 -18 -18
-8 -9 -9 -9 -9 -9 -10 -10 -10 -11 -11 -11 -13 -13 -14 -15 -15 -16 -16 -16 -16 -16 -17 -17 -17 -17 -17 -17 -17 -16 -16 -16 -16 -17 -18 -18 -18 -18 -18 -19 -19 -19 -18
-9 -9 -9 -9 -10 -10 -10 -11 -11 -12 -12 -12 -13 -14 -15 -15 -16 -16 -16 -16 -16 -17 -17 -17 -17 -17 -17 -17 -17 -17 -17 -17 -17 -17 -18 -18 -19 -19 -17 -18 -19 -19 -18

GFSMA_700_temp_069.txt.gz
Temp
2 2 2 2 1 1 1 0 -0 -0 -0 -0 -0 -1 -1 -1 -1 -0 -0 -0 -0 0 -0 0 0 0 0 0 0 1 1 1 0 1 1 1 1 1 1 1 1 1 1
2 1 1 1 1 0 -0 -1 -1 -1 -1 -1 -1 -1 -1 -1 -1 -1 -0 -0 -0 -0 -0 -0 -1 -1 -1 -0 -0 0 0 0 0 0 0 0 0 0 0 0 1 1 1
1 1 1 1 -0 -0 -1 -2 -2 -2 -2 -1 -1 -1 -1 -1 -1 -0 -0 -0 -0 -0 -0 -1 -1 -1 -1 -1 -1 -0 0 0 0 0 0 0 0 -0 -0 -0 -0 0 0
1 1 1 0 0 -0 -1 -2 -2 -2 -2 -2 -1 -1 -1 -1 -0 -0 0 -0 -0 -1 -1 -1 -1 -1 -1 -1 -1 -1 -1 -1 -0 -0 -0 0 0 0 0 0 0 -0 -0
1 1 1 -0 -0 -1 -1 -2 -2 -2 -2 -1 -1 -1 -1 -1 -0 -0 -0 -1 -1 -1 -2 -2 -2 -2 -2 -2 -2 -2 -2 -2 -2 -1 -1 -1 -1 -1 -0 0 0 0 0
1 1 0 -0 -0 -1 -1 -2 -2 -2 -2 -1 -1 -1 -1 -1 -1 -1 -1 -1 -2 -2 -2 -3 -3 -3 -3 -3 -3 -3 -3 -3 -4 -4 -4 -5 -4 -3 -2 -2 -1 -1 -1
1 0 -0 -0 -1 -1 -1 -2 -2 -1 -1 -1 -1 -1 -1 -1 -1 -2 -2 -2 -2 -2 -3 -3 -3 -3 -3 -4 -4 -4 -4 -4 -5 -5 -6 -8 -9 -9 -8 -8 -7 -5 -4
1 0 -0 -0 -1 -1 -2 -2 -2 -1 -1 -1 -2 -2 -2 -2 -2 -2 -3 -3 -3 -3 -4 -4 -4 -4 -4 -4 -4 -4 -5 -5 -6 -7 -7 -8 -9 -10 -9 -9 -10 -10 -12
0 0 -0 -1 -1 -2 -2 -2 -2 -2 -2 -2 -2 -2 -3 -3 -3 -3 -4 -4 -4 -5 -5 -5 -5 -5 -5 -5 -5 -6 -6 -7 -8 -9 -9 -10 -11 -11 -12 -11 -11 -12 -10
0 -0 -1 -1 -2 -2 -2 -2 -2 -3 -3 -3 -3 -3 -3 -4 -5 -5 -5 -5 -6 -6 -6 -6 -6 -6 -6 -6 -7 -8 -8 -9 -9 -10 -11 -12 -12 -13 -13 -14 -14 -12 -12
-0 -1 -1 -2 -2 -3 -3 -3 -4 -3 -3 -3 -4 -4 -4 -5 -5 -5 -5 -6 -6 -6 -6 -7 -7 -7 -8 -8 -9 -9 -10 -10 -11 -12 -12 -13 -13 -13 -13 -14 -13 -13 -13
-0 -1 -1 -2 -3 -3 -3 -3 -3 -3 -4 -5 -4 -5 -5 -6 -6 -6 -6 -7 -7 -7 -7 -7 -8 -9 -10 -10 -11 -11 -11 -12 -12 -13 -13 -13 -14 -14 -14 -13 -14 -15 -15
-1 -1 -1 -3 -3 -3 -3 -3 -3 -5 -4 -5 -5 -5 -6 -7 -7 -7 -7 -7 -7 -7 -8 -8 -9 -10 -11 -12 -12 -13 -13 -14 -14 -14 -14 -14 -14 -14 -14 -14 -14 -14 -14
-1 -1 -1 -3 -2 -3 -3 -4 -3 -5 -5 -6 -5 -6 -7 -7 -8 -8 -8 -8 -8 -8 -8 -9 -10 -11 -12 -13 -14 -14 -14 -14 -15 -15 -14 -14 -14 -14 -14 -14 -13 -13 -14
-1 -2 -3 -2 -2 -3 -3 -4 -4 -5 -5 -6 -7 -7 -7 -8 -8 -8 -8 -8 -9 -9 -9 -11 -12 -12 -14 -14 -15 -15 -15 -15 -15 -15 -15 -14 -14 -14 -14 -13 -13 -13 -14
-2 -2 -2 -3 -3 -3 -4 -4 -5 -5 -6 -7 -8 -8 -8 -8 -8 -8 -8 -9 -10 -11 -11 -12 -13 -14 -14 -15 -15 -15 -15 -15 -15 -15 -14 -14 -14 -14 -14 -14 -14 -14 -14
-2 -2 -3 -3 -3 -5 -5 -5 -5 -6 -7 -8 -8 -8 -8 -8 -8 -9 -9 -10 -11 -12 -12 -13 -13 -14 -15 -16 -16 -16 -16 -15 -15 -15 -14 -14 -14 -14 -14 -15 -15 -15 -15
-2 -3 -4 -4 -5 -5 -6 -6 -6 -7 -8 -8 -8 -8 -8 -9 -9 -9 -10 -10 -11 -12 -13 -13 -14 -14 -15 -16 -16 -16 -15 -15 -15 -15 -14 -14 -14 -14 -15 -15 -16 -16 -16
-3 -4 -4 -5 -6 -6 -6 -6 -7 -8 -9 -9 -9 -9 -9 -9 -9 -10 -10 -11 -12 -13 -14 -14 -14 -15 -15 -16 -16 -16 -15 -16 -15 -15 -15 -15 -15 -15 -16 -16 -16 -16 -16
-4 -4 -4 -5 -6 -6 -6 -7 -9 -9 -9 -9 -9 -9 -9 -10 -10 -10 -11 -12 -13 -14 -14 -15 -15 -15 -15 -16 -16 -16 -16 -16 -15 -15 -15 -15 -15 -16 -16 -16 -16 -16 -16
-3 -3 -5 -6 -6 -7 -8 -8 -9 -9 -10 -9 -10 -10 -10 -10 -11 -11 -12 -13 -14 -14 -15 -15 -15 -16 -16 -16 -16 -16 -16 -16 -16 -16 -16 -15 -16 -17 -17 -16 -16 -16 -17
-4 -5 -6 -6 -7 -8 -8 -9 -10 -10 -10 -10 -10 -10 -11 -11 -12 -12 -13 -13 -14 -15 -15 -15 -16 -16 -16 -16 -17 -16 -16 -16 -16 -16 -15 -15 -17 -17 -17 -17 -17 -17 -17
-6 -6 -6 -7 -7 -8 -9 -10 -10 -10 -10 -10 -10 -11 -11 -12 -13 -13 -13 -14 -15 -15 -16 -16 -16 -16 -16 -17 -17 -17 -16 -16 -16 -17 -16 -15 -16 -17 -17 -17 -17 -17 -17
-6 -6 -7 -8 -8 -9 -10 -10 -10 -10 -10 -10 -11 -12 -12 -13 -13 -14 -14 -15 -15 -16 -16 -16 -16 -16 -17 -17 -17 -17 -17 -16 -16 -17 -17 -16 -17 -17 -17 -18 -18 -18 -18
-7 -7 -8 -9 -9 -10 -10 -10 -10 -10 -11 -11 -12 -12 -13 -14 -14 -15 -15 -15 -16 -16 -17 -17 -17 -17 -17 -17 -17 -17 -17 -17 -17 -16 -17 -16 -17 -17 -17 -18 -19 -19 -18
-7 -8 -9 -9 -10 -10 -10 -11 -11 -11 -11 -12 -12 -12 -14 -15 -15 -15 -16 -16 -16 -17 -17 -17 -17 -17 -17 -17 -17 -17 -17 -17 -17 -16 -17 -16 -17 -17 -17 -18 -19 -19 -18

GFSMA_700_temp_072.txt.gz
Temp
2 2 2 2 1 1 1 0 0 -0 -0 -1 -0 -0 -0 -0 -0 -0 -0 0 0 0 0 0 0 0 -0 -0 -0 -0 0 0 1 0 0 0 1 0 1 1 1 1 1
2 2 1 1 1 0 0 0 0 -0 -1 -0 -0 -1 -1 -1 -0 -0 -0 0 0 0 0 0 -0 -0 -0 -0 -1 -1 -1 -0 -0 -0 -0 -0 -0 -0 -0 -0 0 1 1
1 1 1 1 1 1 1 0 0 -0 -1 -1 -1 -1 -0 -0 -0 -0 -0 -0 0 0 0 -0 -0 -0 -1 -1 -1 -1 -1 -1 -0 -0 -0 -0 -0 -0 0 -0 -0 -0 0
1 1 1 1 1 1 0 1 -0 -1 -1 -1 -1 -1 -0 -0 -0 -0 -0 -0 -0 -1 -0 -1 -1 -1 -1 -1 -1 -2 -2 -2 -1 -1 -1 -1 -1 -0 -0 -0 0 0 -0
1 1 1 1 1 1 0 -0 -1 -2 -1 -1 -1 -1 -1 -1 -1 -1 -1 -1 -1 -1 -1 -1 -2 -2 -2 -2 -2 -2 -3 -3 -3 -2 -1 -2 -1 -2 -1 -1 -1 -1 -0
1 2 1 1 0 0 -0 -1 -1 -1 -1 -1 -1 -1 -1 -1 -1 -1 -1 -1 -1 -2 -2 -2 -3 -3 -3 -3 -3 -3 -3 -3 -4 -4 -4 -4 -4 -4 -4 -3 -3 -2 -2
1 1 1 1 0 -0 -1 -1 -1 -2 -2 -2 -1 -1 -1 -1 -1 -2 -2 -2 -2 -2 -3 -3 -3 -3 -4 -3 -3 -4 -4 -4 -4 -5 -5 -6 -6 -6 -7 -7 -6 -7 -6
2 2 1 0 -0 -1 -1 -1 -1 -1 -1 -2 -2 -1 -1 -2 -1 -1 -2 -2 -3 -3 -3 -3 -3 -4 -4 -4 -4 -4 -4 -5 -5 -6 -7 -7 -8 -8 -9 -9 -10 -11 -11
2 1 1 0 -0 -1 -1 -2 -2 -2 -2 -2 -2 -2 -2 -3 -3 -3 -3 -3 -3 -4 -4 -5 -5 -5 -5 -5 -5 -5 -4 -5 -6 -7 -7 -8 -9 -9 -10 -11 -11 -11 -11
1 1 0 -0 -1 -1 -2 -2 -2 -2 -3 -3 -3 -1 -2 -3 -4 -4 -5 -5 -5 -5 -5 -5 -5 -5 -5 -6 -6 -6 -6 -6 -7 -8 -9 -9 -10 -11 -12 -13 -13 -13 -12
1 0 0 -0 -1 -1 -2 -2 -2 -2 -3 -3 -3 -3 -3 -4 -4 -4 -4 -5 -6 -6 -6 -6 -6 -6 -6 -6 -7 -7 -7 -8 -9 -9 -10 -11 -12 -12 -13 -13 -13 -14 -14
1 0 0 -1 -1 -2 -2 -2 -3 -3 -3 -3 -3 -4 -4 -4 -5 -6 -6 -6 -7 -7 -7 -6 -7 -7 -7 -7 -8 -8 -9 -10 -11 -11 -12 -12 -13 -13 -14 -14 -14 -14 -15
0 0 -0 -1 -2 -2 -3 -2 -3 -4 -4 -4 -4 -4 -4 -5 -6 -6 -7 -7 -7 -7 -7 -7 -7 -7 -8 -8 -9 -10 -11 -11 -12 -13 -13 -14 -14 -14 -14 -14 -14 -14 -14
-0 -0 -1 -1 -1 -2 -2 -2 -3 -4 -3 -4 -4 -4 -5 -6 -7 -7 -7 -7 -7 -7 -8 -9 -13 -10 -9 -9 -10 -11 -13 -13 -13 -14 -14 -14 -14 -14 -14 -14 -14 -14 -14
-0 -1 -1 -1 -2 -3 -2 -3 -3 -3 -4 -4 -5 -5 -6 -7 -8 -8 -8 -8 -8 -8 -8 -9 -11 -12 -10 -11 -12 -12 -13 -14 -14 -14 -14 -14 -14 -14 -14 -14 -14 -13 -13
-0 -1 -2 -2 -2 -3 -3 -3 -3 -4 -4 -5 -5 -6 -7 -8 -8 -8 -8 -8 -9 -9 -9 -10 -11 -14 -13 -12 -14 -13 -14 -14 -14 -14 -15 -15 -14 -14 -14 -14 -14 -13 -13
-1 -2 -2 -2 -3 -4 -4 -5 -4 -5 -5 -5 -6 -7 -8 -8 -8 -9 -9 -9 -9 -10 -10 -9 -12 -14 -13 -13 -14 -14 -14 -14 -15 -15 -14 -15 -14 -14 -14 -14 -14 -14 -14
-1 -3 -2 -2 -4 -4 -4 -5 -5 -5 -6 -6 -7 -8 -9 -9 -9 -9 -9 -10 -10 -11 -13 -11 -11 -14 -16 -15 -14 -14 -15 -15 -15 -15 -15 -15 -14 -14 -14 -14 -14 -15 -15
-2 -4 -3 -4 -4 -5 -5 -5 -6 -6 -7 -7 -8 -9 -9 -9 -10 -10 -10 -11 -11 -13 -15 -14 -13 -14 -14 -15 -15 -15 -15 -15 -16 -15 -15 -15 -15 -14 -14 -14 -15 -15 -16
-3 -3 -4 -4 -5 -5 -5 -6 -6 -7 -8 -8 -9 -9 -10 -10 -10 -10 -11 -11 -12 -12 -13 -13 -14 -14 -15 -16 -17 -17 -17 -16 -16 -16 -16 -15 -15 -15 -15 -15 -15 -16 -16
-3 -4 -4 -5 -5 -5 -6 -7 -7 -8 -8 -9 -9 -10 -10 -10 -10 -11 -12 -12 -13 -13 -13 -14 -15 -15 -16 -17 -18 -18 -18 -16 -16 -16 -16 -16 -15 -15 -16 -16 -16 -16 -16
-4 -5 -5 -5 -6 -6 -7 -7 -8 -8 -9 -9 -10 -10 -10 -11 -11 -11 -12 -12 -13 -14 -14 -16 -16 -17 -17 -18 -18 -19 -19 -17 -16 -16 -16 -16 -16 -16 -16 -16 -17 -17 -17
-5 -5 -5 -6 -7 -7 -8 -8 -9 -9 -9 -10 -10 -10 -11 -11 -12 -12 -12 -13 -13 -14 -15 -16 -16 -17 -17 -17 -17 -17 -17 -17 -17 -17 -17 -16 -16 -16 -16 -16 -17 -17 -17
-5 -6 -6 -6 -7 -8 -8 -9 -10 -10 -10 -10 -10 -10 -11 -11 -12 -14 -15 -15 -15 -15 -16 -16 -16 -17 -17 -17 -17 -17 -17 -17 -17 -17 -17 -16 -16 -16 -16 -17 -17 -17 -18
-5 -6 -7 -7 -8 -8 -9 -10 -10 -10 -10 -10 -10 -11 -11 -12 -13 -15 -15 -16 -16 -16 -16 -16 -17 -17 -17 -17 -18 -18 -17 -18 -17 -17 -17 -17 -16 -17 -16 -17 -18 -18 -18
-6 -7 -8 -8 -8 -9 -9 -10 -10 -10 -10 -10 -10 -11 -12 -12 -13 -16 -16 -16 -16 -16 -17 -17 -16 -17 -18 -18 -18 -18 -18 -18 -18 -17 -18 -17 -16 -17 -16 -17 -18 -19 -19

GFSMA_700_temp_075.txt.gz
Temp
2 2 1 1 1 1 1 1 1 1 0 0 0 0 0 0 0 -0 0 -0 0 0 0 0 1 1 1 0 -0 0 0 0 0 0 0 0 0 0 1 0 1 1 1
1 1 1 1 1 1 1 1 0 0 1 1 0 -0 -0 -0 0 -0 -1 0 0 -0 0 0 0 0 0 0 -0 -0 -0 -0 -1 -0 -0 -0 -1 -0 -0 0 -0 -0 0
1 1 0 1 1 1 1 1 1 1 0 0 -0 -0 -0 -0 -0 -0 -0 -0 0 0 -0 -0 -0 -0 -0 -1 -1 -1 -1 -0 -0 -0 -1 -1 -1 -1 -1 -1 -0 -0 -0
1 0 1 1 1 1 1 1 1 0 0 -0 -1 -0 -0 -0 0 0 0 -0 -0 -1 -1 -0 -1 -1 -1 -1 -1 -1 -2 -2 -2 -1 -1 -1 -1 -1 -1 -1 -1 -1 -0
1 1 1 1 1 1 1 0 0 0 -0 -1 -1 -0 -1 -0 0 0 0 0 -0 -1 -1 -0 -1 -1 -1 -1 -2 -2 -3 -3 -3 -3 -3 -3 -2 -2 -2 -2 -2 -2 -1
1 1 1 1 1 1 1 0 0 -0 -1 -1 -1 -1 -1 0 -0 -0 -0 -1 -1 -1 -1 -1 -1 -2 -2 -2 -2 -3 -3 -3 -3 -4 -4 -5 -5 -4 -4 -4 -5 -5 -4
1 1 1 1 1 1 0 -0 -0 -1 -0 -1 -1 -1 -1 0 0 -0 -0 -1 -1 -1 -2 -2 -2 -2 -3 -2 -2 -2 -3 -4 -4 -4 -4 -5 -5 -6 -6 -6 -6 -6 -7
1 1 2 1 1 1 0 -0 -1 -1 -1 -1 -2 -1 -2 -2 -2 -1 -1 -2 -2 -2 -2 -3 -3 -3 -3 -4 -4 -4 -3 -4 -4 -4 -5 -5 -6 -6 -7 -8 -8 -9 -10
1 1 1 1 1 0 -0 -1 -1 -2 -2 -2 -1 -2 -2 -3 -2 -2 -2 -2 -3 -3 -3 -4 -4 -4 -5 -4 -5 -5 -5 -5 -5 -6 -6 -6 -6 -7 -8 -9 -10 -10 -11
1 1 1 1 0 0 -1 -1 -1 -2 -2 -2 -3 -2 -2 -2 -2 -3 -3 -4 -5 -6 -6 -5 -5 -5 -5 -5 -5 -6 -6 -6 -6 -7 -7 -7 -7 -8 -9 -10 -11 -12 -12
0 1 1 1 0 -0 -1 -1 -2 -2 -3 -2 -3 -3 -3 -3 -3 -3 -3 -4 -5 -5 -6 -6 -6 -6 -6 -6 -6 -6 -7 -7 -7 -7 -8 -8 -9 -10 -10 -11 -12 -13 -13
1 1 1 0 -0 -1 -1 -2 -3 -2 -2 -3 -3 -3 -3 -4 -4 -4 -5 -5 -6 -6 -6 -6 -7 -7 -7 -7 -7 -7 -7 -8 -8 -8 -9 -10 -10 -11 -12 -13 -13 -14 -14
1 1 0 0 -0 -1 -1 -2 -2 -3 -2 -3 -4 -3 -4 -4 -4 -4 -5 -6 -6 -6 -7 -7 -7 -8 -7 -8 -8 -8 -8 -8 -9 -9 -11 -12 -12 -13 -13 -14 -14 -14 -14
1 0 0 0 -1 -1 -2 -2 -2 -3 -2 -3 -3 -3 -4 -4 -5 -6 -6 -7 -7 -7 -7 -7 -8 -10 -11 -11 -11 -9 -9 -10 -10 -10 -11 -12 -13 -13 -14 -14 -14 -14 -14
1 0 0 -0 -1 -2 -2 -2 -2 -3 -3 -3 -3 -3 -4 -4 -6 -6 -7 -7 -8 -7 -7 -8 -9 -10 -12 -13 -13 -12 -11 -12 -12 -12 -13 -13 -13 -14 -14 -14 -14 -14 -14
1 0 -0 -1 -2 -2 -2 -2 -3 -4 -4 -4 -4 -4 -5 -6 -7 -7 -7 -8 -8 -8 -8 -9 -9 -11 -12 -13 -14 -14 -13 -13 -13 -13 -13 -14 -14 -15 -14 -14 -14 -14 -14
1 -0 -1 -1 -1 -2 -2 -3 -4 -5 -5 -5 -5 -5 -5 -6 -7 -7 -8 -9 -9 -9 -10 -9 -11 -12 -13 -13 -14 -14 -14 -15 -15 -16 -14 -14 -15 -15 -15 -15 -14 -14 -14
-1 -1 -1 -2 -3 -3 -4 -4 -5 -5 -5 -5 -5 -6 -6 -7 -8 -8 -9 -9 -9 -10 -12 -12 -11 -12 -14 -14 -15 -15 -15 -15 -16 -17 -15 -15 -15 -15 -15 -15 -14 -14 -14
-1 -1 -1 -3 -3 -4 -4 -5 -5 -5 -6 -6 -6 -7 -7 -8 -8 -9 -10 -10 -10 -11 -12 -13 -13 -14 -15 -14 -15 -16 -16 -16 -17 -18 -17 -15 -15 -15 -15 -15 -15 -14 -14
-1 -2 -2 -3 -4 -4 -4 -5 -5 -6 -6 -6 -7 -7 -8 -9 -9 -10 -10 -10 -11 -12 -13 -14 -14 -15 -14 -14 -15 -16 -16 -17 -17 -17 -18 -17 -16 -16 -15 -15 -15 -15 -14
-1 -2 -3 -3 -5 -5 -5 -5 -6 -6 -7 -7 -7 -8 -9 -9 -9 -10 -10 -10 -11 -12 -13 -14 -14 -15 -15 -15 -16 -16 -16 -17 -17 -18 -18 -18 -18 -17 -16 -16 -15 -15 -15
-1 -2 -4 -4 -5 -5 -5 -5 -6 -7 -7 -7 -8 -9 -9 -10 -10 -10 -11 -11 -11 -12 -14 -15 -15 -15 -15 -16 -16 -16 -17 -17 -17 -18 -19 -19 -18 -17 -16 -16 -16 -16 -16
-2 -3 -4 -4 -4 -5 -5 -6 -7 -7 -7 -8 -9 -9 -9 -10 -10 -11 -11 -12 -14 -15 -16 -16 -16 -16 -16 -16 -17 -17 -17 -17 -18 -19 -19 -17 -17 -16 -16 -16 -16 -16 -16
-3 -4 -4 -4 -5 -6 -6 -7 -7 -8 -8 -9 -9 -10 -10 -10 -10 -11 -13 -13 -14 -15 -16 -16 -16 -16 -16 -16 -17 -17 -18 -18 -17 -18 -18 -17 -17 -17 -16 -16 -16 -16 -16
-4 -5 -4 -5 -6 -7 -7 -7 -8 -8 -9 -9 -10 -10 -10 -10 -11 -12 -12 -13 -14 -14 -16 -16 -16 -17 -17 -17 -17 -18 -18 -18 -18 -18 -18 -19 -18 -17 -17 -17 -17 -17 -17
-4 -5 -5 -6 -7 -8 -8 -8 -9 -9 -9 -9 -10 -10 -10 -11 -11 -12 -13 -14 -14 -16 -16 -16 -16 -16 -16 -17 -17 -18 -18 -18 -18 -18 -18 -19 -18 -18 -17 -17 -17 -17 -17

GFSMA_700_temp_078.txt.gz
Temp
2 1 2 2 2 2 2 1 1 1 1 1 0 0 1 1 0 1 1 0 0 1 1 1 0 0 0 0 0 0 0 0 0 0 0 -0 0 0 0 0 0 0 0
0 0 1 2 1 1 1 1 1 1 1 1 0 1 1 1 0 0 1 1 1 1 1 1 0 -0 0 -0 -0 -0 -0 -0 -0 -0 -1 -1 -1 -1 -1 -0 -0 -0 -0
1 2 1 1 1 1 1 1 1 1 1 1 1 1 1 0 0 0 0 1 1 1 1 0 0 0 0 -0 -0 -0 -0 -0 -0 0 -0 -0 -1 -1 -1 -1 -1 -1 -0
1 1 1 1 1 1 1 1 1 0 1 1 1 1 -0 0 -0 0 0 0 0 0 0 0 -0 -0 -0 -0 -1 -1 -1 -1 -1 -1 -1 -2 -1 -1 -1 -1 -1 -1 -1
1 1 1 1 0 1 1 1 0 1 0 0 0 0 -0 -1 -0 0 0 -0 -0 -0 0 -0 -0 -0 -0 -1 -1 -1 -2 -2 -2 -3 -3 -3 -3 -3 -3 -3 -3 -3 -3
1 1 1 1 1 1 1 1 0 -0 0 -0 -1 -1 -1 -1 -1 -1 -0 -1 -0 -0 -1 -0 -0 -1 -1 -1 -1 -1 -2 -2 -3 -3 -3 -4 -4 -4 -4 -5 -5 -5 -5
1 1 1 1 1 1 1 0 0 -0 -0 -1 -1 -2 -1 -1 -1 -0 -1 -0 -0 -1 -1 -1 -1 -1 -2 -2 -2 -2 -2 -3 -3 -4 -4 -4 -5 -5 -5 -6 -6 -6 -6
1 1 1 1 1 1 1 0 -0 -1 -0 -1 -1 -2 -2 -2 -3 -1 -1 -1 -1 -2 -2 -2 -2 -2 -2 -3 -3 -3 -3 -4 -4 -5 -5 -5 -6 -6 -6 -6 -7 -7 -7
1 1 1 1 1 1 1 0 -0 -0 -1 -1 -1 -2 -2 -2 -3 -3 -3 -2 -3 -2 -2 -2 -3 -3 -3 -3 -4 -4 -4 -5 -5 -6 -6 -6 -6 -7 -7 -7 -7 -7 -8
1 1 1 1 1 1 1 0 -0 -1 -1 -2 -3 -3 -2 -2 -2 -2 -2 -3 -3 -3 -4 -4 -3 -4 -4 -5 -5 -5 -5 -6 -6 -6 -7 -7 -7 -7 -8 -8 -8 -8 -9
1 1 1 0 1 1 0 0 -0 -1 -2 -2 -3 -3 -4 -3 -2 -2 -2 -2 -2 -3 -4 -5 -5 -6 -6 -6 -6 -6 -6 -7 -7 -7 -8 -8 -8 -8 -8 -9 -9 -10 -10
2 1 1 1 1 0 0 0 -1 -2 -2 -3 -3 -4 -3 -3 -3 -3 -3 -3 -4 -4 -5 -5 -6 -7 -7 -7 -7 -7 -7 -7 -7 -8 -8 -8 -9 -9 -9 -10 -11 -11 -12
2 1 1 1 0 0 0 -0 -1 -2 -2 -3 -3 -3 -3 -3 -3 -3 -3 -3 -4 -4 -5 -6 -7 -7 -7 -7 -8 -8 -8 -8 -8 -8 -9 -10 -11 -10 -11 -12 -12 -13 -13
1 1 1 1 0 0 0 -1 -1 -2 -2 -3 -3 -3 -3 -4 -4 -4 -4 -4 -5 -5 -6 -6 -7 -7 -8 -9 -9 -10 -9 -9 -10 -10 -10 -11 -11 -12 -12 -13 -13 -14 -14
1 1 1 1 0 -0 -0 -1 -2 -3 -3 -3 -3 -4 -5 -4 -4 -4 -5 -6 -6 -6 -6 -6 -7 -8 -9 -9 -10 -10 -10 -11 -11 -11 -11 -12 -12 -13 -14 -14 -14 -14 -14
0 0 -0 0 0 -1 -2 -2 -2 -3 -2 -3 -4 -5 -5 -4 -5 -6 -6 -7 -7 -7 -7 -8 -8 -9 -9 -10 -11 -12 -14 -14 -13 -14 -14 -14 -14 -14 -14 -15 -15 -15 -15
1 0 -1 0 -1 -1 -2 -2 -2 -2 -3 -3 -4 -5 -5 -5 -6 -6 -7 -7 -8 -8 -9 -8 -9 -9 -10 -11 -12 -13 -14 -14 -14 -15 -15 -15 -15 -15 -15 -15 -15 -15 -15
1 1 1 -0 -1 -2 -2 -3 -3 -3 -3 -4 -4 -5 -5 -6 -7 -7 -8 -8 -8 -9 -10 -10 -10 -11 -11 -13 -14 -15 -14 -14 -15 -15 -15 -16 -16 -16 -16 -16 -16 -16 -15
1 -0 -1 -1 -2 -1 -2 -4 -4 -4 -4 -5 -5 -6 -6 -7 -7 -8 -8 -9 -9 -10 -10 -11 -10 -11 -12 -14 -14 -15 -15 -16 -16 -15 -16 -17 -16 -16 -17 -16 -16 -16 -16
1 -1 -1 -2 -2 -2 -2 -3 -4 -4 -4 -4 -5 -6 -7 -8 -8 -8 -9 -9 -10 -10 -10 -11 -11 -12 -14 -14 -15 -15 -15 -15 -15 -16 -16 -16 -17 -17 -17 -17 -16 -16 -15
-0 -1 -1 -1 -2 -2 -3 -4 -4 -4 -5 -6 -7 -7 -8 -8 -8 -9 -9 -9 -10 -10 -10 -10 -11 -13 -14 -15 -16 -16 -16 -16 -16 -16 -16 -17 -17 -17 -17 -17 -17 -17 -16
-1 -1 -1 -2 -3 -4 -4 -4 -5 -5 -6 -7 -7 -8 -8 -9 -9 -9 -10 -10 -10 -11 -11 -12 -13 -15 -15 -15 -16 -16 -16 -16 -16 -16 -17 -17 -17 -17 -17 -18 -18 -17 -16
-1 -1 -2 -3 -3 -4 -5 -5 -5 -6 -6 -7 -7 -8 -8 -9 -9 -10 -10 -10 -10 -11 -12 -13 -15 -15 -15 -16 -16 -16 -16 -17 -16 -17 -17 -17 -18 -18 -18 -17 -17 -17 -16
-1 -2 -3 -4 -4 -5 -5 -5 -6 -6 -7 -7 -8 -8 -9 -9 -10 -10 -10 -10 -10 -11 -12 -13 -15 -15 -16 -16 -16 -16 -16 -17 -17 -17 -18 -18 -18 -18 -17 -17 -17 -17 -17
-4 -3 -4 -5 -5 -5 -5 -5 -6 -7 -7 -8 -9 -9 -9 -10 -10 -11 -11 -11 -10 -11 -12 -13 -15 -16 -16 -16 -16 -16 -16 -17 -16 -17 -18 -18 -18 -18 -17 -17 -17 -17 -17
-4 -5 -5 -5 -5 -5 -5 -6 -7 -8 -8 -9 -9 -9 -10 -10 -11 -11 -11 -11 -11 -11 -12 -13 -14 -15 -17 -16 -16 -17 -17 -17 -18 -18 -18 -18 -18 -18 -18 -17 -18 -18 -17

GFSMA_700_temp_081.txt.gz
Temp
0 2 2 2 1 2 2 2 2 1 1 1 1 1 0 -0 1 1 1 1 1 1 1 1 1 1 1 1 0 0 0 0 0 0 0 0 0 0 -0 -0 0 0 0
-0 1 2 2 1 1 2 1 1 1 1 1 1 1 1 0 1 1 1 1 1 1 1 1 1 0 0 0 -0 -0 -0 -0 -0 -0 -1 -1 -1 -1 -1 -1 -1 -1 -1
1 1 2 2 2 2 1 1 1 1 1 0 0 0 0 1 -0 1 1 1 1 0 1 1 0 -0 -0 -0 -1 -1 -1 -0 -1 -1 -1 -1 -1 -1 -1 -1 -1 -1 -1
1 1 1 1 2 1 1 1 1 1 1 0 0 1 0 0 -0 0 0 0 1 1 1 1 -0 -0 -0 -1 -1 -1 -1 -1 -2 -2 -2 -2 -2 -2 -2 -2 -2 -2 -2
1 1 1 1 1 1 1 1 1 0 0 0 1 0 -0 0 -0 -0 -0 -0 0 0 0 0 -0 -0 -0 -1 -1 -2 -2 -2 -2 -3 -3 -3 -3 -3 -3 -4 -4 -4 -4
1 1 1 2 1 1 1 1 0 0 0 0 -0 0 -0 -1 -1 -0 0 -0 0 0 0 -0 0 -0 -1 -1 -2 -2 -2 -3 -3 -3 -4 -4 -4 -4 -4 -5 -5 -5 -5
0 0 1 1 1 1 1 1 0 0 0 -0 -1 -1 -1 -1 -0 -1 -1 -0 -1 -0 -1 -1 -1 -1 -1 -1 -2 -2 -3 -3 -3 -4 -4 -4 -5 -5 -5 -6 -6 -6 -6
0 0 1 1 1 1 1 0 0 -0 0 -0 -1 -1 -2 -2 -1 -1 -1 -1 -1 -1 -1 -1 -1 -2 -2 -2 -2 -3 -3 -4 -4 -5 -5 -5 -5 -6 -6 -6 -7 -7 -7
1 1 1 2 1 2 1 0 0 0 -0 -0 -1 -1 -2 -1 -2 -2 -2 -2 -2 -2 -2 -2 -2 -2 -3 -3 -3 -3 -4 -4 -5 -5 -6 -6 -6 -7 -7 -7 -7 -8 -8
2 1 2 2 2 2 1 1 0 -0 -0 -0 -1 -1 -2 -2 -3 -3 -3 -3 -3 -3 -3 -3 -3 -3 -3 -3 -4 -4 -4 -5 -6 -6 -7 -7 -7 -8 -8 -8 -8 -8 -8
1 1 1 2 2 1 1 1 1 0 -0 -1 -1 -2 -3 -3 -2 -2 -2 -2 -3 -3 -3 -3 -4 -4 -5 -6 -6 -6 -6 -6 -6 -7 -7 -8 -8 -9 -9 -9 -9 -9 -10
1 2 1 1 1 1 1 0 1 0 -1 -1 -2 -2 -3 -3 -3 -3 -3 -3 -2 -2 -3 -4 -5 -6 -6 -7 -7 -7 -7 -7 -7 -8 -8 -9 -9 -9 -10 -10 -11 -11 -11
2 1 1 1 1 1 0 0 -0 -0 -1 -1 -1 -2 -3 -3 -3 -3 -3 -3 -3 -3 -4 -4 -6 -6 -6 -7 -7 -7 -8 -8 -9 -9 -9 -10 -10 -11 -11 -11 -12 -13 -13
1 1 1 1 1 0 0 0 -1 -1 -2 -2 -2 -3 -3 -3 -3 -4 -4 -4 -4 -4 -4 -5 -6 -7 -7 -8 -8 -8 -9 -9 -10 -10 -11 -11 -12 -13 -13 -12 -13 -14 -14
2 1 1 -0 0 -1 -0 0 -1 -2 -2 -2 -2 -2 -3 -3 -3 -4 -5 -5 -5 -4 -4 -5 -6 -7 -7 -8 -9 -9 -9 -10 -10 -11 -12 -13 -13 -14 -15 -15 -15 -14 -15
2 2 2 1 1 -0 -0 -1 -1 -2 -2 -2 -2 -2 -3 -3 -4 -4 -5 -5 -5 -5 -5 -6 -7 -8 -9 -9 -10 -10 -11 -12 -12 -13 -13 -14 -15 -15 -15 -16 -15 -16 -16
2 2 1 1 1 1 -1 -1 -1 -1 -2 -3 -3 -3 -3 -4 -4 -5 -5 -6 -6 -7 -7 -7 -8 -9 -9 -10 -10 -11 -12 -14 -14 -15 -15 -15 -15 -15 -16 -16 -16 -16 -16
2 2 2 1 1 -0 -2 -2 -2 -2 -2 -3 -4 -3 -4 -5 -5 -6 -6 -6 -7 -8 -9 -8 -9 -9 -9 -10 -11 -12 -13 -14 -15 -14 -15 -16 -16 -16 -16 -16 -16 -16 -16
2 1 1 0 -0 -2 -2 -2 -2 -2 -2 -4 -4 -4 -5 -5 -6 -6 -7 -8 -8 -9 -9 -9 -9 -9 -10 -11 -11 -12 -13 -15 -15 -15 -15 -16 -16 -16 -16 -16 -16 -16 -17
1 1 1 -1 -1 -1 -2 -2 -2 -3 -3 -4 -4 -5 -5 -6 -7 -7 -8 -8 -9 -9 -9 -9 -9 -9 -10 -10 -11 -12 -13 -15 -15 -15 -15 -16 -16 -16 -16 -17 -17 -17 -17
1 0 0 -1 -1 -2 -2 -2 -3 -3 -4 -4 -5 -5 -6 -7 -7 -8 -8 -9 -9 -9 -9 -10 -10 -10 -10 -10 -12 -14 -15 -15 -16 -16 -16 -15 -16 -16 -17 -17 -17 -17 -18
1 1 -0 -1 -2 -1 -2 -3 -3 -4 -5 -5 -6 -7 -7 -8 -8 -8 -9 -9 -9 -10 -10 -10 -10 -11 -10 -11 -12 -14 -16 -15 -16 -16 -16 -16 -16 -17 -17 -17 -18 -18 -17
0 -1 -1 -1 -2 -2 -3 -4 -4 -5 -6 -6 -7 -7 -8 -8 -8 -8 -9 -9 -9 -10 -10 -11 -11 -11 -11 -12 -13 -14 -16 -16 -17 -17 -16 -16 -17 -17 -17 -18 -17 -17 -17
-1 -1 -1 -1 -2 -2 -4 -4 -5 -6 -7 -7 -8 -8 -8 -8 -9 -9 -9 -9 -10 -10 -11 -11 -12 -11 -12 -12 -13 -15 -16 -16 -17 -17 -17 -17 -17 -17 -18 -17 -17 -18 -18
-1 -1 -2 -2 -4 -5 -5 -5 -6 -7 -7 -8 -8 -8 -8 -9 -9 -9 -10 -10 -10 -11 -11 -11 -12 -12 -12 -13 -14 -15 -17 -16 -17 -16 -17 -18 -17 -17 -17 -17 -18 -18 -18
-2 -3 -3 -4 -5 -5 -6 -6 -7 -8 -8 -8 -8 -9 -9 -10 -10 -10 -10 -11 -11 -11 -11 -12 -12 -12 -13 -14 -15 -15 -17 -17 -17 -17 -17 -18 -18 -18 -17 -17 -18 -18 -18

GFSMA_700_temp_084.txt.gz
Temp
1 2 2 2 2 3 2 2 2 2 1 1 2 2 1 1 1 1 1 1 1 1 1 1 1 1 1 1 0 0 0 0 0 0 -0 -0 -0 -0 -0 -0 -0 -1 -0
1 1 1 1 2 2 2 2 2 2 1 1 1 1 1 1 1 1 1 1 1 1 1 1 1 1 1 0 0 -0 -0 0 -0 0 -0 -0 -1 -1 -1 -1 -1 -1 -1
-0 1 1 2 2 2 2 2 2 1 1 1 1 1 1 0 1 1 1 0 0 0 0 0 0 0 -0 -0 -0 -0 -0 -0 -0 -1 -1 -1 -1 -1 -2 -1 -2 -2 -2
-0 0 1 1 2 2 2 1 1 1 0 0 1 0 -0 -0 0 1 1 1 0 -0 0 0 0 0 -0 -0 -1 -1 -1 -1 -1 -1 -2 -2 -2 -2 -2 -2 -3 -3 -3
-0 0 1 1 2 2 1 1 1 1 1 0 0 -0 -0 0 0 -0 -0 -0 -0 -0 0 0 -0 -0 -0 -0 -1 -1 -2 -2 -2 -2 -3 -3 -3 -3 -3 -3 -4 -4 -4
0 0 1 2 1 1 1 1 1 1 0 0 -0 -0 -0 0 -0 -0 -0 -0 -0 -0 -0 -0 0 0 -0 -1 -1 -2 -2 -3 -3 -3 -4 -4 -4 -4 -4 -4 -4 -5 -5
-1 0 1 1 1 1 1 1 1 1 0 -0 -0 0 -0 -0 -1 -1 -0 -0 -0 -0 -0 -0 0 -0 -0 -1 -1 -2 -3 -3 -4 -4 -4 -4 -4 -4 -5 -5 -5 -5 -6
0 0 1 1 1 1 1 1 1 1 1 0 -0 -0 -0 -0 -0 -1 -1 -1 -1 -1 -1 -1 -0 -1 -0 -1 -2 -2 -3 -3 -4 -4 -4 -5 -5 -5 -5 -6 -6 -6 -6
1 1 1 1 1 1 1 1 0 1 1 1 0 -0 -1 -1 -1 -1 -1 -1 -1 -1 -1 -1 -1 -1 -1 -2 -2 -2 -2 -3 -4 -4 -5 -5 -5 -6 -6 -7 -7 -7 -7
1 0 1 2 2 1 1 0 -0 -0 -0 0 0 0 -1 -1 -1 -1 -1 -2 -2 -2 -2 -2 -2 -2 -3 -3 -3 -3 -3 -3 -4 -5 -5 -6 -6 -7 -7 -7 -8 -8 -8
1 2 1 1 1 1 1 0 0 0 0 0 -0 -0 -1 -1 -1 -1 -2 -2 -3 -3 -3 -3 -3 -3 -4 -4 -4 -4 -4 -5 -5 -6 -6 -7 -7 -7 -8 -9 -9 -9 -9
2 1 1 1 1 1 1 1 0 0 -0 -0 -1 -1 -1 -1 -2 -2 -3 -3 -3 -3 -3 -2 -3 -4 -4 -5 -5 -5 -5 -6 -6 -7 -7 -8 -8 -9 -9 -10 -10 -11 -11
2 2 2 1 1 1 1 0 0 0 -0 -0 -1 -1 -1 -2 -3 -3 -3 -4 -3 -3 -3 -3 -5 -5 -5 -5 -6 -5 -6 -7 -7 -7 -8 -9 -10 -10 -11 -12 -12 -13 -13
2 1 1 1 1 1 0 0 -1 -0 -1 -1 -1 -1 -2 -2 -2 -3 -3 -3 -3 -3 -3 -4 -5 -5 -5 -6 -6 -6 -6 -7 -8 -9 -9 -10 -10 -11 -12 -13 -13 -14 -15
2 2 1 1 1 1 1 0 -0 -1 -1 -1 -2 -2 -2 -2 -2 -3 -3 -4 -3 -3 -3 -4 -5 -6 -6 -6 -6 -7 -7 -8 -8 -9 -10 -10 -11 -12 -13 -14 -15 -15 -16
1 1 1 1 -0 1 1 0 -0 -0 -1 -2 -2 -2 -3 -3 -3 -4 -4 -4 -4 -4 -4 -5 -5 -6 -6 -7 -7 -8 -8 -8 -9 -10 -11 -12 -13 -14 -14 -14 -15 -15 -15
2 1 1 1 0 1 1 0 -0 -1 -1 -3 -2 -3 -3 -4 -4 -4 -4 -4 -5 -5 -5 -5 -6 -6 -7 -8 -8 -9 -9 -9 -10 -11 -11 -13 -15 -15 -15 -15 -15 -16 -16
1 1 1 0 1 1 0 0 -0 -2 -2 -3 -2 -3 -3 -4 -4 -4 -4 -5 -5 -6 -6 -6 -6 -7 -8 -8 -9 -9 -9 -10 -10 -12 -13 -14 -15 -15 -15 -16 -16 -16 -16
1 1 1 1 1 1 0 -0 -0 -2 -3 -2 -3 -3 -3 -4 -4 -5 -5 -5 -6 -6 -7 -7 -7 -8 -9 -9 -9 -10 -10 -11 -11 -13 -14 -15 -15 -15 -15 -16 -16 -16 -17
1 2 1 1 1 0 -0 -1 -1 -2 -2 -3 -4 -3 -4 -5 -5 -6 -6 -6 -7 -7 -8 -8 -8 -8 -9 -9 -10 -10 -10 -10 -11 -12 -13 -15 -15 -16 -16 -16 -16 -16 -17
2 1 1 1 1 0 -1 -1 -2 -2 -3 -3 -4 -4 -5 -6 -6 -6 -6 -7 -8 -8 -8 -8 -9 -9 -9 -10 -10 -10 -11 -11 -11 -12 -13 -15 -16 -16 -16 -16 -16 -17 -17
2 1 1 1 1 0 -1 -1 -2 -2 -3 -4 -4 -5 -6 -6 -6 -7 -7 -8 -8 -9 -9 -9 -10 -10 -10 -10 -11 -11 -11 -11 -11 -12 -14 -15 -16 -16 -17 -17 -17 -17 -17
1 1 1 0 -1 -0 -1 -2 -2 -3 -4 -5 -5 -6 -7 -7 -7 -8 -8 -9 -9 -9 -10 -10 -10 -10 -10 -11 -11 -11 -12 -12 -12 -13 -15 -15 -16 -17 -17 -17 -17 -17 -17
2 1 0 0 -0 -1 -2 -3 -4 -5 -5 -6 -6 -7 -8 -8 -8 -9 -9 -9 -9 -10 -10 -10 -10 -11 -11 -12 -12 -12 -12 -12 -12 -13 -16 -17 -17 -17 -17 -17 -17 -17 -18
1 0 -0 -1 -2 -2 -3 -4 -4 -6 -6 -6 -7 -8 -9 -10 -9 -9 -9 -9 -9 -10 -10 -11 -11 -11 -12 -12 -13 -13 -13 -14 -13 -14 -16 -17 -17 -17 -17 -17 -18 -18 -18
-1 -2 -2 -3 -2 -3 -4 -4 -5 -6 -6 -7 -9 -10 -11 -11 -11 -11 -10 -10 -10 -10 -11 -11 -12 -12 -12 -13 -13 -14 -14 -15 -15 -15 -16 -17 -17 -18 -18 -17 -18 -18 -18